Wetterdaten: Sonntag, 13.10.2019
Datum Zeit Temp. A. Pool Temp. Temp. 5cm Feuchte A. Luftdruck Regen Wind Richtung Richtung Sonnenschein ET UV Solar Taupunkt Windchill Windben Empfang
13.10.2019 00:00 9,6 C 10,0 C 7,8 C 94 % 1017,8 hPa 0,0 l/m 0,0 km/h (0 Bft) S-SW 209 0 min 0,000 mm 0,0 UV-I 0 W/m 8,7 C 9,6 C 0,0 km/h (0 Bft) 100,00 %
13.10.2019 00:02 9,6 C 10,0 C 7,8 C 94 % 1017,8 hPa 0,0 l/m 0,0 km/h (0 Bft) S-SW 209 0 min 0,000 mm 0,0 UV-I 0 W/m 8,7 C 9,6 C 0,0 km/h (0 Bft) 100,00 %
13.10.2019 00:04 9,6 C 10,0 C 7,2 C 95 % 1017,8 hPa 0,0 l/m 0,0 km/h (0 Bft) S-SW 208 0 min 0,000 mm 0,0 UV-I 0 W/m 8,8 C 9,6 C 0,0 km/h (0 Bft) 97,87 %
13.10.2019 00:06 9,7 C 10,0 C 7,2 C 95 % 1017,7 hPa 0,0 l/m 0,0 km/h (0 Bft) S-SW 207 0 min 0,000 mm 0,0 UV-I 0 W/m 8,9 C 9,7 C 0,0 km/h (0 Bft) 100,00 %
13.10.2019 00:08 9,7 C 10,0 C 7,2 C 95 % 1017,7 hPa 0,0 l/m 0,0 km/h (0 Bft) S-SW 205 0 min 0,000 mm 0,0 UV-I 0 W/m 8,9 C 9,7 C 0,0 km/h (0 Bft) 95,74 %
13.10.2019 00:10 9,9 C 10,0 C 7,8 C 95 % 1017,6 hPa 0,0 l/m 0,0 km/h (0 Bft) S 177 0 min 0,000 mm 0,0 UV-I 0 W/m 9,1 C 9,9 C 0,0 km/h (0 Bft) 98,00 %
13.10.2019 00:12 10,1 C 10,0 C 8,3 C 95 % 1017,6 hPa 0,0 l/m 0,0 km/h (0 Bft) S 176 0 min 0,000 mm 0,0 UV-I 0 W/m 9,3 C 10,1 C 0,0 km/h (0 Bft) 100,00 %
13.10.2019 00:14 10,0 C 10,0 C 7,8 C 95 % 1017,5 hPa 0,0 l/m 0,0 km/h (0 Bft) S 176 0 min 0,000 mm 0,0 UV-I 0 W/m 9,2 C 10,0 C 0,0 km/h (0 Bft) 100,00 %
13.10.2019 00:16 9,9 C 10,0 C 7,2 C 95 % 1017,5 hPa 0,0 l/m 0,0 km/h (0 Bft) S 176 0 min 0,000 mm 0,0 UV-I 0 W/m 9,1 C 9,9 C 0,0 km/h (0 Bft) 100,00 %
13.10.2019 00:18 9,9 C 10,0 C 7,2 C 94 % 1017,5 hPa 0,0 l/m 0,0 km/h (0 Bft) S 176 0 min 0,000 mm 0,0 UV-I 0 W/m 9,0 C 9,9 C 0,0 km/h (0 Bft) 100,00 %
13.10.2019 00:20 9,9 C 10,0 C 7,2 C 94 % 1017,6 hPa 0,0 l/m 0,0 km/h (0 Bft) S 176 0 min 0,000 mm 0,0 UV-I 0 W/m 9,0 C 9,9 C 0,0 km/h (0 Bft) 100,00 %
13.10.2019 00:22 9,9 C 10,0 C 7,2 C 94 % 1017,5 hPa 0,0 l/m 0,0 km/h (0 Bft) S 176 0 min 0,000 mm 0,0 UV-I 0 W/m 9,0 C 9,9 C 0,0 km/h (0 Bft) 100,00 %
13.10.2019 00:24 9,8 C 10,0 C 7,2 C 94 % 1017,5 hPa 0,0 l/m 0,0 km/h (0 Bft) S 176 0 min 0,000 mm 0,0 UV-I 0 W/m 8,9 C 9,8 C 0,0 km/h (0 Bft) 100,00 %
13.10.2019 00:26 9,8 C 10,0 C 6,7 C 94 % 1017,5 hPa 0,0 l/m 0,0 km/h (0 Bft) S 176 0 min 0,000 mm 0,0 UV-I 0 W/m 8,9 C 9,8 C 0,0 km/h (0 Bft) 100,00 %
13.10.2019 00:28 9,7 C 10,0 C 6,7 C 94 % 1017,5 hPa 0,0 l/m 0,0 km/h (0 Bft) S 176 0 min 0,000 mm 0,0 UV-I 0 W/m 8,8 C 9,7 C 0,0 km/h (0 Bft) 100,00 %
13.10.2019 00:30 9,6 C 10,0 C 6,7 C 94 % 1017,5 hPa 0,0 l/m 0,0 km/h (0 Bft) S 176 0 min 0,000 mm 0,0 UV-I 0 W/m 8,7 C 9,6 C 0,0 km/h (0 Bft) 97,87 %
13.10.2019 00:32 9,6 C 10,0 C 6,7 C 94 % 1017,5 hPa 0,0 l/m 0,0 km/h (0 Bft) S 176 0 min 0,000 mm 0,0 UV-I 0 W/m 8,7 C 9,6 C 0,0 km/h (0 Bft) 100,00 %
13.10.2019 00:34 9,7 C 10,0 C 6,7 C 94 % 1017,5 hPa 0,0 l/m 0,0 km/h (0 Bft) S 176 0 min 0,000 mm 0,0 UV-I 0 W/m 8,8 C 9,7 C 0,0 km/h (0 Bft) 100,00 %
13.10.2019 00:36 9,6 C 10,0 C 6,1 C 94 % 1017,4 hPa 0,0 l/m 0,0 km/h (0 Bft) S 176 0 min 0,000 mm 0,0 UV-I 0 W/m 8,7 C 9,6 C 0,0 km/h (0 Bft) 100,00 %
13.10.2019 00:38 9,5 C 10,0 C 6,7 C 94 % 1017,4 hPa 0,0 l/m 0,0 km/h (0 Bft) S 176 0 min 0,000 mm 0,0 UV-I 0 W/m 8,6 C 9,5 C 0,0 km/h (0 Bft) 100,00 %
13.10.2019 00:40 9,3 C 10,0 C 6,7 C 93 % 1017,4 hPa 0,0 l/m 0,0 km/h (0 Bft) S 176 0 min 0,000 mm 0,0 UV-I 0 W/m 8,2 C 9,3 C 0,0 km/h (0 Bft) 97,87 %
13.10.2019 00:42 9,3 C 10,0 C 6,7 C 94 % 1017,5 hPa 0,0 l/m 0,0 km/h (0 Bft) S 176 0 min 0,000 mm 0,0 UV-I 0 W/m 8,4 C 9,3 C 0,0 km/h (0 Bft) 97,87 %
13.10.2019 00:44 9,3 C 10,0 C 7,2 C 94 % 1017,5 hPa 0,0 l/m 0,0 km/h (0 Bft) S 176 0 min 0,000 mm 0,0 UV-I 0 W/m 8,4 C 9,3 C 0,0 km/h (0 Bft) 100,00 %
13.10.2019 00:46 9,3 C 10,6 C 6,7 C 95 % 1017,5 hPa 0,0 l/m 0,0 km/h (0 Bft) S 176 0 min 0,000 mm 0,0 UV-I 0 W/m 8,5 C 9,3 C 0,0 km/h (0 Bft) 100,00 %
13.10.2019 00:48 9,3 C 10,0 C 6,7 C 94 % 1017,5 hPa 0,0 l/m 0,0 km/h (0 Bft) S 176 0 min 0,000 mm 0,0 UV-I 0 W/m 8,4 C 9,3 C 0,0 km/h (0 Bft) 100,00 %
13.10.2019 00:50 9,2 C 10,0 C 6,7 C 94 % 1017,6 hPa 0,0 l/m 0,0 km/h (0 Bft) SW 216 0 min 0,000 mm 0,0 UV-I 0 W/m 8,3 C 9,2 C 0,0 km/h (0 Bft) 97,87 %
13.10.2019 00:52 9,2 C 10,0 C 6,7 C 94 % 1017,6 hPa 0,0 l/m 0,0 km/h (0 Bft) SW 216 0 min 0,000 mm 0,0 UV-I 0 W/m 8,3 C 9,2 C 0,0 km/h (0 Bft) 95,74 %
13.10.2019 00:54 9,0 C 10,0 C 6,7 C 94 % 1017,7 hPa 0,0 l/m 0,0 km/h (0 Bft) SW 217 0 min 0,000 mm 0,0 UV-I 0 W/m 8,1 C 9,0 C 0,0 km/h (0 Bft) 97,87 %
13.10.2019 00:56 8,9 C 10,0 C 6,7 C 94 % 1017,8 hPa 0,0 l/m 0,0 km/h (0 Bft) SW 217 0 min 0,000 mm 0,0 UV-I 0 W/m 8,0 C 8,9 C 0,0 km/h (0 Bft) 97,22 %
13.10.2019 00:58 8,8 C 10,0 C 6,1 C 94 % 1017,8 hPa 0,0 l/m 0,0 km/h (0 Bft) SW 217 0 min 0,000 mm 0,0 UV-I 0 W/m 7,9 C 8,8 C 0,0 km/h (0 Bft) 98,00 %
13.10.2019 01:00 8,7 C 10,0 C 6,1 C 94 % 1017,8 hPa 0,0 l/m 0,0 km/h (0 Bft) SW 217 0 min 0,000 mm 0,0 UV-I 0 W/m 7,8 C 8,7 C 0,0 km/h (0 Bft) 94,00 %
13.10.2019 01:02 8,6 C 10,0 C 6,1 C 94 % 1017,8 hPa 0,0 l/m 0,0 km/h (0 Bft) SW 218 0 min 0,000 mm 0,0 UV-I 0 W/m 7,7 C 8,6 C 0,0 km/h (0 Bft) 95,74 %
13.10.2019 01:04 8,6 C 10,0 C 6,1 C 95 % 1017,7 hPa 0,0 l/m 0,0 km/h (0 Bft) W-SW 257 0 min 0,000 mm 0,0 UV-I 0 W/m 7,8 C 8,6 C 0,0 km/h (0 Bft) 97,87 %
13.10.2019 01:06 8,7 C 10,0 C 6,1 C 95 % 1017,7 hPa 0,0 l/m 0,0 km/h (0 Bft) W 261 0 min 0,000 mm 0,0 UV-I 0 W/m 7,9 C 8,7 C 0,0 km/h (0 Bft) 97,87 %
13.10.2019 01:08 8,6 C 10,0 C 6,7 C 95 % 1017,7 hPa 0,0 l/m 0,0 km/h (0 Bft) W 261 0 min 0,000 mm 0,0 UV-I 0 W/m 7,8 C 8,6 C 0,0 km/h (0 Bft) 97,87 %
13.10.2019 01:10 8,8 C 10,0 C 6,1 C 95 % 1017,9 hPa 0,0 l/m 0,0 km/h (0 Bft) W 265 0 min 0,000 mm 0,0 UV-I 0 W/m 8,0 C 8,8 C 0,0 km/h (0 Bft) 97,87 %
13.10.2019 01:12 8,8 C 10,0 C 6,1 C 95 % 1017,9 hPa 0,0 l/m 0,0 km/h (0 Bft) W 265 0 min 0,000 mm 0,0 UV-I 0 W/m 8,0 C 8,8 C 0,0 km/h (0 Bft) 100,00 %
13.10.2019 01:14 8,8 C 10,0 C 6,1 C 95 % 1017,9 hPa 0,0 l/m 0,0 km/h (0 Bft) W 265 0 min 0,000 mm 0,0 UV-I 0 W/m 8,0 C 8,8 C 0,0 km/h (0 Bft) 100,00 %
13.10.2019 01:16 8,8 C 10,0 C 6,1 C 95 % 1017,7 hPa 0,0 l/m 0,0 km/h (0 Bft) W 265 0 min 0,000 mm 0,0 UV-I 0 W/m 8,0 C 8,8 C 0,0 km/h (0 Bft) 100,00 %
13.10.2019 01:18 8,6 C 10,0 C 6,1 C 94 % 1017,7 hPa 0,0 l/m 0,0 km/h (0 Bft) S-SO 153 0 min 0,000 mm 0,0 UV-I 0 W/m 7,7 C 8,6 C 0,0 km/h (0 Bft) 100,00 %
13.10.2019 01:20 8,6 C 10,0 C 6,1 C 95 % 1017,7 hPa 0,0 l/m 0,0 km/h (0 Bft) S-SO 153 0 min 0,000 mm 0,0 UV-I 0 W/m 7,8 C 8,6 C 0,0 km/h (0 Bft) 100,00 %
13.10.2019 01:22 8,7 C 10,0 C 6,1 C 95 % 1017,8 hPa 0,0 l/m 0,0 km/h (0 Bft) S-SO 153 0 min 0,000 mm 0,0 UV-I 0 W/m 7,9 C 8,7 C 0,0 km/h (0 Bft) 100,00 %
13.10.2019 01:24 8,9 C 10,0 C 5,6 C 95 % 1017,9 hPa 0,0 l/m 0,0 km/h (0 Bft) S-SO 153 0 min 0,000 mm 0,0 UV-I 0 W/m 8,1 C 8,9 C 0,0 km/h (0 Bft) 100,00 %
13.10.2019 01:26 9,0 C 10,0 C 6,1 C 95 % 1017,8 hPa 0,0 l/m 0,0 km/h (0 Bft) S-SO 153 0 min 0,000 mm 0,0 UV-I 0 W/m 8,2 C 9,0 C 0,0 km/h (0 Bft) 100,00 %
13.10.2019 01:28 9,1 C 10,0 C 5,6 C 95 % 1017,8 hPa 0,0 l/m 0,0 km/h (0 Bft) S-SO 153 0 min 0,000 mm 0,0 UV-I 0 W/m 8,3 C 9,1 C 0,0 km/h (0 Bft) 100,00 %
13.10.2019 01:30 9,1 C 10,6 C 5,6 C 95 % 1017,7 hPa 0,0 l/m 0,0 km/h (0 Bft) SO 131 0 min 0,000 mm 0,0 UV-I 0 W/m 8,3 C 9,1 C 0,0 km/h (0 Bft) 97,87 %
13.10.2019 01:32 9,1 C 10,0 C 6,1 C 95 % 1017,8 hPa 0,0 l/m 0,0 km/h (0 Bft) SO 131 0 min 0,000 mm 0,0 UV-I 0 W/m 8,3 C 9,1 C 0,0 km/h (0 Bft) 100,00 %
13.10.2019 01:34 9,3 C 10,0 C 6,1 C 95 % 1017,9 hPa 0,0 l/m 0,0 km/h (0 Bft) SO 131 0 min 0,000 mm 0,0 UV-I 0 W/m 8,5 C 9,3 C 0,0 km/h (0 Bft) 97,87 %
13.10.2019 01:36 9,3 C 10,6 C 6,1 C 95 % 1017,9 hPa 0,0 l/m 0,0 km/h (0 Bft) SO 131 0 min 0,000 mm 0,0 UV-I 0 W/m 8,5 C 9,3 C 0,0 km/h (0 Bft) 100,00 %
13.10.2019 01:38 9,1 C 10,6 C 6,7 C 95 % 1017,9 hPa 0,0 l/m 0,0 km/h (0 Bft) SO 131 0 min 0,000 mm 0,0 UV-I 0 W/m 8,3 C 9,1 C 0,0 km/h (0 Bft) 97,87 %
13.10.2019 01:40 8,8 C 10,0 C 6,1 C 94 % 1017,9 hPa 0,0 l/m 0,0 km/h (0 Bft) SO 131 0 min 0,000 mm 0,0 UV-I 0 W/m 7,9 C 8,8 C 0,0 km/h (0 Bft) 97,87 %
13.10.2019 01:42 8,6 C 10,6 C 6,1 C 94 % 1018,0 hPa 0,0 l/m 0,0 km/h (0 Bft) SW 227 0 min 0,000 mm 0,0 UV-I 0 W/m 7,7 C 8,6 C 0,0 km/h (0 Bft) 97,22 %
13.10.2019 01:44 8,4 C 10,6 C 6,1 C 94 % 1018,0 hPa 0,0 l/m 0,0 km/h (0 Bft) SW 227 0 min 0,000 mm 0,0 UV-I 0 W/m 7,5 C 8,4 C 0,0 km/h (0 Bft) 96,00 %
13.10.2019 01:46 8,3 C 10,6 C 6,1 C 94 % 1018,0 hPa 0,0 l/m 0,0 km/h (0 Bft) SW 227 0 min 0,000 mm 0,0 UV-I 0 W/m 7,4 C 8,3 C 0,0 km/h (0 Bft) 97,87 %
13.10.2019 01:48 8,2 C 10,0 C 6,7 C 94 % 1018,0 hPa 0,0 l/m 0,0 km/h (0 Bft) SW 227 0 min 0,000 mm 0,0 UV-I 0 W/m 7,3 C 8,2 C 0,0 km/h (0 Bft) 95,74 %
13.10.2019 01:50 8,0 C 10,6 C 6,1 C 94 % 1018,0 hPa 0,0 l/m 0,0 km/h (0 Bft) SW 227 0 min 0,000 mm 0,0 UV-I 0 W/m 7,1 C 8,0 C 0,0 km/h (0 Bft) 95,74 %
13.10.2019 01:52 7,9 C 10,0 C 5,6 C 94 % 1018,0 hPa 0,0 l/m 0,0 km/h (0 Bft) SW 227 0 min 0,000 mm 0,0 UV-I 0 W/m 7,0 C 7,9 C 0,0 km/h (0 Bft) 93,62 %
13.10.2019 01:54 7,8 C 10,6 C 5,6 C 94 % 1018,0 hPa 0,0 l/m 0,0 km/h (0 Bft) SW 227 0 min 0,000 mm 0,0 UV-I 0 W/m 6,9 C 7,8 C 0,0 km/h (0 Bft) 94,00 %
13.10.2019 01:56 7,7 C 10,6 C 5,6 C 94 % 1018,0 hPa 0,0 l/m 0,0 km/h (0 Bft) SW 227 0 min 0,000 mm 0,0 UV-I 0 W/m 6,8 C 7,7 C 0,0 km/h (0 Bft) 93,62 %
13.10.2019 01:58 7,7 C 10,6 C 5,6 C 95 % 1017,9 hPa 0,0 l/m 0,0 km/h (0 Bft) SW 227 0 min 0,000 mm 0,0 UV-I 0 W/m 7,0 C 7,7 C 0,0 km/h (0 Bft) 93,62 %
13.10.2019 02:00 7,8 C 10,6 C 5,6 C 95 % 1017,9 hPa 0,0 l/m 0,0 km/h (0 Bft) SW 227 0 min 0,000 mm 0,0 UV-I 0 W/m 7,0 C 7,8 C 0,0 km/h (0 Bft) 94,00 %
13.10.2019 02:02 8,0 C 10,0 C 5,6 C 95 % 1018,0 hPa 0,0 l/m 0,0 km/h (0 Bft) SW 227 0 min 0,000 mm 0,0 UV-I 0 W/m 7,2 C 8,0 C 0,0 km/h (0 Bft) 93,62 %
13.10.2019 02:04 8,1 C 10,6 C 5,6 C 96 % 1018,0 hPa 0,0 l/m 0,0 km/h (0 Bft) SW 227 0 min 0,000 mm 0,0 UV-I 0 W/m 7,5 C 8,1 C 0,0 km/h (0 Bft) 93,62 %
13.10.2019 02:06 8,1 C 10,0 C 5,6 C 95 % 1018,0 hPa 0,0 l/m 0,0 km/h (0 Bft) SW 227 0 min 0,000 mm 0,0 UV-I 0 W/m 7,3 C 8,1 C 0,0 km/h (0 Bft) 93,62 %
13.10.2019 02:08 7,9 C 10,6 C 5,6 C 95 % 1018,0 hPa 0,0 l/m 0,0 km/h (0 Bft) SW 227 0 min 0,000 mm 0,0 UV-I 0 W/m 7,1 C 7,9 C 0,0 km/h (0 Bft) 91,49 %
13.10.2019 02:10 7,9 C 10,6 C 5,0 C 95 % 1018,0 hPa 0,0 l/m 0,0 km/h (0 Bft) SW 227 0 min 0,000 mm 0,0 UV-I 0 W/m 7,1 C 7,9 C 0,0 km/h (0 Bft) 91,49 %
13.10.2019 02:12 7,7 C 10,0 C 5,6 C 95 % 1018,0 hPa 0,0 l/m 0,0 km/h (0 Bft) SW 227 0 min 0,000 mm 0,0 UV-I 0 W/m 7,0 C 7,7 C 0,0 km/h (0 Bft) 94,44 %
13.10.2019 02:14 7,7 C 10,6 C 5,6 C 95 % 1018,0 hPa 0,0 l/m 0,0 km/h (0 Bft) SW 227 0 min 0,000 mm 0,0 UV-I 0 W/m 7,0 C 7,7 C 0,0 km/h (0 Bft) 92,00 %
13.10.2019 02:16 7,6 C 10,6 C 5,6 C 95 % 1018,0 hPa 0,0 l/m 0,0 km/h (0 Bft) SW 227 0 min 0,000 mm 0,0 UV-I 0 W/m 6,9 C 7,6 C 0,0 km/h (0 Bft) 91,49 %
13.10.2019 02:18 7,6 C 10,0 C 5,6 C 95 % 1018,0 hPa 0,0 l/m 0,0 km/h (0 Bft) SW 227 0 min 0,000 mm 0,0 UV-I 0 W/m 6,9 C 7,6 C 0,0 km/h (0 Bft) 91,49 %
13.10.2019 02:20 7,5 C 10,6 C 5,6 C 95 % 1018,0 hPa 0,0 l/m 0,0 km/h (0 Bft) SW 227 0 min 0,000 mm 0,0 UV-I 0 W/m 6,8 C 7,5 C 0,0 km/h (0 Bft) 95,74 %
13.10.2019 02:22 7,6 C 10,6 C 5,0 C 95 % 1018,1 hPa 0,0 l/m 0,0 km/h (0 Bft) SW 227 0 min 0,000 mm 0,0 UV-I 0 W/m 6,9 C 7,6 C 0,0 km/h (0 Bft) 93,62 %
13.10.2019 02:24 7,5 C 10,6 C 5,6 C 95 % 1018,1 hPa 0,0 l/m 0,0 km/h (0 Bft) SW 227 0 min 0,000 mm 0,0 UV-I 0 W/m 6,8 C 7,5 C 0,0 km/h (0 Bft) 91,49 %
13.10.2019 02:26 7,4 C 10,6 C 5,6 C 95 % 1018,1 hPa 0,0 l/m 0,0 km/h (0 Bft) SW 227 0 min 0,000 mm 0,0 UV-I 0 W/m 6,7 C 7,4 C 0,0 km/h (0 Bft) 93,62 %
13.10.2019 02:28 7,4 C 10,6 C 5,6 C 95 % 1018,1 hPa 0,0 l/m 0,0 km/h (0 Bft) SW 227 0 min 0,000 mm 0,0 UV-I 0 W/m 6,7 C 7,4 C 0,0 km/h (0 Bft) 96,00 %
13.10.2019 02:30 7,5 C 10,6 C 5,0 C 95 % 1018,1 hPa 0,0 l/m 0,0 km/h (0 Bft) SW 227 0 min 0,000 mm 0,0 UV-I 0 W/m 6,8 C 7,5 C 0,0 km/h (0 Bft) 97,87 %
13.10.2019 02:32 7,4 C 10,6 C 5,0 C 95 % 1018,1 hPa 0,0 l/m 0,0 km/h (0 Bft) SW 227 0 min 0,000 mm 0,0 UV-I 0 W/m 6,7 C 7,4 C 0,0 km/h (0 Bft) 97,87 %
13.10.2019 02:34 7,5 C 10,6 C 5,0 C 95 % 1018,1 hPa 0,0 l/m 0,0 km/h (0 Bft) SW 227 0 min 0,000 mm 0,0 UV-I 0 W/m 6,8 C 7,5 C 0,0 km/h (0 Bft) 93,62 %
13.10.2019 02:36 7,6 C 10,6 C 5,0 C 96 % 1018,1 hPa 0,0 l/m 0,0 km/h (0 Bft) SW 227 0 min 0,000 mm 0,0 UV-I 0 W/m 7,0 C 7,6 C 0,0 km/h (0 Bft) 95,74 %
13.10.2019 02:38 7,7 C 10,6 C 5,0 C 96 % 1018,0 hPa 0,0 l/m 0,0 km/h (0 Bft) SW 227 0 min 0,000 mm 0,0 UV-I 0 W/m 7,1 C 7,7 C 0,0 km/h (0 Bft) 97,87 %
13.10.2019 02:40 7,5 C 10,6 C 5,6 C 95 % 1018,0 hPa 0,0 l/m 0,0 km/h (0 Bft) SW 226 0 min 0,000 mm 0,0 UV-I 0 W/m 6,8 C 7,5 C 0,0 km/h (0 Bft) 98,00 %
13.10.2019 02:42 7,4 C 10,6 C 6,1 C 95 % 1018,0 hPa 0,0 l/m 0,0 km/h (0 Bft) SW 225 0 min 0,000 mm 0,0 UV-I 0 W/m 6,7 C 7,4 C 0,0 km/h (0 Bft) 97,87 %
13.10.2019 02:44 7,3 C 10,6 C 5,6 C 95 % 1018,0 hPa 0,0 l/m 0,0 km/h (0 Bft) SW 225 0 min 0,000 mm 0,0 UV-I 0 W/m 6,6 C 7,3 C 0,0 km/h (0 Bft) 97,14 %
13.10.2019 02:46 7,4 C 10,6 C 5,6 C 96 % 1018,1 hPa 0,0 l/m 0,0 km/h (0 Bft) SW 225 0 min 0,000 mm 0,0 UV-I 0 W/m 6,8 C 7,4 C 0,0 km/h (0 Bft) 97,87 %
13.10.2019 02:48 7,5 C 10,6 C 5,6 C 96 % 1018,0 hPa 0,0 l/m 0,0 km/h (0 Bft) SW 225 0 min 0,000 mm 0,0 UV-I 0 W/m 6,9 C 7,5 C 0,0 km/h (0 Bft) 100,00 %
13.10.2019 02:50 7,4 C 10,6 C 5,6 C 95 % 1018,1 hPa 0,0 l/m 0,0 km/h (0 Bft) SW 225 0 min 0,000 mm 0,0 UV-I 0 W/m 6,7 C 7,4 C 0,0 km/h (0 Bft) 100,00 %
13.10.2019 02:52 7,4 C 10,0 C 5,6 C 95 % 1018,1 hPa 0,0 l/m 0,0 km/h (0 Bft) SW 225 0 min 0,000 mm 0,0 UV-I 0 W/m 6,7 C 7,4 C 0,0 km/h (0 Bft) 100,00 %
13.10.2019 02:54 7,4 C 10,6 C 5,6 C 95 % 1018,2 hPa 0,0 l/m 0,0 km/h (0 Bft) SW 227 0 min 0,000 mm 0,0 UV-I 0 W/m 6,7 C 7,4 C 0,0 km/h (0 Bft) 100,00 %
13.10.2019 02:56 7,4 C 10,6 C 6,1 C 96 % 1018,3 hPa 0,0 l/m 0,0 km/h (0 Bft) SW 230 0 min 0,000 mm 0,0 UV-I 0 W/m 6,8 C 7,4 C 0,0 km/h (0 Bft) 100,00 %
13.10.2019 02:58 7,6 C 10,6 C 6,1 C 96 % 1018,2 hPa 0,0 l/m 0,0 km/h (0 Bft) SW 231 0 min 0,000 mm 0,0 UV-I 0 W/m 7,0 C 7,6 C 0,0 km/h (0 Bft) 97,87 %
13.10.2019 03:00 7,7 C 10,6 C 6,1 C 96 % 1018,2 hPa 0,0 l/m 0,0 km/h (0 Bft) SW 214 0 min 0,000 mm 0,0 UV-I 0 W/m 7,1 C 7,7 C 0,0 km/h (0 Bft) 96,00 %
13.10.2019 03:02 7,6 C 10,6 C 6,1 C 96 % 1018,2 hPa 0,0 l/m 0,0 km/h (0 Bft) S-SW 212 0 min 0,000 mm 0,0 UV-I 0 W/m 7,0 C 7,6 C 0,0 km/h (0 Bft) 100,00 %
13.10.2019 03:04 7,3 C 10,6 C 6,1 C 96 % 1018,1 hPa 0,0 l/m 0,0 km/h (0 Bft) S-SW 212 0 min 0,000 mm 0,0 UV-I 0 W/m 6,7 C 7,3 C 0,0 km/h (0 Bft) 97,87 %
13.10.2019 03:06 7,3 C 10,6 C 5,6 C 95 % 1018,2 hPa 0,0 l/m 0,0 km/h (0 Bft) S-SW 212 0 min 0,000 mm 0,0 UV-I 0 W/m 6,6 C 7,3 C 0,0 km/h (0 Bft) 97,87 %
13.10.2019 03:08 7,3 C 10,6 C 5,6 C 96 % 1018,2 hPa 0,0 l/m 0,0 km/h (0 Bft) S-SW 212 0 min 0,000 mm 0,0 UV-I 0 W/m 6,7 C 7,3 C 0,0 km/h (0 Bft) 97,87 %
13.10.2019 03:10 7,3 C 10,6 C 5,6 C 96 % 1018,1 hPa 0,0 l/m 0,0 km/h (0 Bft) S-SW 212 0 min 0,000 mm 0,0 UV-I 0 W/m 6,7 C 7,3 C 0,0 km/h (0 Bft) 100,00 %
13.10.2019 03:12 7,4 C 10,6 C 5,6 C 96 % 1018,1 hPa 0,0 l/m 0,0 km/h (0 Bft) S-SW 212 0 min 0,000 mm 0,0 UV-I 0 W/m 6,8 C 7,4 C 0,0 km/h (0 Bft) 100,00 %
13.10.2019 03:14 7,5 C 10,6 C 5,6 C 96 % 1018,1 hPa 0,0 l/m 0,0 km/h (0 Bft) S-SW 211 0 min 0,000 mm 0,0 UV-I 0 W/m 6,9 C 7,5 C 0,0 km/h (0 Bft) 97,87 %
13.10.2019 03:16 7,5 C 10,6 C 5,6 C 96 % 1018,2 hPa 0,0 l/m 0,0 km/h (0 Bft) S-SW 211 0 min 0,000 mm 0,0 UV-I 0 W/m 6,9 C 7,5 C 0,0 km/h (0 Bft) 97,87 %
13.10.2019 03:18 7,6 C 10,6 C 5,6 C 96 % 1018,1 hPa 0,0 l/m 0,0 km/h (0 Bft) S-SW 212 0 min 0,000 mm 0,0 UV-I 0 W/m 7,0 C 7,6 C 0,0 km/h (0 Bft) 100,00 %
13.10.2019 03:20 7,8 C 10,6 C 5,6 C 96 % 1018,1 hPa 0,0 l/m 0,0 km/h (0 Bft) S-SW 212 0 min 0,000 mm 0,0 UV-I 0 W/m 7,2 C 7,8 C 0,0 km/h (0 Bft) 97,87 %
13.10.2019 03:22 7,7 C 10,6 C 6,1 C 96 % 1018,0 hPa 0,0 l/m 0,0 km/h (0 Bft) S-SW 212 0 min 0,000 mm 0,0 UV-I 0 W/m 7,1 C 7,7 C 0,0 km/h (0 Bft) 100,00 %
13.10.2019 03:24 7,4 C 10,6 C 6,1 C 96 % 1018,0 hPa 0,0 l/m 0,0 km/h (0 Bft) S-SW 200 0 min 0,000 mm 0,0 UV-I 0 W/m 6,8 C 7,4 C 0,0 km/h (0 Bft) 97,87 %
13.10.2019 03:26 7,2 C 10,6 C 6,1 C 95 % 1018,0 hPa 0,0 l/m 0,0 km/h (0 Bft) S-SW 200 0 min 0,000 mm 0,0 UV-I 0 W/m 6,5 C 7,2 C 0,0 km/h (0 Bft) 97,87 %
13.10.2019 03:28 7,2 C 10,6 C 5,6 C 95 % 1018,0 hPa 0,0 l/m 0,0 km/h (0 Bft) S 190 0 min 0,000 mm 0,0 UV-I 0 W/m 6,5 C 7,2 C 0,0 km/h (0 Bft) 97,87 %
13.10.2019 03:30 7,2 C 10,6 C 5,6 C 96 % 1018,0 hPa 0,0 l/m 0,0 km/h (0 Bft) S 180 0 min 0,000 mm 0,0 UV-I 0 W/m 6,6 C 7,2 C 0,0 km/h (0 Bft) 97,87 %
13.10.2019 03:32 7,2 C 10,6 C 5,0 C 96 % 1018,0 hPa 0,0 l/m 0,0 km/h (0 Bft) S 180 0 min 0,000 mm 0,0 UV-I 0 W/m 6,6 C 7,2 C 0,0 km/h (0 Bft) 97,22 %
13.10.2019 03:34 7,4 C 10,6 C 5,0 C 96 % 1018,0 hPa 0,0 l/m 0,0 km/h (0 Bft) S 180 0 min 0,000 mm 0,0 UV-I 0 W/m 6,8 C 7,4 C 0,0 km/h (0 Bft) 98,00 %
13.10.2019 03:36 7,6 C 10,6 C 5,0 C 96 % 1018,0 hPa 0,0 l/m 0,0 km/h (0 Bft) S 180 0 min 0,000 mm 0,0 UV-I 0 W/m 7,0 C 7,6 C 0,0 km/h (0 Bft) 97,87 %
13.10.2019 03:38 7,7 C 10,6 C 5,6 C 96 % 1017,9 hPa 0,0 l/m 0,0 km/h (0 Bft) S 180 0 min 0,000 mm 0,0 UV-I 0 W/m 7,1 C 7,7 C 0,0 km/h (0 Bft) 98,00 %
13.10.2019 03:40 7,7 C 10,6 C 5,6 C 96 % 1017,8 hPa 0,0 l/m 0,0 km/h (0 Bft) SO 144 0 min 0,000 mm 0,0 UV-I 0 W/m 7,1 C 7,7 C 0,0 km/h (0 Bft) 97,87 %
13.10.2019 03:42 7,7 C 10,6 C 5,0 C 96 % 1017,8 hPa 0,0 l/m 0,0 km/h (0 Bft) SO 144 0 min 0,000 mm 0,0 UV-I 0 W/m 7,1 C 7,7 C 0,0 km/h (0 Bft) 95,74 %
13.10.2019 03:44 7,8 C 10,6 C 5,0 C 96 % 1017,9 hPa 0,0 l/m 0,0 km/h (0 Bft) SO 144 0 min 0,000 mm 0,0 UV-I 0 W/m 7,2 C 7,8 C 0,0 km/h (0 Bft) 97,87 %
13.10.2019 03:46 7,9 C 10,6 C 5,6 C 96 % 1017,9 hPa 0,0 l/m 0,0 km/h (0 Bft) SW 225 0 min 0,000 mm 0,0 UV-I 0 W/m 7,3 C 7,9 C 0,0 km/h (0 Bft) 97,87 %
13.10.2019 03:48 7,5 C 10,6 C 6,1 C 96 % 1018,0 hPa 0,0 l/m 0,0 km/h (0 Bft) SW 227 0 min 0,000 mm 0,0 UV-I 0 W/m 6,9 C 7,5 C 0,0 km/h (0 Bft) 100,00 %
13.10.2019 03:50 7,2 C 10,6 C 5,6 C 95 % 1018,0 hPa 0,0 l/m 0,0 km/h (0 Bft) SW 227 0 min 0,000 mm 0,0 UV-I 0 W/m 6,5 C 7,2 C 0,0 km/h (0 Bft) 97,87 %
13.10.2019 03:52 7,1 C 10,6 C 5,6 C 95 % 1018,0 hPa 0,0 l/m 0,0 km/h (0 Bft) SW 227 0 min 0,000 mm 0,0 UV-I 0 W/m 6,4 C 7,1 C 0,0 km/h (0 Bft) 100,00 %
13.10.2019 03:54 7,1 C 10,6 C 5,6 C 96 % 1018,0 hPa 0,0 l/m 0,0 km/h (0 Bft) SW 227 0 min 0,000 mm 0,0 UV-I 0 W/m 6,5 C 7,1 C 0,0 km/h (0 Bft) 100,00 %
13.10.2019 03:56 7,0 C 10,6 C 5,6 C 95 % 1018,0 hPa 0,0 l/m 0,0 km/h (0 Bft) SW 227 0 min 0,000 mm 0,0 UV-I 0 W/m 6,3 C 7,0 C 0,0 km/h (0 Bft) 100,00 %
13.10.2019 03:58 6,8 C 10,6 C 5,6 C 95 % 1017,9 hPa 0,0 l/m 0,0 km/h (0 Bft) S 181 0 min 0,000 mm 0,0 UV-I 0 W/m 6,1 C 6,8 C 0,0 km/h (0 Bft) 97,37 %
13.10.2019 04:00 6,6 C 10,6 C 5,6 C 95 % 1017,9 hPa 0,0 l/m 0,0 km/h (0 Bft) S-SO 153 0 min 0,000 mm 0,0 UV-I 0 W/m 5,9 C 6,6 C 0,0 km/h (0 Bft) 97,87 %
13.10.2019 04:02 6,6 C 10,6 C 5,0 C 95 % 1017,9 hPa 0,0 l/m 0,0 km/h (0 Bft) S-SO 153 0 min 0,000 mm 0,0 UV-I 0 W/m 5,9 C 6,6 C 0,0 km/h (0 Bft) 96,88 %
13.10.2019 04:04 6,8 C 10,6 C 5,0 C 96 % 1018,0 hPa 0,0 l/m 0,0 km/h (0 Bft) N-NO 29 0 min 0,000 mm 0,0 UV-I 0 W/m 6,2 C 6,8 C 0,0 km/h (0 Bft) 97,87 %
13.10.2019 04:06 6,8 C 10,6 C 5,0 C 96 % 1017,9 hPa 0,0 l/m 0,0 km/h (0 Bft) O-NO 67 0 min 0,000 mm 0,0 UV-I 0 W/m 6,2 C 6,8 C 0,0 km/h (0 Bft) 95,74 %
13.10.2019 04:08 7,2 C 10,6 C 5,6 C 96 % 1017,9 hPa 0,0 l/m 0,0 km/h (0 Bft) O-NO 69 0 min 0,000 mm 0,0 UV-I 0 W/m 6,6 C 7,2 C 0,0 km/h (0 Bft) 97,87 %
13.10.2019 04:10 7,2 C 10,6 C 5,6 C 96 % 1018,0 hPa 0,0 l/m 0,0 km/h (0 Bft) W-NW 300 0 min 0,000 mm 0,0 UV-I 0 W/m 6,6 C 7,2 C 0,0 km/h (0 Bft) 97,92 %
13.10.2019 04:12 7,2 C 10,6 C 5,6 C 96 % 1017,9 hPa 0,0 l/m 0,0 km/h (0 Bft) NO 53 0 min 0,000 mm 0,0 UV-I 0 W/m 6,6 C 7,2 C 0,0 km/h (0 Bft) 93,62 %
13.10.2019 04:14 7,4 C 10,6 C 5,6 C 96 % 1017,9 hPa 0,0 l/m 0,0 km/h (0 Bft) O 92 0 min 0,000 mm 0,0 UV-I 0 W/m 6,8 C 7,4 C 0,0 km/h (0 Bft) 95,74 %
13.10.2019 04:16 7,7 C 10,6 C 6,1 C 96 % 1017,9 hPa 0,0 l/m 0,0 km/h (0 Bft) O 97 0 min 0,000 mm 0,0 UV-I 0 W/m 7,1 C 7,7 C 0,0 km/h (0 Bft) 97,87 %
13.10.2019 04:18 7,9 C 10,6 C 6,1 C 96 % 1017,9 hPa 0,0 l/m 0,0 km/h (0 Bft) O 97 0 min 0,000 mm 0,0 UV-I 0 W/m 7,3 C 7,9 C 0,0 km/h (0 Bft) 97,87 %
13.10.2019 04:20 7,8 C 10,6 C 6,1 C 96 % 1017,9 hPa 0,0 l/m 0,0 km/h (0 Bft) O 97 0 min 0,000 mm 0,0 UV-I 0 W/m 7,2 C 7,8 C 0,0 km/h (0 Bft) 97,87 %
13.10.2019 04:22 7,5 C 10,6 C 6,1 C 96 % 1018,1 hPa 0,0 l/m 0,0 km/h (0 Bft) O 97 0 min 0,000 mm 0,0 UV-I 0 W/m 6,9 C 7,5 C 0,0 km/h (0 Bft) 95,74 %
13.10.2019 04:24 7,3 C 10,6 C 5,6 C 96 % 1018,0 hPa 0,0 l/m 0,0 km/h (0 Bft) O 97 0 min 0,000 mm 0,0 UV-I 0 W/m 6,7 C 7,3 C 0,0 km/h (0 Bft) 97,87 %
13.10.2019 04:26 7,2 C 10,6 C 5,0 C 96 % 1017,9 hPa 0,0 l/m 0,0 km/h (0 Bft) O 97 0 min 0,000 mm 0,0 UV-I 0 W/m 6,6 C 7,2 C 0,0 km/h (0 Bft) 100,00 %
13.10.2019 04:29 7,3 C 10,6 C 4,4 C 96 % 1017,9 hPa 0,0 l/m 0,0 km/h (0 Bft) O 97 0 min 0,000 mm 0,0 UV-I 0 W/m 6,7 C 7,3 C 0,0 km/h (0 Bft) 96,10 %
13.10.2019 04:30 7,2 C 10,6 C 5,0 C 96 % 1017,9 hPa 0,0 l/m 0,0 km/h (0 Bft) O 97 0 min 0,000 mm 0,0 UV-I 0 W/m 6,6 C 7,2 C 0,0 km/h (0 Bft) 95,65 %
13.10.2019 04:32 7,0 C 10,6 C 4,4 C 96 % 1017,8 hPa 0,0 l/m 0,0 km/h (0 Bft) O 97 0 min 0,000 mm 0,0 UV-I 0 W/m 6,4 C 7,0 C 0,0 km/h (0 Bft) 97,87 %
13.10.2019 04:34 7,0 C 10,6 C 4,4 C 96 % 1017,8 hPa 0,0 l/m 0,0 km/h (0 Bft) O 97 0 min 0,000 mm 0,0 UV-I 0 W/m 6,4 C 7,0 C 0,0 km/h (0 Bft) 97,87 %
13.10.2019 04:36 6,9 C 10,6 C 4,4 C 96 % 1017,8 hPa 0,0 l/m 0,0 km/h (0 Bft) O 97 0 min 0,000 mm 0,0 UV-I 0 W/m 6,3 C 6,9 C 0,0 km/h (0 Bft) 95,74 %
13.10.2019 04:38 6,7 C 10,6 C 4,4 C 96 % 1017,8 hPa 0,0 l/m 0,0 km/h (0 Bft) O 97 0 min 0,000 mm 0,0 UV-I 0 W/m 6,1 C 6,7 C 0,0 km/h (0 Bft) 97,87 %
13.10.2019 04:40 6,7 C 10,6 C 4,4 C 96 % 1017,8 hPa 0,0 l/m 0,0 km/h (0 Bft) O 97 0 min 0,000 mm 0,0 UV-I 0 W/m 6,1 C 6,7 C 0,0 km/h (0 Bft) 95,74 %
13.10.2019 04:42 6,7 C 10,6 C 4,4 C 96 % 1017,8 hPa 0,0 l/m 0,0 km/h (0 Bft) O 97 0 min 0,000 mm 0,0 UV-I 0 W/m 6,1 C 6,7 C 0,0 km/h (0 Bft) 94,00 %
13.10.2019 04:44 6,7 C 10,6 C 4,4 C 96 % 1017,8 hPa 0,0 l/m 0,0 km/h (0 Bft) O 97 0 min 0,000 mm 0,0 UV-I 0 W/m 6,1 C 6,7 C 0,0 km/h (0 Bft) 97,87 %
13.10.2019 04:46 6,8 C 10,6 C 3,9 C 96 % 1017,8 hPa 0,0 l/m 0,0 km/h (0 Bft) O 97 0 min 0,000 mm 0,0 UV-I 0 W/m 6,2 C 6,8 C 0,0 km/h (0 Bft) 97,87 %
13.10.2019 04:48 6,7 C 10,6 C 4,4 C 96 % 1017,8 hPa 0,0 l/m 0,0 km/h (0 Bft) O 97 0 min 0,000 mm 0,0 UV-I 0 W/m 6,1 C 6,7 C 0,0 km/h (0 Bft) 97,92 %
13.10.2019 04:50 6,6 C 10,6 C 3,9 C 96 % 1017,9 hPa 0,0 l/m 0,0 km/h (0 Bft) O 97 0 min 0,000 mm 0,0 UV-I 0 W/m 6,0 C 6,6 C 0,0 km/h (0 Bft) 95,74 %
13.10.2019 04:52 6,6 C 10,6 C 3,9 C 96 % 1017,9 hPa 0,0 l/m 0,0 km/h (0 Bft) O 97 0 min 0,000 mm 0,0 UV-I 0 W/m 6,0 C 6,6 C 0,0 km/h (0 Bft) 97,87 %
13.10.2019 04:54 6,8 C 10,6 C 3,9 C 96 % 1017,9 hPa 0,0 l/m 0,0 km/h (0 Bft) O 97 0 min 0,000 mm 0,0 UV-I 0 W/m 6,2 C 6,8 C 0,0 km/h (0 Bft) 97,87 %
13.10.2019 04:56 6,9 C 10,6 C 3,9 C 96 % 1017,9 hPa 0,0 l/m 0,0 km/h (0 Bft) O 97 0 min 0,000 mm 0,0 UV-I 0 W/m 6,3 C 6,9 C 0,0 km/h (0 Bft) 97,50 %
13.10.2019 04:58 6,9 C 10,6 C 3,9 C 96 % 1017,9 hPa 0,0 l/m 0,0 km/h (0 Bft) O 97 0 min 0,000 mm 0,0 UV-I 0 W/m 6,3 C 6,9 C 0,0 km/h (0 Bft) 98,00 %
13.10.2019 05:00 6,9 C 10,6 C 3,9 C 96 % 1017,8 hPa 0,0 l/m 0,0 km/h (0 Bft) O 97 0 min 0,000 mm 0,0 UV-I 0 W/m 6,3 C 6,9 C 0,0 km/h (0 Bft) 97,87 %
13.10.2019 05:02 6,8 C 10,6 C 4,4 C 96 % 1017,8 hPa 0,0 l/m 0,0 km/h (0 Bft) O 97 0 min 0,000 mm 0,0 UV-I 0 W/m 6,2 C 6,8 C 0,0 km/h (0 Bft) 97,87 %
13.10.2019 05:04 6,7 C 10,6 C 3,9 C 96 % 1017,8 hPa 0,0 l/m 0,0 km/h (0 Bft) O 97 0 min 0,000 mm 0,0 UV-I 0 W/m 6,1 C 6,7 C 0,0 km/h (0 Bft) 100,00 %
13.10.2019 05:06 6,6 C 10,6 C 4,4 C 96 % 1017,8 hPa 0,0 l/m 0,0 km/h (0 Bft) O 97 0 min 0,000 mm 0,0 UV-I 0 W/m 6,0 C 6,6 C 0,0 km/h (0 Bft) 100,00 %
13.10.2019 05:08 6,6 C 10,6 C 4,4 C 96 % 1017,8 hPa 0,0 l/m 0,0 km/h (0 Bft) O 97 0 min 0,000 mm 0,0 UV-I 0 W/m 6,0 C 6,6 C 0,0 km/h (0 Bft) 100,00 %
13.10.2019 05:10 6,9 C 10,6 C 5,0 C 96 % 1017,9 hPa 0,0 l/m 0,0 km/h (0 Bft) O 89 0 min 0,000 mm 0,0 UV-I 0 W/m 6,3 C 6,9 C 0,0 km/h (0 Bft) 100,00 %
13.10.2019 05:12 7,2 C 10,6 C 5,6 C 96 % 1017,9 hPa 0,0 l/m 0,0 km/h (0 Bft) O 89 0 min 0,000 mm 0,0 UV-I 0 W/m 6,6 C 7,2 C 0,0 km/h (0 Bft) 100,00 %
13.10.2019 05:14 7,3 C 10,6 C 6,1 C 97 % 1017,9 hPa 0,0 l/m 0,0 km/h (0 Bft) O 89 0 min 0,000 mm 0,0 UV-I 0 W/m 6,9 C 7,3 C 0,0 km/h (0 Bft) 100,00 %
13.10.2019 05:16 7,3 C 10,6 C 6,7 C 97 % 1017,9 hPa 0,0 l/m 0,0 km/h (0 Bft) O 89 0 min 0,000 mm 0,0 UV-I 0 W/m 6,9 C 7,3 C 0,0 km/h (0 Bft) 100,00 %
13.10.2019 05:18 7,5 C 10,6 C 6,7 C 97 % 1017,9 hPa 0,0 l/m 0,0 km/h (0 Bft) O 89 0 min 0,000 mm 0,0 UV-I 0 W/m 7,1 C 7,5 C 0,0 km/h (0 Bft) 100,00 %
13.10.2019 05:20 7,6 C 10,6 C 6,7 C 96 % 1017,9 hPa 0,0 l/m 0,0 km/h (0 Bft) O 89 0 min 0,000 mm 0,0 UV-I 0 W/m 7,0 C 7,6 C 0,0 km/h (0 Bft) 97,87 %
13.10.2019 05:22 7,4 C 10,6 C 6,7 C 96 % 1018,0 hPa 0,0 l/m 0,0 km/h (0 Bft) O 89 0 min 0,000 mm 0,0 UV-I 0 W/m 6,8 C 7,4 C 0,0 km/h (0 Bft) 97,87 %
13.10.2019 05:24 7,4 C 10,6 C 6,7 C 96 % 1018,1 hPa 0,0 l/m 0,0 km/h (0 Bft) O 89 0 min 0,000 mm 0,0 UV-I 0 W/m 6,8 C 7,4 C 0,0 km/h (0 Bft) 94,00 %
13.10.2019 05:26 7,5 C 10,6 C 7,2 C 96 % 1018,0 hPa 0,0 l/m 0,0 km/h (0 Bft) O 89 0 min 0,000 mm 0,0 UV-I 0 W/m 6,9 C 7,5 C 0,0 km/h (0 Bft) 97,87 %
13.10.2019 05:28 7,2 C 10,6 C 6,7 C 96 % 1018,0 hPa 0,0 l/m 0,0 km/h (0 Bft) O 89 0 min 0,000 mm 0,0 UV-I 0 W/m 6,6 C 7,2 C 0,0 km/h (0 Bft) 95,83 %
13.10.2019 05:30 6,9 C 10,6 C 6,7 C 96 % 1018,0 hPa 0,0 l/m 0,0 km/h (0 Bft) O 89 0 min 0,000 mm 0,0 UV-I 0 W/m 6,3 C 6,9 C 0,0 km/h (0 Bft) 95,74 %
13.10.2019 05:32 6,8 C 10,6 C 6,7 C 96 % 1018,1 hPa 0,0 l/m 0,0 km/h (0 Bft) NO 49 0 min 0,000 mm 0,0 UV-I 0 W/m 6,2 C 6,8 C 0,0 km/h (0 Bft) 97,87 %
13.10.2019 05:34 6,7 C 10,6 C 6,7 C 96 % 1018,2 hPa 0,0 l/m 0,0 km/h (0 Bft) NO 47 0 min 0,000 mm 0,0 UV-I 0 W/m 6,1 C 6,7 C 0,0 km/h (0 Bft) 95,74 %
13.10.2019 05:36 6,7 C 10,6 C 6,7 C 96 % 1018,3 hPa 0,0 l/m 0,0 km/h (0 Bft) NO 47 0 min 0,000 mm 0,0 UV-I 0 W/m 6,1 C 6,7 C 0,0 km/h (0 Bft) 97,87 %
13.10.2019 05:38 6,8 C 10,6 C 6,7 C 96 % 1018,3 hPa 0,0 l/m 0,0 km/h (0 Bft) NO 46 0 min 0,000 mm 0,0 UV-I 0 W/m 6,2 C 6,8 C 0,0 km/h (0 Bft) 97,87 %
13.10.2019 05:40 6,8 C 10,6 C 6,7 C 96 % 1018,3 hPa 0,0 l/m 0,0 km/h (0 Bft) NO 43 0 min 0,000 mm 0,0 UV-I 0 W/m 6,2 C 6,8 C 0,0 km/h (0 Bft) 97,87 %
13.10.2019 05:42 6,8 C 10,6 C 7,2 C 96 % 1018,4 hPa 0,0 l/m 0,0 km/h (0 Bft) NO 42 0 min 0,000 mm 0,0 UV-I 0 W/m 6,2 C 6,8 C 0,0 km/h (0 Bft) 95,74 %
13.10.2019 05:44 7,0 C 10,6 C 7,2 C 97 % 1018,3 hPa 0,0 l/m 0,0 km/h (0 Bft) NO 42 0 min 0,000 mm 0,0 UV-I 0 W/m 6,6 C 7,0 C 0,0 km/h (0 Bft) 97,50 %
13.10.2019 05:46 7,1 C 10,6 C 7,2 C 97 % 1018,3 hPa 0,0 l/m 0,0 km/h (0 Bft) NO 42 0 min 0,000 mm 0,0 UV-I 0 W/m 6,7 C 7,1 C 0,0 km/h (0 Bft) 93,62 %
13.10.2019 05:48 7,3 C 10,6 C 7,8 C 97 % 1018,3 hPa 0,0 l/m 0,0 km/h (0 Bft) NO 42 0 min 0,000 mm 0,0 UV-I 0 W/m 6,9 C 7,3 C 0,0 km/h (0 Bft) 96,00 %
13.10.2019 05:50 7,3 C 10,6 C 7,8 C 97 % 1018,3 hPa 0,0 l/m 0,0 km/h (0 Bft) NO 42 0 min 0,000 mm 0,0 UV-I 0 W/m 6,9 C 7,3 C 0,0 km/h (0 Bft) 95,74 %
13.10.2019 05:52 7,4 C 10,6 C 7,2 C 97 % 1018,3 hPa 0,0 l/m 0,0 km/h (0 Bft) NO 42 0 min 0,000 mm 0,0 UV-I 0 W/m 7,0 C 7,4 C 0,0 km/h (0 Bft) 95,74 %
13.10.2019 05:54 7,4 C 10,6 C 7,2 C 97 % 1018,3 hPa 0,0 l/m 0,0 km/h (0 Bft) NO 42 0 min 0,000 mm 0,0 UV-I 0 W/m 7,0 C 7,4 C 0,0 km/h (0 Bft) 97,87 %
13.10.2019 05:56 7,5 C 10,6 C 7,8 C 97 % 1018,3 hPa 0,0 l/m 0,0 km/h (0 Bft) NO 51 0 min 0,000 mm 0,0 UV-I 0 W/m 7,1 C 7,5 C 0,0 km/h (0 Bft) 97,87 %
13.10.2019 05:58 7,6 C 10,6 C 7,8 C 97 % 1018,2 hPa 0,0 l/m 0,0 km/h (0 Bft) NO 51 0 min 0,000 mm 0,0 UV-I 0 W/m 7,2 C 7,6 C 0,0 km/h (0 Bft) 95,74 %
13.10.2019 06:00 7,7 C 10,6 C 7,8 C 97 % 1018,4 hPa 0,0 l/m 0,0 km/h (0 Bft) NO 53 0 min 0,000 mm 0,0 UV-I 0 W/m 7,3 C 7,7 C 0,0 km/h (0 Bft) 94,00 %
13.10.2019 06:02 7,7 C 10,6 C 7,8 C 97 % 1018,5 hPa 0,0 l/m 0,0 km/h (0 Bft) NO 53 0 min 0,000 mm 0,0 UV-I 0 W/m 7,3 C 7,7 C 0,0 km/h (0 Bft) 95,74 %
13.10.2019 06:04 7,7 C 10,6 C 7,8 C 97 % 1018,5 hPa 0,0 l/m 0,0 km/h (0 Bft) NO 53 0 min 0,000 mm 0,0 UV-I 0 W/m 7,3 C 7,7 C 0,0 km/h (0 Bft) 94,44 %
13.10.2019 06:06 7,7 C 10,6 C 7,8 C 97 % 1018,5 hPa 0,0 l/m 0,0 km/h (0 Bft) NO 53 0 min 0,000 mm 0,0 UV-I 0 W/m 7,3 C 7,7 C 0,0 km/h (0 Bft) 97,87 %
13.10.2019 06:08 7,7 C 10,6 C 7,8 C 97 % 1018,4 hPa 0,0 l/m 0,0 km/h (0 Bft) NO 53 0 min 0,000 mm 0,0 UV-I 0 W/m 7,3 C 7,7 C 0,0 km/h (0 Bft) 91,49 %
13.10.2019 06:10 7,7 C 10,6 C 7,8 C 97 % 1018,3 hPa 0,0 l/m 0,0 km/h (0 Bft) NO 53 0 min 0,000 mm 0,0 UV-I 0 W/m 7,3 C 7,7 C 0,0 km/h (0 Bft) 95,74 %
13.10.2019 06:12 7,6 C 10,6 C 7,2 C 97 % 1018,3 hPa 0,0 l/m 0,0 km/h (0 Bft) NO 53 0 min 0,000 mm 0,0 UV-I 0 W/m 7,2 C 7,6 C 0,0 km/h (0 Bft) 91,49 %
13.10.2019 06:14 7,6 C 10,6 C 7,2 C 97 % 1018,3 hPa 0,0 l/m 0,0 km/h (0 Bft) NO 53 0 min 0,000 mm 0,0 UV-I 0 W/m 7,2 C 7,6 C 0,0 km/h (0 Bft) 95,74 %
13.10.2019 06:16 7,5 C 10,6 C 7,2 C 97 % 1018,3 hPa 0,0 l/m 0,0 km/h (0 Bft) NO 53 0 min 0,000 mm 0,0 UV-I 0 W/m 7,1 C 7,5 C 0,0 km/h (0 Bft) 95,74 %
13.10.2019 06:18 7,4 C 10,6 C 7,2 C 97 % 1018,3 hPa 0,0 l/m 0,0 km/h (0 Bft) NO 53 0 min 0,000 mm 0,0 UV-I 0 W/m 7,0 C 7,4 C 0,0 km/h (0 Bft) 96,00 %
13.10.2019 06:20 7,4 C 10,6 C 7,2 C 97 % 1018,3 hPa 0,0 l/m 0,0 km/h (0 Bft) NO 53 0 min 0,000 mm 0,0 UV-I 0 W/m 7,0 C 7,4 C 0,0 km/h (0 Bft) 95,74 %
13.10.2019 06:22 7,3 C 10,6 C 6,7 C 97 % 1018,4 hPa 0,0 l/m 0,0 km/h (0 Bft) NO 53 0 min 0,000 mm 0,0 UV-I 0 W/m 6,9 C 7,3 C 0,0 km/h (0 Bft) 93,62 %
13.10.2019 06:24 7,3 C 10,6 C 6,7 C 97 % 1018,3 hPa 0,0 l/m 0,0 km/h (0 Bft) NO 53 0 min 0,000 mm 0,0 UV-I 0 W/m 6,9 C 7,3 C 0,0 km/h (0 Bft) 96,00 %
13.10.2019 06:26 7,3 C 10,6 C 6,7 C 97 % 1018,2 hPa 0,0 l/m 0,0 km/h (0 Bft) NO 53 0 min 0,000 mm 0,0 UV-I 0 W/m 6,9 C 7,3 C 0,0 km/h (0 Bft) 95,74 %
13.10.2019 06:28 7,3 C 10,6 C 7,2 C 97 % 1018,1 hPa 0,0 l/m 0,0 km/h (0 Bft) NO 53 0 min 0,000 mm 0,0 UV-I 0 W/m 6,9 C 7,3 C 0,0 km/h (0 Bft) 97,87 %
13.10.2019 06:30 7,3 C 10,6 C 7,2 C 97 % 1018,1 hPa 0,0 l/m 0,0 km/h (0 Bft) O-SO 102 0 min 0,000 mm 0,0 UV-I 0 W/m 6,9 C 7,3 C 0,0 km/h (0 Bft) 97,87 %
13.10.2019 06:32 7,2 C 10,6 C 6,7 C 97 % 1018,1 hPa 0,0 l/m 0,0 km/h (0 Bft) O 101 0 min 0,000 mm 0,0 UV-I 0 W/m 6,8 C 7,2 C 0,0 km/h (0 Bft) 97,87 %
13.10.2019 06:34 7,2 C 10,6 C 6,7 C 97 % 1018,0 hPa 0,0 l/m 0,0 km/h (0 Bft) O 101 0 min 0,000 mm 0,0 UV-I 0 W/m 6,8 C 7,2 C 0,0 km/h (0 Bft) 97,87 %
13.10.2019 06:36 7,2 C 10,6 C 6,7 C 97 % 1018,1 hPa 0,0 l/m 0,0 km/h (0 Bft) O 101 0 min 0,000 mm 0,0 UV-I 0 W/m 6,8 C 7,2 C 0,0 km/h (0 Bft) 97,83 %
13.10.2019 06:38 7,3 C 10,6 C 7,2 C 97 % 1018,1 hPa 0,0 l/m 0,0 km/h (0 Bft) O-SO 103 0 min 0,000 mm 0,0 UV-I 0 W/m 6,9 C 7,3 C 0,0 km/h (0 Bft) 95,74 %
13.10.2019 06:40 7,3 C 10,6 C 7,2 C 97 % 1018,3 hPa 0,0 l/m 0,0 km/h (0 Bft) O-SO 103 0 min 0,000 mm 0,0 UV-I 0 W/m 6,9 C 7,3 C 0,0 km/h (0 Bft) 97,87 %
13.10.2019 06:42 7,3 C 10,6 C 7,2 C 97 % 1018,4 hPa 0,0 l/m 0,0 km/h (0 Bft) W-SW 254 0 min 0,000 mm 0,0 UV-I 0 W/m 6,9 C 7,3 C 0,0 km/h (0 Bft) 95,83 %
13.10.2019 06:44 7,2 C 10,6 C 7,2 C 97 % 1018,5 hPa 0,0 l/m 0,0 km/h (0 Bft) W-SW 252 0 min 0,000 mm 0,0 UV-I 0 W/m 6,8 C 7,2 C 0,0 km/h (0 Bft) 95,74 %
13.10.2019 06:46 7,1 C 10,6 C 7,2 C 97 % 1018,5 hPa 0,0 l/m 0,0 km/h (0 Bft) SW 219 0 min 0,000 mm 0,0 UV-I 0 W/m 6,7 C 7,1 C 0,0 km/h (0 Bft) 97,87 %
13.10.2019 06:48 7,0 C 10,6 C 7,2 C 97 % 1018,5 hPa 0,0 l/m 0,0 km/h (0 Bft) S 187 0 min 0,000 mm 0,0 UV-I 0 W/m 6,6 C 7,0 C 0,0 km/h (0 Bft) 97,37 %
13.10.2019 06:50 7,0 C 10,6 C 7,2 C 97 % 1018,5 hPa 0,0 l/m 0,0 km/h (0 Bft) S 187 0 min 0,000 mm 0,0 UV-I 0 W/m 6,6 C 7,0 C 0,0 km/h (0 Bft) 95,74 %
13.10.2019 06:52 7,0 C 10,6 C 7,2 C 97 % 1018,5 hPa 0,0 l/m 0,0 km/h (0 Bft) S 187 0 min 0,000 mm 0,0 UV-I 0 W/m 6,6 C 7,0 C 0,0 km/h (0 Bft) 97,87 %
13.10.2019 06:54 7,1 C 10,0 C 7,2 C 97 % 1018,4 hPa 0,0 l/m 0,0 km/h (0 Bft) S 171 0 min 0,000 mm 0,0 UV-I 0 W/m 6,7 C 7,1 C 0,0 km/h (0 Bft) 95,74 %
13.10.2019 06:56 7,1 C 10,6 C 7,2 C 97 % 1018,4 hPa 0,0 l/m 0,0 km/h (0 Bft) S-SO 167 0 min 0,000 mm 0,0 UV-I 0 W/m 6,7 C 7,1 C 0,0 km/h (0 Bft) 95,74 %
13.10.2019 06:58 7,2 C 10,0 C 7,2 C 97 % 1018,4 hPa 0,0 l/m 0,0 km/h (0 Bft) S-SO 166 0 min 0,000 mm 0,0 UV-I 0 W/m 6,8 C 7,2 C 0,0 km/h (0 Bft) 100,00 %
13.10.2019 07:00 7,2 C 10,6 C 7,2 C 97 % 1018,3 hPa 0,0 l/m 0,0 km/h (0 Bft) S-SO 166 0 min 0,000 mm 0,0 UV-I 0 W/m 6,8 C 7,2 C 0,0 km/h (0 Bft) 100,00 %
13.10.2019 07:02 7,2 C 10,0 C 7,2 C 97 % 1018,4 hPa 0,0 l/m 0,0 km/h (0 Bft) S-SO 166 0 min 0,000 mm 0,0 UV-I 0 W/m 6,8 C 7,2 C 0,0 km/h (0 Bft) 97,87 %
13.10.2019 07:04 7,1 C 10,0 C 7,2 C 97 % 1018,4 hPa 0,0 l/m 0,0 km/h (0 Bft) S-SO 167 0 min 0,000 mm 0,0 UV-I 0 W/m 6,7 C 7,1 C 0,0 km/h (0 Bft) 97,87 %
13.10.2019 07:06 7,2 C 10,0 C 6,7 C 97 % 1018,4 hPa 0,0 l/m 0,0 km/h (0 Bft) S-SO 166 0 min 0,000 mm 0,0 UV-I 0 W/m 6,8 C 7,2 C 0,0 km/h (0 Bft) 95,74 %
13.10.2019 07:08 7,1 C 10,6 C 7,2 C 97 % 1018,4 hPa 0,0 l/m 0,0 km/h (0 Bft) S-SO 167 0 min 0,000 mm 0,0 UV-I 0 W/m 6,7 C 7,1 C 0,0 km/h (0 Bft) 97,87 %
13.10.2019 07:10 7,1 C 10,6 C 6,7 C 97 % 1018,3 hPa 0,0 l/m 0,0 km/h (0 Bft) S-SO 164 0 min 0,000 mm 0,0 UV-I 5 W/m 6,7 C 7,1 C 0,0 km/h (0 Bft) 100,00 %
13.10.2019 07:12 7,1 C 10,0 C 6,7 C 97 % 1018,3 hPa 0,0 l/m 0,0 km/h (0 Bft) SO 143 0 min 0,000 mm 0,0 UV-I 5 W/m 6,7 C 7,1 C 0,0 km/h (0 Bft) 100,00 %
13.10.2019 07:14 7,0 C 10,6 C 6,7 C 97 % 1018,2 hPa 0,2 l/m 0,0 km/h (0 Bft) SO 144 0 min 0,000 mm 0,0 UV-I 5 W/m 6,6 C 7,0 C 0,0 km/h (0 Bft) 100,00 %
13.10.2019 07:16 6,9 C 10,6 C 6,7 C 97 % 1018,3 hPa 0,0 l/m 0,0 km/h (0 Bft) S-SO 157 0 min 0,000 mm 0,0 UV-I 6 W/m 6,5 C 6,9 C 0,0 km/h (0 Bft) 100,00 %
13.10.2019 07:18 6,8 C 10,6 C 6,1 C 97 % 1018,3 hPa 0,0 l/m 0,0 km/h (0 Bft) S-SO 158 0 min 0,000 mm 0,0 UV-I 7 W/m 6,4 C 6,8 C 0,0 km/h (0 Bft) 100,00 %
13.10.2019 07:20 6,8 C 10,6 C 6,1 C 97 % 1018,3 hPa 0,0 l/m 0,0 km/h (0 Bft) S-SO 158 0 min 0,000 mm 0,0 UV-I 7 W/m 6,4 C 6,8 C 0,0 km/h (0 Bft) 94,00 %
13.10.2019 07:22 6,8 C 10,6 C 6,1 C 97 % 1018,3 hPa 0,0 l/m 0,0 km/h (0 Bft) S-SO 158 0 min 0,000 mm 0,0 UV-I 9 W/m 6,4 C 6,8 C 0,0 km/h (0 Bft) 97,87 %
13.10.2019 07:24 6,8 C 10,6 C 5,6 C 97 % 1018,3 hPa 0,0 l/m 0,0 km/h (0 Bft) SO 138 0 min 0,000 mm 0,0 UV-I 10 W/m 6,4 C 6,8 C 0,0 km/h (0 Bft) 97,87 %
13.10.2019 07:26 6,8 C 10,6 C 5,6 C 97 % 1018,2 hPa 0,0 l/m 0,0 km/h (0 Bft) SO 138 0 min 0,000 mm 0,0 UV-I 11 W/m 6,4 C 6,8 C 0,0 km/h (0 Bft) 91,49 %
13.10.2019 07:28 6,8 C 10,0 C 6,1 C 97 % 1018,2 hPa 0,0 l/m 0,0 km/h (0 Bft) SO 138 0 min 0,000 mm 0,0 UV-I 12 W/m 6,4 C 6,8 C 0,0 km/h (0 Bft) 95,74 %
13.10.2019 07:30 6,8 C 10,0 C 6,1 C 97 % 1018,3 hPa 0,0 l/m 0,0 km/h (0 Bft) S-SO 155 2 min 0,000 mm 0,0 UV-I 12 W/m 6,4 C 6,8 C 0,0 km/h (0 Bft) 97,87 %
13.10.2019 07:32 6,8 C 10,6 C 5,6 C 97 % 1018,3 hPa 0,0 l/m 0,0 km/h (0 Bft) S-SO 155 2 min 0,000 mm 0,0 UV-I 13 W/m 6,4 C 6,8 C 0,0 km/h (0 Bft) 91,49 %
13.10.2019 07:34 6,8 C 10,0 C 5,6 C 97 % 1018,3 hPa 0,0 l/m 0,0 km/h (0 Bft) S-SO 155 0 min 0,000 mm 0,0 UV-I 14 W/m 6,4 C 6,8 C 0,0 km/h (0 Bft) 95,74 %
13.10.2019 07:36 6,8 C 10,0 C 5,6 C 97 % 1018,3 hPa 0,0 l/m 0,0 km/h (0 Bft) S-SO 155 0 min 0,000 mm 0,0 UV-I 16 W/m 6,4 C 6,8 C 0,0 km/h (0 Bft) 97,87 %
13.10.2019 07:38 6,7 C 10,0 C 5,0 C 97 % 1018,3 hPa 0,0 l/m 0,0 km/h (0 Bft) S-SO 155 0 min 0,000 mm 0,0 UV-I 18 W/m 6,3 C 6,7 C 0,0 km/h (0 Bft) 96,00 %
13.10.2019 07:40 6,7 C 10,0 C 5,6 C 97 % 1018,4 hPa 0,0 l/m 0,0 km/h (0 Bft) S-SO 156 0 min 0,000 mm 0,0 UV-I 19 W/m 6,3 C 6,7 C 0,0 km/h (0 Bft) 97,87 %
13.10.2019 07:42 6,7 C 10,0 C 5,6 C 97 % 1018,4 hPa 0,0 l/m 0,0 km/h (0 Bft) S-SO 156 0 min 0,000 mm 0,0 UV-I 19 W/m 6,3 C 6,7 C 0,0 km/h (0 Bft) 100,00 %
13.10.2019 07:44 6,6 C 10,0 C 5,6 C 97 % 1018,4 hPa 0,0 l/m 0,0 km/h (0 Bft) S-SO 156 0 min 0,000 mm 0,0 UV-I 20 W/m 6,2 C 6,6 C 0,0 km/h (0 Bft) 95,74 %
13.10.2019 07:46 6,5 C 10,0 C 5,6 C 97 % 1018,4 hPa 0,0 l/m 0,0 km/h (0 Bft) S-SO 156 0 min 0,000 mm 0,0 UV-I 22 W/m 6,1 C 6,5 C 0,0 km/h (0 Bft) 100,00 %
13.10.2019 07:48 6,4 C 10,0 C 5,6 C 97 % 1018,5 hPa 0,0 l/m 0,0 km/h (0 Bft) N-NO 33 0 min 0,000 mm 0,0 UV-I 25 W/m 6,0 C 6,4 C 0,0 km/h (0 Bft) 100,00 %
13.10.2019 07:50 6,4 C 10,0 C 6,1 C 97 % 1018,5 hPa 0,0 l/m 0,0 km/h (0 Bft) N-NO 32 0 min 0,000 mm 0,0 UV-I 25 W/m 6,0 C 6,4 C 0,0 km/h (0 Bft) 100,00 %
13.10.2019 07:52 6,4 C 10,0 C 6,1 C 97 % 1018,5 hPa 0,0 l/m 0,0 km/h (0 Bft) N-NO 32 0 min 0,000 mm 0,0 UV-I 26 W/m 6,0 C 6,4 C 0,0 km/h (0 Bft) 97,87 %
13.10.2019 07:54 6,4 C 10,0 C 6,1 C 97 % 1018,5 hPa 0,0 l/m 0,0 km/h (0 Bft) N-NO 32 0 min 0,000 mm 0,0 UV-I 31 W/m 6,0 C 6,4 C 0,0 km/h (0 Bft) 100,00 %
13.10.2019 07:56 6,5 C 10,0 C 6,1 C 97 % 1018,7 hPa 0,0 l/m 0,0 km/h (0 Bft) N-NO 32 0 min 0,000 mm 0,0 UV-I 30 W/m 6,1 C 6,5 C 0,0 km/h (0 Bft) 100,00 %
13.10.2019 07:58 6,5 C 10,0 C 6,1 C 97 % 1018,7 hPa 0,0 l/m 0,0 km/h (0 Bft) N-NO 32 0 min 0,000 mm 0,0 UV-I 30 W/m 6,1 C 6,5 C 0,0 km/h (0 Bft) 100,00 %
13.10.2019 08:00 6,5 C 10,0 C 6,1 C 97 % 1018,8 hPa 0,0 l/m 0,0 km/h (0 Bft) N-NO 32 0 min 0,000 mm 0,0 UV-I 33 W/m 6,1 C 6,5 C 0,0 km/h (0 Bft) 100,00 %
13.10.2019 08:02 6,6 C 10,0 C 6,1 C 97 % 1018,8 hPa 0,0 l/m 0,0 km/h (0 Bft) N-NO 32 0 min 0,000 mm 0,0 UV-I 37 W/m 6,2 C 6,6 C 0,0 km/h (0 Bft) 97,87 %
13.10.2019 08:04 6,6 C 10,0 C 6,1 C 97 % 1018,8 hPa 0,0 l/m 0,0 km/h (0 Bft) N-NO 32 0 min 0,000 mm 0,0 UV-I 47 W/m 6,2 C 6,6 C 0,0 km/h (0 Bft) 100,00 %
13.10.2019 08:06 6,6 C 10,0 C 6,1 C 97 % 1018,8 hPa 0,0 l/m 0,0 km/h (0 Bft) N-NO 33 0 min 0,000 mm 0,0 UV-I 49 W/m 6,2 C 6,6 C 0,0 km/h (0 Bft) 97,87 %
13.10.2019 08:08 6,6 C 10,0 C 6,7 C 97 % 1018,8 hPa 0,0 l/m 0,0 km/h (0 Bft) N-NO 33 0 min 0,000 mm 0,0 UV-I 59 W/m 6,2 C 6,6 C 0,0 km/h (0 Bft) 100,00 %
13.10.2019 08:10 6,6 C 10,0 C 6,7 C 97 % 1018,9 hPa 0,0 l/m 0,0 km/h (0 Bft) N-NO 32 0 min 0,000 mm 0,0 UV-I 65 W/m 6,2 C 6,6 C 0,0 km/h (0 Bft) 97,87 %
13.10.2019 08:12 6,6 C 10,0 C 6,7 C 97 % 1018,9 hPa 0,0 l/m 0,0 km/h (0 Bft) N-NO 32 0 min 0,000 mm 0,0 UV-I 67 W/m 6,2 C 6,6 C 0,0 km/h (0 Bft) 100,00 %
13.10.2019 08:14 6,7 C 10,0 C 6,7 C 97 % 1018,9 hPa 0,0 l/m 0,0 km/h (0 Bft) N-NO 32 2 min 0,000 mm 0,0 UV-I 80 W/m 6,3 C 6,7 C 0,0 km/h (0 Bft) 100,00 %
13.10.2019 08:16 6,7 C 10,0 C 6,7 C 97 % 1018,9 hPa 0,0 l/m 0,0 km/h (0 Bft) N-NO 33 2 min 0,000 mm 0,0 UV-I 83 W/m 6,3 C 6,7 C 0,0 km/h (0 Bft) 100,00 %
13.10.2019 08:18 6,8 C 10,0 C 6,7 C 97 % 1018,9 hPa 0,0 l/m 0,0 km/h (0 Bft) N-NO 33 2 min 0,000 mm 0,0 UV-I 87 W/m 6,4 C 6,8 C 0,0 km/h (0 Bft) 100,00 %
13.10.2019 08:20 6,8 C 10,0 C 6,7 C 97 % 1018,9 hPa 0,0 l/m 0,0 km/h (0 Bft) N-NO 32 2 min 0,000 mm 0,0 UV-I 90 W/m 6,4 C 6,8 C 0,0 km/h (0 Bft) 100,00 %
13.10.2019 08:22 6,9 C 10,0 C 7,2 C 97 % 1018,9 hPa 0,0 l/m 0,0 km/h (0 Bft) N-NO 32 0 min 0,000 mm 0,0 UV-I 84 W/m 6,5 C 6,9 C 0,0 km/h (0 Bft) 97,87 %
13.10.2019 08:24 6,9 C 10,0 C 7,2 C 97 % 1019,0 hPa 0,0 l/m 0,0 km/h (0 Bft) N-NO 32 0 min 0,000 mm 0,0 UV-I 90 W/m 6,5 C 6,9 C 0,0 km/h (0 Bft) 97,87 %
13.10.2019 08:26 7,1 C 10,0 C 7,2 C 97 % 1019,1 hPa 0,0 l/m 0,0 km/h (0 Bft) N-NO 32 2 min 0,000 mm 0,0 UV-I 95 W/m 6,7 C 7,1 C 0,0 km/h (0 Bft) 97,87 %
13.10.2019 08:28 7,1 C 10,0 C 7,2 C 97 % 1019,0 hPa 0,0 l/m 0,0 km/h (0 Bft) N-NO 32 0 min 0,000 mm 0,0 UV-I 93 W/m 6,7 C 7,1 C 0,0 km/h (0 Bft) 93,62 %
13.10.2019 08:30 7,1 C 10,0 C 7,2 C 97 % 1019,0 hPa 0,0 l/m 0,0 km/h (0 Bft) N-NO 32 0 min 0,000 mm 0,0 UV-I 88 W/m 6,7 C 7,1 C 0,0 km/h (0 Bft) 97,92 %
13.10.2019 08:32 7,2 C 10,0 C 7,2 C 97 % 1018,9 hPa 0,0 l/m 0,0 km/h (0 Bft) N-NO 33 0 min 0,000 mm 0,0 UV-I 97 W/m 6,8 C 7,2 C 0,0 km/h (0 Bft) 97,87 %
13.10.2019 08:34 7,2 C 10,0 C 7,8 C 97 % 1018,9 hPa 0,0 l/m 0,0 km/h (0 Bft) NO 50 2 min 0,000 mm 0,0 UV-I 109 W/m 6,8 C 7,2 C 0,0 km/h (0 Bft) 97,87 %
13.10.2019 08:36 7,1 C 10,0 C 7,8 C 97 % 1019,0 hPa 0,0 l/m 0,0 km/h (0 Bft) O-NO 57 0 min 0,000 mm 0,0 UV-I 108 W/m 6,7 C 7,1 C 0,0 km/h (0 Bft) 97,87 %
13.10.2019 08:38 7,1 C 10,0 C 7,8 C 97 % 1019,0 hPa 0,0 l/m 0,0 km/h (0 Bft) O-NO 57 2 min 0,000 mm 0,0 UV-I 120 W/m 6,7 C 7,1 C 0,0 km/h (0 Bft) 95,74 %
13.10.2019 08:40 7,2 C 10,0 C 7,8 C 97 % 1018,9 hPa 0,0 l/m 0,0 km/h (0 Bft) O-NO 57 2 min 0,000 mm 0,0 UV-I 122 W/m 6,8 C 7,2 C 0,0 km/h (0 Bft) 96,00 %
13.10.2019 08:42 7,3 C 10,0 C 8,3 C 97 % 1019,0 hPa 0,0 l/m 0,0 km/h (0 Bft) O-NO 57 2 min 0,000 mm 0,0 UV-I 120 W/m 6,9 C 7,3 C 0,0 km/h (0 Bft) 95,74 %
13.10.2019 08:44 7,3 C 10,0 C 8,3 C 97 % 1018,9 hPa 0,0 l/m 0,0 km/h (0 Bft) O-NO 57 2 min 0,000 mm 0,0 UV-I 132 W/m 6,9 C 7,3 C 0,0 km/h (0 Bft) 91,49 %
13.10.2019 08:46 7,3 C 10,0 C 8,3 C 97 % 1018,9 hPa 0,0 l/m 0,0 km/h (0 Bft) O-NO 57 2 min 0,000 mm 0,0 UV-I 127 W/m 6,9 C 7,3 C 0,0 km/h (0 Bft) 97,87 %
13.10.2019 08:48 7,4 C 10,0 C 8,3 C 97 % 1018,9 hPa 0,0 l/m 0,0 km/h (0 Bft) O-NO 57 2 min 0,000 mm 0,0 UV-I 136 W/m 7,0 C 7,4 C 0,0 km/h (0 Bft) 97,37 %
13.10.2019 08:50 7,4 C 10,0 C 8,3 C 97 % 1018,9 hPa 0,0 l/m 0,0 km/h (0 Bft) NO 44 2 min 0,000 mm 0,0 UV-I 148 W/m 7,0 C 7,4 C 0,0 km/h (0 Bft) 91,49 %
13.10.2019 08:52 7,5 C 10,0 C 8,9 C 97 % 1019,0 hPa 0,0 l/m 0,0 km/h (0 Bft) NO 44 2 min 0,000 mm 0,0 UV-I 146 W/m 7,1 C 7,5 C 0,0 km/h (0 Bft) 95,74 %
13.10.2019 08:54 7,5 C 10,0 C 8,9 C 97 % 1019,0 hPa 0,0 l/m 0,0 km/h (0 Bft) NO 44 2 min 0,000 mm 0,0 UV-I 158 W/m 7,1 C 7,5 C 0,0 km/h (0 Bft) 93,62 %
13.10.2019 08:56 7,5 C 10,0 C 8,9 C 97 % 1019,1 hPa 0,0 l/m 0,0 km/h (0 Bft) NO 44 2 min 0,000 mm 0,0 UV-I 153 W/m 7,1 C 7,5 C 0,0 km/h (0 Bft) 95,74 %
13.10.2019 08:58 7,4 C 10,0 C 8,9 C 97 % 1019,1 hPa 0,0 l/m 0,0 km/h (0 Bft) NO 44 2 min 0,000 mm 0,0 UV-I 142 W/m 7,0 C 7,4 C 0,0 km/h (0 Bft) 96,00 %
13.10.2019 09:00 7,4 C 10,0 C 8,9 C 97 % 1019,2 hPa 0,0 l/m 0,0 km/h (0 Bft) NO 44 0 min 0,051 mm 0,0 UV-I 125 W/m 7,0 C 7,4 C 0,0 km/h (0 Bft) 98,00 %
13.10.2019 09:02 7,4 C 10,0 C 8,9 C 97 % 1019,2 hPa 0,0 l/m 0,0 km/h (0 Bft) NO 44 0 min 0,000 mm 0,0 UV-I 138 W/m 7,0 C 7,4 C 0,0 km/h (0 Bft) 95,74 %
13.10.2019 09:04 7,4 C 10,0 C 8,9 C 97 % 1019,2 hPa 0,0 l/m 0,0 km/h (0 Bft) NO 44 2 min 0,000 mm 0,0 UV-I 171 W/m 7,0 C 7,4 C 0,0 km/h (0 Bft) 97,87 %
13.10.2019 09:06 7,5 C 10,0 C 8,9 C 97 % 1019,1 hPa 0,0 l/m 0,0 km/h (0 Bft) NO 44 2 min 0,000 mm 0,0 UV-I 187 W/m 7,1 C 7,5 C 0,0 km/h (0 Bft) 98,00 %
13.10.2019 09:08 7,7 C 10,0 C 9,4 C 97 % 1019,1 hPa 0,0 l/m 0,0 km/h (0 Bft) NO 44 2 min 0,000 mm 0,1 UV-I 210 W/m 7,3 C 7,7 C 0,0 km/h (0 Bft) 97,44 %
13.10.2019 09:10 7,8 C 10,0 C 9,4 C 97 % 1019,1 hPa 0,0 l/m 0,0 km/h (0 Bft) NO 44 2 min 0,000 mm 0,5 UV-I 218 W/m 7,4 C 7,8 C 0,0 km/h (0 Bft) 97,87 %
13.10.2019 09:12 7,8 C 10,0 C 9,4 C 97 % 1019,1 hPa 0,0 l/m 0,0 km/h (0 Bft) NO 44 2 min 0,000 mm 0,5 UV-I 186 W/m 7,4 C 7,8 C 0,0 km/h (0 Bft) 97,87 %
13.10.2019 09:14 7,9 C 10,0 C 9,4 C 97 % 1019,1 hPa 0,0 l/m 0,0 km/h (0 Bft) NO 44 2 min 0,000 mm 0,5 UV-I 224 W/m 7,5 C 7,9 C 0,0 km/h (0 Bft) 97,87 %
13.10.2019 09:16 7,9 C 10,0 C 8,9 C 97 % 1019,1 hPa 0,0 l/m 0,0 km/h (0 Bft) NO 44 2 min 0,000 mm 0,5 UV-I 216 W/m 7,5 C 7,9 C 0,0 km/h (0 Bft) 97,87 %
13.10.2019 09:18 8,0 C 10,0 C 8,9 C 97 % 1019,1 hPa 0,0 l/m 0,0 km/h (0 Bft) NO 44 2 min 0,000 mm 0,5 UV-I 203 W/m 7,6 C 8,0 C 0,0 km/h (0 Bft) 95,74 %
13.10.2019 09:20 8,1 C 10,0 C 8,9 C 97 % 1019,0 hPa 0,0 l/m 0,0 km/h (0 Bft) NO 44 2 min 0,000 mm 0,6 UV-I 187 W/m 7,7 C 8,1 C 0,0 km/h (0 Bft) 95,74 %
13.10.2019 09:22 8,2 C 10,0 C 8,9 C 97 % 1019,0 hPa 0,0 l/m 0,0 km/h (0 Bft) NO 45 2 min 0,000 mm 0,6 UV-I 243 W/m 7,8 C 8,2 C 0,0 km/h (0 Bft) 97,87 %
13.10.2019 09:24 8,2 C 10,0 C 8,9 C 97 % 1019,0 hPa 0,0 l/m 0,0 km/h (0 Bft) NO 45 2 min 0,000 mm 0,6 UV-I 240 W/m 7,8 C 8,2 C 0,0 km/h (0 Bft) 98,08 %
13.10.2019 09:26 8,2 C 10,0 C 8,9 C 97 % 1019,0 hPa 0,0 l/m 0,0 km/h (0 Bft) NO 45 2 min 0,000 mm 0,6 UV-I 250 W/m 7,8 C 8,2 C 0,0 km/h (0 Bft) 97,87 %
13.10.2019 09:28 8,3 C 10,0 C 9,4 C 97 % 1019,1 hPa 0,0 l/m 0,0 km/h (0 Bft) NO 45 2 min 0,000 mm 0,6 UV-I 253 W/m 7,9 C 8,3 C 0,0 km/h (0 Bft) 93,62 %
13.10.2019 09:30 8,4 C 10,0 C 9,4 C 97 % 1019,1 hPa 0,0 l/m 0,0 km/h (0 Bft) NO 45 2 min 0,000 mm 0,6 UV-I 244 W/m 8,0 C 8,4 C 0,0 km/h (0 Bft) 97,87 %
13.10.2019 09:32 8,4 C 10,0 C 9,4 C 97 % 1019,1 hPa 0,0 l/m 0,0 km/h (0 Bft) NO 45 2 min 0,000 mm 0,7 UV-I 216 W/m 8,0 C 8,4 C 0,0 km/h (0 Bft) 97,87 %
13.10.2019 09:34 8,4 C 10,0 C 9,4 C 97 % 1019,1 hPa 0,0 l/m 0,0 km/h (0 Bft) NO 45 2 min 0,000 mm 0,7 UV-I 227 W/m 8,0 C 8,4 C 0,0 km/h (0 Bft) 97,37 %
13.10.2019 09:36 8,6 C 10,0 C 9,4 C 98 % 1019,2 hPa 0,0 l/m 0,0 km/h (0 Bft) NO 45 2 min 0,000 mm 0,7 UV-I 216 W/m 8,3 C 8,6 C 0,0 km/h (0 Bft) 97,87 %
13.10.2019 09:38 8,6 C 10,0 C 9,4 C 98 % 1019,2 hPa 0,0 l/m 0,0 km/h (0 Bft) NO 45 2 min 0,000 mm 0,8 UV-I 269 W/m 8,3 C 8,6 C 0,0 km/h (0 Bft) 97,87 %
13.10.2019 09:40 8,7 C 10,0 C 9,4 C 98 % 1019,2 hPa 0,0 l/m 0,0 km/h (0 Bft) NO 45 2 min 0,000 mm 0,8 UV-I 242 W/m 8,4 C 8,7 C 0,0 km/h (0 Bft) 97,87 %
13.10.2019 09:42 8,8 C 10,0 C 9,4 C 97 % 1019,2 hPa 0,0 l/m 0,0 km/h (0 Bft) NO 45 2 min 0,000 mm 0,8 UV-I 270 W/m 8,4 C 8,8 C 0,0 km/h (0 Bft) 97,87 %
13.10.2019 09:44 8,8 C 10,0 C 10,0 C 98 % 1019,1 hPa 0,0 l/m 0,0 km/h (0 Bft) NO 45 2 min 0,000 mm 0,8 UV-I 236 W/m 8,5 C 8,8 C 0,0 km/h (0 Bft) 95,83 %
13.10.2019 09:46 9,0 C 10,0 C 10,0 C 98 % 1019,1 hPa 0,0 l/m 0,0 km/h (0 Bft) NO 45 2 min 0,000 mm 0,8 UV-I 322 W/m 8,7 C 9,0 C 0,0 km/h (0 Bft) 97,87 %
13.10.2019 09:48 9,2 C 10,0 C 10,0 C 97 % 1019,1 hPa 0,0 l/m 0,0 km/h (0 Bft) NO 45 2 min 0,000 mm 0,9 UV-I 300 W/m 8,7 C 9,2 C 0,0 km/h (0 Bft) 95,74 %
13.10.2019 09:50 9,4 C 10,0 C 10,6 C 97 % 1019,0 hPa 0,0 l/m 0,0 km/h (0 Bft) NO 45 2 min 0,000 mm 0,9 UV-I 304 W/m 8,9 C 9,4 C 0,0 km/h (0 Bft) 98,00 %
13.10.2019 09:52 9,6 C 10,0 C 10,6 C 98 % 1019,0 hPa 0,0 l/m 0,0 km/h (0 Bft) O-NO 61 2 min 0,000 mm 0,9 UV-I 310 W/m 9,3 C 9,6 C 0,0 km/h (0 Bft) 95,74 %
13.10.2019 09:54 9,6 C 10,0 C 10,6 C 98 % 1019,0 hPa 0,0 l/m 0,0 km/h (0 Bft) O-NO 63 2 min 0,000 mm 0,9 UV-I 314 W/m 9,3 C 9,6 C 0,0 km/h (0 Bft) 97,87 %
13.10.2019 09:56 9,7 C 10,0 C 10,6 C 98 % 1019,0 hPa 0,0 l/m 0,0 km/h (0 Bft) NO 54 2 min 0,000 mm 1,0 UV-I 318 W/m 9,4 C 9,7 C 0,0 km/h (0 Bft) 93,62 %
13.10.2019 09:58 9,9 C 10,0 C 10,6 C 98 % 1019,0 hPa 0,0 l/m 0,0 km/h (0 Bft) NO 47 2 min 0,000 mm 1,0 UV-I 324 W/m 9,6 C 9,9 C 0,0 km/h (0 Bft) 95,74 %
13.10.2019 10:00 10,0 C 10,0 C 11,1 C 98 % 1019,0 hPa 0,0 l/m 0,0 km/h (0 Bft) NO 34 2 min 0,101 mm 1,0 UV-I 329 W/m 9,7 C 10,0 C 0,0 km/h (0 Bft) 96,00 %
13.10.2019 10:02 10,2 C 10,0 C 11,1 C 98 % 1019,0 hPa 0,0 l/m 0,0 km/h (0 Bft) O-NO 61 2 min 0,000 mm 1,1 UV-I 334 W/m 9,9 C 10,2 C 0,0 km/h (0 Bft) 93,62 %
13.10.2019 10:04 10,2 C 10,0 C 11,1 C 98 % 1019,0 hPa 0,0 l/m 0,0 km/h (0 Bft) O-NO 78 2 min 0,000 mm 1,1 UV-I 340 W/m 9,9 C 10,2 C 0,0 km/h (0 Bft) 95,74 %
13.10.2019 10:06 10,2 C 10,0 C 10,6 C 98 % 1018,9 hPa 0,0 l/m 0,0 km/h (0 Bft) NO 49 2 min 0,000 mm 1,1 UV-I 346 W/m 9,9 C 10,2 C 0,0 km/h (0 Bft) 89,36 %
13.10.2019 10:08 10,2 C 10,0 C 11,1 C 98 % 1018,9 hPa 0,0 l/m 0,0 km/h (0 Bft) NO 36 2 min 0,000 mm 1,1 UV-I 354 W/m 9,9 C 10,2 C 0,0 km/h (0 Bft) 92,11 %
13.10.2019 10:10 10,3 C 10,0 C 11,1 C 98 % 1018,9 hPa 0,0 l/m 0,0 km/h (0 Bft) O-NO 59 2 min 0,000 mm 1,1 UV-I 354 W/m 10,0 C 10,3 C 0,0 km/h (0 Bft) 91,49 %
13.10.2019 10:12 10,4 C 10,0 C 11,1 C 98 % 1018,9 hPa 0,0 l/m 0,0 km/h (0 Bft) NO 46 2 min 0,000 mm 1,2 UV-I 358 W/m 10,1 C 10,4 C 0,0 km/h (0 Bft) 91,49 %
13.10.2019 10:14 10,6 C 10,0 C 11,1 C 98 % 1018,9 hPa 0,0 l/m 0,0 km/h (0 Bft) O-NO 65 2 min 0,000 mm 1,2 UV-I 360 W/m 10,3 C 10,6 C 0,0 km/h (0 Bft) 95,74 %
13.10.2019 10:16 10,6 C 10,0 C 11,1 C 98 % 1018,9 hPa 0,0 l/m 0,0 km/h (0 Bft) NO 38 2 min 0,000 mm 1,2 UV-I 363 W/m 10,3 C 10,6 C 0,0 km/h (0 Bft) 93,62 %
13.10.2019 10:18 10,6 C 10,0 C 11,1 C 98 % 1018,9 hPa 0,0 l/m 0,0 km/h (0 Bft) NO 56 2 min 0,000 mm 1,2 UV-I 368 W/m 10,3 C 10,6 C 0,0 km/h (0 Bft) 94,00 %
13.10.2019 10:20 10,7 C 10,0 C 11,1 C 98 % 1018,8 hPa 0,0 l/m 0,0 km/h (0 Bft) O-NO 63 2 min 0,000 mm 1,3 UV-I 372 W/m 10,4 C 10,7 C 0,0 km/h (0 Bft) 95,74 %
13.10.2019 10:22 10,8 C 10,0 C 11,7 C 98 % 1018,8 hPa 0,0 l/m 0,0 km/h (0 Bft) NO 46 2 min 0,000 mm 1,3 UV-I 380 W/m 10,5 C 10,8 C 0,0 km/h (0 Bft) 95,74 %
13.10.2019 10:24 10,9 C 10,0 C 12,2 C 98 % 1018,8 hPa 0,0 l/m 0,0 km/h (0 Bft) N-NO 31 2 min 0,000 mm 1,3 UV-I 381 W/m 10,6 C 10,9 C 0,0 km/h (0 Bft) 95,74 %
13.10.2019 10:26 11,0 C 10,0 C 12,2 C 98 % 1018,8 hPa 0,0 l/m 0,0 km/h (0 Bft) N-NO 32 2 min 0,000 mm 1,3 UV-I 381 W/m 10,7 C 11,0 C 0,0 km/h (0 Bft) 93,75 %
13.10.2019 10:28 11,1 C 10,0 C 12,2 C 98 % 1018,9 hPa 0,0 l/m 0,0 km/h (0 Bft) N-NO 29 2 min 0,000 mm 1,3 UV-I 384 W/m 10,8 C 11,1 C 0,0 km/h (0 Bft) 95,45 %
13.10.2019 10:30 11,1 C 10,0 C 11,7 C 98 % 1018,9 hPa 0,0 l/m 0,0 km/h (0 Bft) N-NO 26 2 min 0,000 mm 1,4 UV-I 387 W/m 10,8 C 11,1 C 0,0 km/h (0 Bft) 95,74 %
13.10.2019 10:32 11,1 C 10,0 C 12,2 C 97 % 1018,9 hPa 0,0 l/m 0,0 km/h (0 Bft) NO 36 2 min 0,000 mm 1,4 UV-I 389 W/m 10,6 C 11,1 C 0,0 km/h (0 Bft) 97,87 %
13.10.2019 10:34 11,2 C 10,0 C 12,2 C 97 % 1018,9 hPa 0,0 l/m 0,0 km/h (0 Bft) NO 39 2 min 0,000 mm 1,4 UV-I 397 W/m 10,7 C 11,2 C 0,0 km/h (0 Bft) 98,00 %
13.10.2019 10:36 11,2 C 10,0 C 12,2 C 97 % 1018,9 hPa 0,0 l/m 0,0 km/h (0 Bft) NO 39 2 min 0,000 mm 1,5 UV-I 403 W/m 10,7 C 11,2 C 0,0 km/h (0 Bft) 97,87 %
13.10.2019 10:38 11,2 C 10,0 C 12,8 C 97 % 1018,8 hPa 0,0 l/m 0,0 km/h (0 Bft) N-NO 30 2 min 0,000 mm 1,5 UV-I 408 W/m 10,7 C 11,2 C 0,0 km/h (0 Bft) 97,87 %
13.10.2019 10:40 11,4 C 10,0 C 12,8 C 97 % 1018,8 hPa 0,0 l/m 0,0 km/h (0 Bft) NO 41 2 min 0,000 mm 1,5 UV-I 412 W/m 10,9 C 11,4 C 0,0 km/h (0 Bft) 97,73 %
13.10.2019 10:42 11,5 C 10,0 C 13,3 C 97 % 1018,9 hPa 0,0 l/m 0,0 km/h (0 Bft) N-NO 19 2 min 0,000 mm 1,5 UV-I 415 W/m 11,0 C 11,5 C 0,0 km/h (0 Bft) 97,87 %
13.10.2019 10:44 11,6 C 10,0 C 13,3 C 97 % 1018,8 hPa 0,0 l/m 0,0 km/h (0 Bft) NO 36 2 min 0,000 mm 1,5 UV-I 419 W/m 11,1 C 11,6 C 0,0 km/h (0 Bft) 97,87 %
13.10.2019 10:46 11,7 C 10,0 C 13,9 C 97 % 1018,8 hPa 0,0 l/m 0,0 km/h (0 Bft) N-NO 26 2 min 0,000 mm 1,6 UV-I 417 W/m 11,2 C 11,7 C 0,0 km/h (0 Bft) 97,87 %
13.10.2019 10:48 11,9 C 10,0 C 13,9 C 97 % 1018,8 hPa 0,0 l/m 0,0 km/h (0 Bft) NO 46 2 min 0,000 mm 1,6 UV-I 417 W/m 11,4 C 11,9 C 0,0 km/h (0 Bft) 96,00 %
13.10.2019 10:50 12,1 C 10,0 C 14,4 C 97 % 1018,8 hPa 0,0 l/m 0,0 km/h (0 Bft) N-NO 30 2 min 0,000 mm 1,6 UV-I 425 W/m 11,6 C 12,1 C 0,0 km/h (0 Bft) 95,74 %
13.10.2019 10:52 12,2 C 10,0 C 15,6 C 96 % 1018,8 hPa 0,0 l/m 0,0 km/h (0 Bft) N-NO 32 2 min 0,000 mm 1,6 UV-I 431 W/m 11,6 C 12,2 C 0,0 km/h (0 Bft) 97,87 %
13.10.2019 10:54 12,3 C 10,0 C 16,1 C 96 % 1018,8 hPa 0,0 l/m 0,0 km/h (0 Bft) N-NO 24 2 min 0,000 mm 1,7 UV-I 431 W/m 11,7 C 12,3 C 0,0 km/h (0 Bft) 97,87 %
13.10.2019 10:56 12,4 C 10,0 C 16,7 C 96 % 1018,8 hPa 0,0 l/m 0,0 km/h (0 Bft) N 5 2 min 0,000 mm 1,7 UV-I 429 W/m 11,8 C 12,4 C 0,0 km/h (0 Bft) 97,87 %
13.10.2019 10:58 12,4 C 10,0 C 17,2 C 95 % 1018,8 hPa 0,0 l/m 0,0 km/h (0 Bft) N-NO 22 2 min 0,000 mm 1,7 UV-I 431 W/m 11,6 C 12,4 C 0,0 km/h (0 Bft) 97,56 %
13.10.2019 11:00 12,6 C 10,0 C 17,2 C 95 % 1018,8 hPa 0,0 l/m 0,0 km/h (0 Bft) NO 51 2 min 0,178 mm 1,7 UV-I 439 W/m 11,8 C 12,6 C 0,0 km/h (0 Bft) 97,87 %
13.10.2019 11:02 12,6 C 10,0 C 18,3 C 95 % 1018,8 hPa 0,0 l/m 2,3 km/h (1 Bft) NO 34 2 min 0,000 mm 1,7 UV-I 442 W/m 11,8 C 12,6 C 8,0 km/h (2 Bft) 95,83 %
13.10.2019 11:04 12,8 C 10,0 C 18,9 C 95 % 1018,7 hPa 0,0 l/m 5,9 km/h (2 Bft) NO 44 2 min 0,000 mm 1,8 UV-I 444 W/m 12,0 C 12,8 C 8,0 km/h (2 Bft) 95,74 %
13.10.2019 11:06 13,0 C 10,0 C 20,0 C 95 % 1018,7 hPa 0,0 l/m 6,6 km/h (2 Bft) O-NO 58 2 min 0,000 mm 1,8 UV-I 442 W/m 12,2 C 12,9 C 8,0 km/h (2 Bft) 93,62 %
13.10.2019 11:08 13,0 C 10,0 C 20,6 C 94 % 1018,6 hPa 0,0 l/m 6,3 km/h (2 Bft) O-NO 58 2 min 0,000 mm 1,8 UV-I 445 W/m 12,1 C 13,0 C 8,0 km/h (2 Bft) 95,74 %
13.10.2019 11:10 13,1 C 10,0 C 21,1 C 93 % 1018,6 hPa 0,0 l/m 6,5 km/h (2 Bft) NO 34 2 min 0,000 mm 1,8 UV-I 446 W/m 12,0 C 13,1 C 9,7 km/h (2 Bft) 95,74 %
13.10.2019 11:12 13,2 C 10,0 C 21,7 C 93 % 1018,6 hPa 0,0 l/m 6,6 km/h (2 Bft) NO 34 2 min 0,000 mm 1,8 UV-I 444 W/m 12,1 C 13,1 C 8,0 km/h (2 Bft) 95,74 %
13.10.2019 11:14 13,3 C 10,0 C 21,7 C 93 % 1018,7 hPa 0,0 l/m 6,3 km/h (2 Bft) NO 44 2 min 0,000 mm 1,8 UV-I 439 W/m 12,2 C 13,3 C 8,0 km/h (2 Bft) 98,00 %
13.10.2019 11:16 13,4 C 10,0 C 22,2 C 92 % 1018,6 hPa 0,0 l/m 6,2 km/h (2 Bft) NO 40 2 min 0,000 mm 1,9 UV-I 452 W/m 12,1 C 13,4 C 9,7 km/h (2 Bft) 97,87 %
13.10.2019 11:18 13,5 C 10,0 C 22,8 C 91 % 1018,6 hPa 0,0 l/m 5,3 km/h (1 Bft) NO 46 2 min 0,000 mm 1,9 UV-I 440 W/m 12,1 C 13,5 C 9,7 km/h (2 Bft) 95,74 %
13.10.2019 11:20 13,5 C 10,0 C 22,2 C 90 % 1018,6 hPa 0,0 l/m 7,8 km/h (2 Bft) NO 38 2 min 0,000 mm 1,9 UV-I 361 W/m 11,9 C 12,6 C 11,3 km/h (2 Bft) 97,37 %
13.10.2019 11:22 13,5 C 10,0 C 22,8 C 90 % 1018,6 hPa 0,0 l/m 6,8 km/h (2 Bft) N-NO 21 2 min 0,000 mm 1,9 UV-I 468 W/m 11,9 C 13,3 C 9,7 km/h (2 Bft) 95,74 %
13.10.2019 11:24 13,5 C 10,0 C 22,8 C 89 % 1018,6 hPa 0,0 l/m 6,8 km/h (2 Bft) NO 40 2 min 0,000 mm 2,0 UV-I 465 W/m 11,7 C 13,3 C 9,7 km/h (2 Bft) 97,87 %
13.10.2019 11:26 13,6 C 10,0 C 22,8 C 88 % 1018,6 hPa 0,0 l/m 7,0 km/h (2 Bft) O-NO 57 2 min 0,000 mm 2,0 UV-I 459 W/m 11,6 C 13,2 C 11,3 km/h (2 Bft) 97,87 %
13.10.2019 11:28 13,7 C 10,0 C 22,8 C 88 % 1018,6 hPa 0,0 l/m 6,0 km/h (2 Bft) N-NO 30 2 min 0,000 mm 2,0 UV-I 443 W/m 11,7 C 13,7 C 8,0 km/h (2 Bft) 100,00 %
13.10.2019 11:30 13,8 C 10,0 C 22,8 C 88 % 1018,6 hPa 0,0 l/m 8,3 km/h (2 Bft) N-NO 15 2 min 0,000 mm 2,0 UV-I 450 W/m 11,8 C 12,7 C 11,3 km/h (2 Bft) 100,00 %
13.10.2019 11:32 13,7 C 10,0 C 22,8 C 88 % 1018,6 hPa 0,0 l/m 9,4 km/h (2 Bft) N-NO 17 2 min 0,000 mm 2,0 UV-I 460 W/m 11,7 C 12,0 C 12,9 km/h (3 Bft) 97,87 %
13.10.2019 11:34 13,7 C 10,0 C 22,2 C 88 % 1018,6 hPa 0,0 l/m 7,9 km/h (2 Bft) NO 46 2 min 0,000 mm 2,0 UV-I 463 W/m 11,7 C 12,8 C 9,7 km/h (2 Bft) 98,00 %
13.10.2019 11:36 13,8 C 10,0 C 22,8 C 88 % 1018,6 hPa 0,0 l/m 6,8 km/h (2 Bft) NO 49 2 min 0,000 mm 2,1 UV-I 474 W/m 11,8 C 13,6 C 11,3 km/h (2 Bft) 96,00 %
13.10.2019 11:38 13,8 C 10,0 C 22,8 C 88 % 1018,5 hPa 0,0 l/m 7,5 km/h (2 Bft) NO 46 2 min 0,000 mm 2,1 UV-I 453 W/m 11,8 C 13,1 C 11,3 km/h (2 Bft) 95,74 %
13.10.2019 11:40 13,9 C 10,0 C 22,2 C 88 % 1018,6 hPa 0,0 l/m 8,9 km/h (2 Bft) NO 39 2 min 0,000 mm 2,0 UV-I 419 W/m 11,9 C 12,5 C 14,5 km/h (3 Bft) 97,44 %
13.10.2019 11:42 13,9 C 10,0 C 22,8 C 88 % 1018,5 hPa 0,0 l/m 6,6 km/h (2 Bft) NO 44 2 min 0,000 mm 2,1 UV-I 452 W/m 11,9 C 13,8 C 9,7 km/h (2 Bft) 97,87 %
13.10.2019 11:44 14,0 C 10,0 C 22,8 C 88 % 1018,6 hPa 0,0 l/m 8,5 km/h (2 Bft) N-NO 33 2 min 0,000 mm 2,1 UV-I 470 W/m 12,0 C 12,8 C 12,9 km/h (3 Bft) 95,74 %
13.10.2019 11:46 14,0 C 10,0 C 22,8 C 88 % 1018,6 hPa 0,0 l/m 3,7 km/h (1 Bft) NO 40 2 min 0,000 mm 2,1 UV-I 474 W/m 12,0 C 14,0 C 6,4 km/h (2 Bft) 93,62 %
13.10.2019 11:48 14,1 C 10,0 C 23,3 C 89 % 1018,5 hPa 0,0 l/m 4,6 km/h (1 Bft) N-NO 16 2 min 0,000 mm 2,1 UV-I 478 W/m 12,3 C 14,1 C 8,0 km/h (2 Bft) 98,11 %
13.10.2019 11:50 14,2 C 10,0 C 23,3 C 89 % 1018,5 hPa 0,0 l/m 7,3 km/h (2 Bft) NO 50 2 min 0,000 mm 2,1 UV-I 410 W/m 12,4 C 13,7 C 11,3 km/h (2 Bft) 96,15 %
13.10.2019 11:52 14,2 C 10,0 C 22,8 C 88 % 1018,4 hPa 0,0 l/m 7,5 km/h (2 Bft) NO 46 2 min 0,000 mm 2,1 UV-I 447 W/m 12,2 C 13,5 C 11,3 km/h (2 Bft) 98,39 %
13.10.2019 11:54 14,2 C 10,0 C 22,8 C 88 % 1018,4 hPa 0,0 l/m 6,6 km/h (2 Bft) NO 46 2 min 0,000 mm 2,1 UV-I 469 W/m 12,2 C 14,1 C 11,3 km/h (2 Bft) 97,87 %
13.10.2019 11:56 14,2 C 10,0 C 22,8 C 87 % 1018,4 hPa 0,0 l/m 6,7 km/h (2 Bft) NO 34 2 min 0,000 mm 2,1 UV-I 463 W/m 12,1 C 14,0 C 9,7 km/h (2 Bft) 95,74 %
13.10.2019 11:58 14,2 C 10,0 C 22,8 C 88 % 1018,4 hPa 0,0 l/m 6,3 km/h (2 Bft) NO 44 2 min 0,000 mm 2,2 UV-I 489 W/m 12,2 C 14,2 C 9,7 km/h (2 Bft) 100,00 %
13.10.2019 12:00 14,2 C 10,0 C 22,8 C 87 % 1018,4 hPa 0,0 l/m 4,7 km/h (1 Bft) NO 47 2 min 0,229 mm 2,2 UV-I 461 W/m 12,1 C 14,2 C 6,4 km/h (2 Bft) 96,00 %
13.10.2019 12:02 14,3 C 10,0 C 23,9 C 88 % 1018,3 hPa 0,0 l/m 6,2 km/h (2 Bft) O-NO 66 2 min 0,000 mm 2,2 UV-I 492 W/m 12,3 C 14,3 C 11,3 km/h (2 Bft) 100,00 %
13.10.2019 12:04 14,4 C 10,0 C 23,3 C 88 % 1018,3 hPa 0,0 l/m 6,7 km/h (2 Bft) O-NO 57 2 min 0,000 mm 2,2 UV-I 497 W/m 12,4 C 14,2 C 9,7 km/h (2 Bft) 98,00 %
13.10.2019 12:06 14,4 C 10,0 C 22,8 C 87 % 1018,3 hPa 0,0 l/m 7,0 km/h (2 Bft) NO 45 2 min 0,000 mm 2,1 UV-I 427 W/m 12,3 C 14,1 C 9,7 km/h (2 Bft) 100,00 %
13.10.2019 12:08 14,5 C 10,0 C 22,2 C 87 % 1018,2 hPa 0,0 l/m 6,4 km/h (2 Bft) NO 47 2 min 0,000 mm 2,1 UV-I 421 W/m 12,4 C 14,5 C 9,7 km/h (2 Bft) 97,37 %
13.10.2019 12:10 14,6 C 10,0 C 21,7 C 87 % 1018,2 hPa 0,0 l/m 8,8 km/h (2 Bft) N-NO 31 2 min 0,000 mm 2,1 UV-I 429 W/m 12,5 C 13,3 C 14,5 km/h (3 Bft) 97,87 %
13.10.2019 12:12 14,7 C 10,0 C 21,1 C 87 % 1018,2 hPa 0,0 l/m 6,9 km/h (2 Bft) N-NO 33 2 min 0,000 mm 2,1 UV-I 417 W/m 12,6 C 14,4 C 11,3 km/h (2 Bft) 100,00 %
13.10.2019 12:14 14,8 C 10,0 C 20,6 C 86 % 1018,2 hPa 0,0 l/m 6,7 km/h (2 Bft) NO 52 2 min 0,000 mm 2,0 UV-I 366 W/m 12,5 C 14,6 C 9,7 km/h (2 Bft) 100,00 %
13.10.2019 12:16 14,9 C 10,0 C 21,1 C 86 % 1018,2 hPa 0,0 l/m 6,5 km/h (2 Bft) NO 53 2 min 0,000 mm 2,2 UV-I 464 W/m 12,6 C 14,9 C 8,0 km/h (2 Bft) 100,00 %
13.10.2019 12:18 15,1 C 10,0 C 21,1 C 85 % 1018,2 hPa 0,0 l/m 9,7 km/h (2 Bft) O-NO 68 2 min 0,000 mm 2,2 UV-I 440 W/m 12,6 C 13,4 C 14,5 km/h (3 Bft) 97,92 %
13.10.2019 12:20 15,2 C 10,0 C 21,1 C 84 % 1018,2 hPa 0,0 l/m 11,0 km/h (2 Bft) NO 51 2 min 0,000 mm 2,1 UV-I 384 W/m 12,5 C 12,9 C 14,5 km/h (3 Bft) 100,00 %
13.10.2019 12:22 15,2 C 10,0 C 21,1 C 82 % 1018,1 hPa 0,0 l/m 10,6 km/h (2 Bft) O-SO 105 2 min 0,000 mm 2,4 UV-I 498 W/m 12,1 C 13,1 C 16,1 km/h (3 Bft) 100,00 %
13.10.2019 12:24 15,3 C 10,0 C 22,2 C 81 % 1018,1 hPa 0,0 l/m 11,0 km/h (2 Bft) NO 50 2 min 0,000 mm 2,4 UV-I 549 W/m 12,1 C 13,0 C 16,1 km/h (3 Bft) 96,00 %
13.10.2019 12:26 15,4 C 10,0 C 23,9 C 81 % 1018,1 hPa 0,0 l/m 9,9 km/h (2 Bft) O 94 2 min 0,000 mm 2,4 UV-I 518 W/m 12,2 C 13,6 C 14,5 km/h (3 Bft) 97,37 %
13.10.2019 12:28 15,6 C 10,0 C 23,9 C 80 % 1018,1 hPa 0,0 l/m 8,0 km/h (2 Bft) O-NO 63 2 min 0,000 mm 2,4 UV-I 527 W/m 12,2 C 14,7 C 12,9 km/h (3 Bft) 97,87 %
13.10.2019 12:30 15,7 C 10,0 C 23,3 C 79 % 1018,1 hPa 0,0 l/m 10,2 km/h (2 Bft) O-NO 69 2 min 0,000 mm 2,3 UV-I 540 W/m 12,1 C 13,8 C 14,5 km/h (3 Bft) 95,74 %
13.10.2019 12:32 15,8 C 10,0 C 22,8 C 78 % 1018,0 hPa 0,0 l/m 9,0 km/h (2 Bft) O 93 2 min 0,000 mm 2,4 UV-I 532 W/m 12,0 C 14,5 C 14,5 km/h (3 Bft) 97,87 %
13.10.2019 12:34 15,9 C 10,0 C 21,7 C 76 % 1018,1 hPa 0,0 l/m 11,8 km/h (2 Bft) O 91 2 min 0,000 mm 2,4 UV-I 522 W/m 11,7 C 13,4 C 14,5 km/h (3 Bft) 95,74 %
13.10.2019 12:36 15,9 C 10,0 C 21,7 C 76 % 1018,0 hPa 0,0 l/m 10,5 km/h (2 Bft) O 87 2 min 0,000 mm 2,4 UV-I 523 W/m 11,7 C 13,9 C 14,5 km/h (3 Bft) 97,87 %
13.10.2019 12:38 15,9 C 10,0 C 21,1 C 75 % 1017,9 hPa 0,0 l/m 10,1 km/h (2 Bft) O-NO 69 2 min 0,000 mm 2,4 UV-I 491 W/m 11,5 C 14,1 C 12,9 km/h (3 Bft) 97,87 %
13.10.2019 12:40 16,1 C 10,0 C 21,1 C 76 % 1017,9 hPa 0,0 l/m 7,9 km/h (2 Bft) O-NO 70 2 min 0,000 mm 2,4 UV-I 512 W/m 11,9 C 15,3 C 12,9 km/h (3 Bft) 97,87 %
13.10.2019 12:42 16,2 C 10,0 C 20,6 C 76 % 1018,0 hPa 0,0 l/m 9,2 km/h (2 Bft) O 101 2 min 0,000 mm 2,4 UV-I 495 W/m 12,0 C 14,8 C 14,5 km/h (3 Bft) 89,36 %
13.10.2019 12:44 16,2 C 10,0 C 21,1 C 76 % 1017,9 hPa 0,0 l/m 10,6 km/h (2 Bft) SO 132 2 min 0,000 mm 2,2 UV-I 392 W/m 12,0 C 14,2 C 12,9 km/h (3 Bft) 95,74 %
13.10.2019 12:46 16,3 C 10,0 C 21,1 C 75 % 1017,9 hPa 0,0 l/m 11,1 km/h (2 Bft) O-NO 61 2 min 0,000 mm 2,2 UV-I 442 W/m 11,9 C 14,1 C 14,5 km/h (3 Bft) 95,74 %
13.10.2019 12:48 16,3 C 10,0 C 21,1 C 74 % 1017,9 hPa 0,0 l/m 8,2 km/h (2 Bft) O-SO 112 2 min 0,000 mm 2,3 UV-I 451 W/m 11,7 C 15,4 C 14,5 km/h (3 Bft) 93,62 %
13.10.2019 12:50 16,4 C 10,0 C 21,1 C 74 % 1017,9 hPa 0,0 l/m 8,0 km/h (2 Bft) O-SO 122 2 min 0,000 mm 2,0 UV-I 457 W/m 11,8 C 15,6 C 12,9 km/h (3 Bft) 98,00 %
13.10.2019 12:52 16,4 C 10,0 C 20,6 C 73 % 1017,9 hPa 0,0 l/m 7,7 km/h (2 Bft) O-SO 107 2 min 0,000 mm 2,1 UV-I 465 W/m 11,5 C 15,7 C 12,9 km/h (3 Bft) 95,74 %
13.10.2019 12:54 16,4 C 10,0 C 20,0 C 71 % 1017,9 hPa 0,0 l/m 9,1 km/h (2 Bft) O 84 2 min 0,000 mm 2,4 UV-I 461 W/m 11,1 C 15,1 C 12,9 km/h (3 Bft) 95,74 %
13.10.2019 12:56 16,4 C 10,0 C 20,0 C 70 % 1017,9 hPa 0,0 l/m 10,1 km/h (2 Bft) O 87 2 min 0,000 mm 2,4 UV-I 487 W/m 10,9 C 14,6 C 12,9 km/h (3 Bft) 98,00 %
13.10.2019 12:58 16,4 C 10,0 C 19,4 C 70 % 1017,9 hPa 0,0 l/m 10,5 km/h (2 Bft) O 92 2 min 0,000 mm 2,4 UV-I 468 W/m 10,9 C 14,5 C 16,1 km/h (3 Bft) 97,44 %
13.10.2019 13:00 16,4 C 10,0 C 18,9 C 71 % 1017,8 hPa 0,0 l/m 8,2 km/h (2 Bft) O-NO 69 2 min 0,279 mm 2,4 UV-I 488 W/m 11,1 C 15,5 C 12,9 km/h (3 Bft) 97,87 %
13.10.2019 13:02 16,6 C 10,0 C 18,9 C 72 % 1017,8 hPa 0,0 l/m 6,3 km/h (2 Bft) O 85 2 min 0,000 mm 2,4 UV-I 496 W/m 11,5 C 16,6 C 11,3 km/h (2 Bft) 98,00 %
13.10.2019 13:04 16,7 C 10,0 C 18,9 C 71 % 1017,8 hPa 0,0 l/m 9,9 km/h (2 Bft) O 90 2 min 0,000 mm 2,4 UV-I 499 W/m 11,4 C 15,0 C 14,5 km/h (3 Bft) 93,62 %
13.10.2019 13:06 16,8 C 10,0 C 18,3 C 70 % 1017,8 hPa 0,0 l/m 8,5 km/h (2 Bft) O-SO 103 2 min 0,000 mm 2,5 UV-I 540 W/m 11,3 C 15,8 C 12,9 km/h (3 Bft) 96,00 %
13.10.2019 13:08 16,9 C 10,0 C 18,3 C 71 % 1017,8 hPa 0,0 l/m 7,0 km/h (2 Bft) O-NO 71 2 min 0,000 mm 2,5 UV-I 524 W/m 11,6 C 16,6 C 12,9 km/h (3 Bft) 93,62 %
13.10.2019 13:10 17,1 C 10,0 C 18,3 C 70 % 1017,8 hPa 0,0 l/m 8,7 km/h (2 Bft) O 92 2 min 0,000 mm 2,5 UV-I 530 W/m 11,6 C 16,0 C 12,9 km/h (3 Bft) 94,74 %
13.10.2019 13:12 17,2 C 10,0 C 18,3 C 69 % 1017,8 hPa 0,0 l/m 7,8 km/h (2 Bft) O-SO 117 2 min 0,000 mm 2,6 UV-I 522 W/m 11,5 C 16,5 C 12,9 km/h (3 Bft) 95,74 %
13.10.2019 13:14 17,3 C 10,0 C 17,8 C 68 % 1017,7 hPa 0,0 l/m 6,9 km/h (2 Bft) O 98 2 min 0,000 mm 2,5 UV-I 525 W/m 11,3 C 17,1 C 11,3 km/h (2 Bft) 95,74 %
13.10.2019 13:16 17,3 C 10,0 C 17,8 C 70 % 1017,7 hPa 0,0 l/m 7,1 km/h (2 Bft) O-SO 102 2 min 0,000 mm 2,6 UV-I 532 W/m 11,8 C 17,0 C 11,3 km/h (2 Bft) 95,74 %
13.10.2019 13:18 17,5 C 10,0 C 18,3 C 69 % 1017,6 hPa 0,0 l/m 8,7 km/h (2 Bft) O-NO 61 2 min 0,000 mm 2,6 UV-I 530 W/m 11,7 C 16,4 C 11,3 km/h (2 Bft) 96,23 %
13.10.2019 13:20 17,6 C 10,0 C 18,3 C 69 % 1017,6 hPa 0,0 l/m 6,8 km/h (2 Bft) O-SO 112 2 min 0,000 mm 2,5 UV-I 509 W/m 11,8 C 17,4 C 9,7 km/h (2 Bft) 94,00 %
13.10.2019 13:22 17,6 C 10,0 C 18,3 C 66 % 1017,7 hPa 0,0 l/m 6,9 km/h (2 Bft) O-SO 110 2 min 0,000 mm 2,4 UV-I 443 W/m 11,2 C 17,4 C 11,3 km/h (2 Bft) 95,74 %
13.10.2019 13:24 17,6 C 10,0 C 17,8 C 65 % 1017,7 hPa 0,0 l/m 7,9 km/h (2 Bft) O 96 2 min 0,000 mm 2,3 UV-I 452 W/m 10,9 C 16,9 C 11,3 km/h (2 Bft) 91,43 %
13.10.2019 13:26 17,6 C 10,0 C 17,8 C 66 % 1017,6 hPa 0,0 l/m 5,4 km/h (1 Bft) O 96 2 min 0,000 mm 2,5 UV-I 525 W/m 11,2 C 17,6 C 11,3 km/h (2 Bft) 95,74 %
13.10.2019 13:28 17,7 C 10,0 C 17,8 C 67 % 1017,7 hPa 0,0 l/m 5,8 km/h (2 Bft) O 94 2 min 0,000 mm 2,6 UV-I 529 W/m 11,5 C 17,7 C 9,7 km/h (2 Bft) 95,83 %
13.10.2019 13:30 17,7 C 10,0 C 17,8 C 67 % 1017,6 hPa 0,0 l/m 6,1 km/h (2 Bft) O 98 2 min 0,000 mm 2,6 UV-I 524 W/m 11,5 C 17,7 C 11,3 km/h (2 Bft) 93,62 %
13.10.2019 13:32 17,8 C 10,0 C 17,8 C 66 % 1017,6 hPa 0,0 l/m 5,4 km/h (1 Bft) O 91 2 min 0,000 mm 2,5 UV-I 519 W/m 11,4 C 17,8 C 9,7 km/h (2 Bft) 95,74 %
13.10.2019 13:34 17,8 C 10,0 C 17,8 C 67 % 1017,5 hPa 0,0 l/m 8,1 km/h (2 Bft) O 85 2 min 0,000 mm 2,5 UV-I 514 W/m 11,6 C 17,0 C 11,3 km/h (2 Bft) 93,62 %
13.10.2019 13:36 17,8 C 10,0 C 17,8 C 68 % 1017,5 hPa 0,0 l/m 6,4 km/h (2 Bft) O 84 2 min 0,000 mm 2,5 UV-I 515 W/m 11,8 C 17,8 C 8,0 km/h (2 Bft) 93,62 %
13.10.2019 13:38 17,9 C 10,0 C 17,8 C 67 % 1017,4 hPa 0,0 l/m 6,1 km/h (2 Bft) O-NO 76 2 min 0,000 mm 2,5 UV-I 509 W/m 11,7 C 17,9 C 9,7 km/h (2 Bft) 93,62 %
13.10.2019 13:40 17,8 C 10,0 C 17,8 C 68 % 1017,3 hPa 0,0 l/m 7,0 km/h (2 Bft) O 81 2 min 0,000 mm 2,5 UV-I 512 W/m 11,8 C 17,5 C 11,3 km/h (2 Bft) 95,74 %
13.10.2019 13:42 17,8 C 10,0 C 17,8 C 67 % 1017,2 hPa 0,0 l/m 7,6 km/h (2 Bft) NO 53 2 min 0,000 mm 2,4 UV-I 485 W/m 11,6 C 17,2 C 11,3 km/h (2 Bft) 97,87 %
13.10.2019 13:44 17,8 C 10,0 C 17,8 C 69 % 1017,2 hPa 0,0 l/m 8,4 km/h (2 Bft) NO 55 2 min 0,000 mm 2,1 UV-I 390 W/m 12,0 C 16,9 C 12,9 km/h (3 Bft) 97,87 %
13.10.2019 13:46 17,8 C 10,0 C 17,8 C 68 % 1017,2 hPa 0,0 l/m 8,2 km/h (2 Bft) O 88 2 min 0,000 mm 2,1 UV-I 416 W/m 11,8 C 17,0 C 14,5 km/h (3 Bft) 95,74 %
13.10.2019 13:48 17,8 C 10,0 C 17,8 C 68 % 1017,2 hPa 0,0 l/m 6,4 km/h (2 Bft) NO 55 2 min 0,000 mm 2,1 UV-I 397 W/m 11,8 C 17,8 C 9,7 km/h (2 Bft) 96,00 %
13.10.2019 13:50 17,8 C 10,0 C 17,8 C 68 % 1017,2 hPa 0,0 l/m 9,2 km/h (2 Bft) O-NO 62 0 min 0,000 mm 1,7 UV-I 195 W/m 11,8 C 16,5 C 14,5 km/h (3 Bft) 93,62 %
13.10.2019 13:52 17,8 C 10,6 C 17,8 C 70 % 1017,1 hPa 0,0 l/m 9,8 km/h (2 Bft) O-NO 61 2 min 0,000 mm 2,1 UV-I 427 W/m 12,3 C 16,3 C 14,5 km/h (3 Bft) 95,74 %
13.10.2019 13:54 17,9 C 10,0 C 18,3 C 69 % 1017,1 hPa 0,0 l/m 9,0 km/h (2 Bft) O-NO 68 2 min 0,000 mm 2,3 UV-I 502 W/m 12,1 C 16,7 C 16,1 km/h (3 Bft) 95,74 %
13.10.2019 13:56 18,0 C 10,0 C 18,3 C 67 % 1017,0 hPa 0,0 l/m 8,3 km/h (2 Bft) O 96 2 min 0,000 mm 2,3 UV-I 495 W/m 11,8 C 17,1 C 12,9 km/h (3 Bft) 95,74 %
13.10.2019 13:58 18,1 C 10,0 C 18,3 C 66 % 1017,1 hPa 0,0 l/m 10,4 km/h (2 Bft) O-NO 73 2 min 0,000 mm 2,2 UV-I 431 W/m 11,6 C 16,4 C 12,9 km/h (3 Bft) 96,00 %
13.10.2019 14:00 18,1 C 10,6 C 18,3 C 66 % 1017,1 hPa 0,0 l/m 7,4 km/h (2 Bft) O-NO 69 2 min 0,000 mm 2,2 UV-I 481 W/m 11,6 C 17,6 C 12,9 km/h (3 Bft) 95,74 %
13.10.2019 14:02 18,1 C 10,0 C 18,3 C 67 % 1017,0 hPa 0,0 l/m 8,4 km/h (2 Bft) O-NO 61 2 min 0,305 mm 2,3 UV-I 485 W/m 11,9 C 17,2 C 12,9 km/h (3 Bft) 95,74 %
13.10.2019 14:04 18,2 C 10,0 C 18,3 C 67 % 1017,0 hPa 0,0 l/m 9,1 km/h (2 Bft) O-SO 103 2 min 0,000 mm 2,2 UV-I 470 W/m 12,0 C 17,0 C 14,5 km/h (3 Bft) 95,74 %
13.10.2019 14:06 18,2 C 10,6 C 18,3 C 67 % 1016,9 hPa 0,0 l/m 11,0 km/h (2 Bft) NO 53 2 min 0,000 mm 2,0 UV-I 389 W/m 12,0 C 16,3 C 14,5 km/h (3 Bft) 93,62 %
13.10.2019 14:08 18,2 C 10,0 C 17,8 C 66 % 1016,9 hPa 0,0 l/m 10,9 km/h (2 Bft) O-NO 76 2 min 0,000 mm 1,8 UV-I 396 W/m 11,7 C 16,3 C 14,5 km/h (3 Bft) 91,67 %
13.10.2019 14:10 18,1 C 10,0 C 17,8 C 66 % 1017,0 hPa 0,0 l/m 10,0 km/h (2 Bft) O 87 2 min 0,000 mm 1,9 UV-I 396 W/m 11,6 C 16,5 C 12,9 km/h (3 Bft) 95,38 %
13.10.2019 14:12 18,1 C 10,6 C 17,8 C 65 % 1017,0 hPa 0,0 l/m 8,1 km/h (2 Bft) O-NO 67 2 min 0,000 mm 1,9 UV-I 346 W/m 11,4 C 17,3 C 14,5 km/h (3 Bft) 93,62 %
13.10.2019 14:14 18,1 C 10,6 C 18,3 C 66 % 1017,0 hPa 0,0 l/m 7,7 km/h (2 Bft) O 96 2 min 0,000 mm 2,1 UV-I 414 W/m 11,6 C 17,5 C 11,3 km/h (2 Bft) 94,00 %
13.10.2019 14:16 18,1 C 10,0 C 18,3 C 67 % 1016,9 hPa 0,0 l/m 8,5 km/h (2 Bft) O-SO 111 2 min 0,000 mm 2,1 UV-I 480 W/m 11,9 C 17,1 C 14,5 km/h (3 Bft) 97,87 %
13.10.2019 14:18 18,2 C 10,6 C 18,9 C 66 % 1016,9 hPa 0,0 l/m 7,6 km/h (2 Bft) O-NO 61 2 min 0,000 mm 2,2 UV-I 499 W/m 11,7 C 17,6 C 12,9 km/h (3 Bft) 95,74 %
13.10.2019 14:20 18,2 C 10,0 C 18,9 C 66 % 1016,8 hPa 0,0 l/m 9,0 km/h (2 Bft) O-NO 66 2 min 0,000 mm 2,2 UV-I 498 W/m 11,7 C 17,0 C 12,9 km/h (3 Bft) 97,87 %
13.10.2019 14:22 18,2 C 10,0 C 18,3 C 67 % 1016,8 hPa 0,0 l/m 8,4 km/h (2 Bft) O-SO 107 2 min 0,000 mm 2,1 UV-I 468 W/m 12,0 C 17,3 C 12,9 km/h (3 Bft) 97,14 %
13.10.2019 14:24 18,2 C 10,6 C 18,3 C 66 % 1016,7 hPa 0,0 l/m 8,7 km/h (2 Bft) NO 50 2 min 0,000 mm 2,1 UV-I 469 W/m 11,7 C 17,2 C 16,1 km/h (3 Bft) 94,00 %
13.10.2019 14:26 18,3 C 10,0 C 18,3 C 68 % 1016,6 hPa 0,0 l/m 12,4 km/h (3 Bft) NO 47 2 min 0,000 mm 2,1 UV-I 462 W/m 12,3 C 15,9 C 16,1 km/h (3 Bft) 95,74 %
13.10.2019 14:28 18,3 C 10,6 C 18,3 C 66 % 1016,6 hPa 0,0 l/m 10,4 km/h (2 Bft) O-NO 62 2 min 0,000 mm 2,1 UV-I 446 W/m 11,8 C 16,6 C 16,1 km/h (3 Bft) 97,87 %
13.10.2019 14:30 18,3 C 10,6 C 17,8 C 65 % 1016,6 hPa 0,0 l/m 8,0 km/h (2 Bft) O 79 2 min 0,000 mm 2,0 UV-I 448 W/m 11,6 C 17,6 C 14,5 km/h (3 Bft) 97,87 %
13.10.2019 14:32 18,3 C 10,0 C 17,8 C 64 % 1016,5 hPa 0,0 l/m 10,0 km/h (2 Bft) O 84 2 min 0,000 mm 2,0 UV-I 445 W/m 11,4 C 16,8 C 16,1 km/h (3 Bft) 97,87 %
13.10.2019 14:34 18,3 C 10,0 C 17,8 C 66 % 1016,5 hPa 0,0 l/m 8,4 km/h (2 Bft) NO 40 2 min 0,000 mm 2,0 UV-I 440 W/m 11,8 C 17,4 C 16,1 km/h (3 Bft) 93,62 %
13.10.2019 14:36 18,4 C 10,0 C 17,8 C 66 % 1016,4 hPa 0,0 l/m 12,1 km/h (2 Bft) O-NO 71 2 min 0,000 mm 1,9 UV-I 435 W/m 11,9 C 16,2 C 16,1 km/h (3 Bft) 95,74 %
13.10.2019 14:38 18,4 C 10,0 C 17,8 C 66 % 1016,4 hPa 0,0 l/m 11,9 km/h (2 Bft) O-SO 103 2 min 0,000 mm 1,9 UV-I 432 W/m 11,9 C 16,2 C 19,3 km/h (3 Bft) 98,00 %
13.10.2019 14:40 18,4 C 10,0 C 17,8 C 67 % 1016,4 hPa 0,0 l/m 7,9 km/h (2 Bft) O-NO 60 2 min 0,000 mm 1,9 UV-I 430 W/m 12,2 C 17,7 C 12,9 km/h (3 Bft) 95,74 %
13.10.2019 14:42 18,5 C 10,0 C 17,8 C 68 % 1016,5 hPa 0,0 l/m 9,6 km/h (2 Bft) N-NO 26 2 min 0,000 mm 1,8 UV-I 426 W/m 12,5 C 17,1 C 14,5 km/h (3 Bft) 98,00 %
13.10.2019 14:44 18,6 C 10,6 C 17,8 C 68 % 1016,5 hPa 0,0 l/m 10,6 km/h (2 Bft) O-NO 65 2 min 0,000 mm 1,8 UV-I 423 W/m 12,6 C 16,9 C 16,1 km/h (3 Bft) 95,74 %
13.10.2019 14:46 18,6 C 10,6 C 17,8 C 66 % 1016,4 hPa 0,0 l/m 8,5 km/h (2 Bft) NO 56 2 min 0,000 mm 1,8 UV-I 420 W/m 12,1 C 17,7 C 16,1 km/h (3 Bft) 97,87 %
13.10.2019 14:48 18,6 C 10,0 C 17,8 C 70 % 1016,5 hPa 0,0 l/m 12,0 km/h (2 Bft) O-NO 71 2 min 0,000 mm 1,8 UV-I 416 W/m 13,0 C 16,4 C 16,1 km/h (3 Bft) 97,92 %
13.10.2019 14:50 18,6 C 10,6 C 17,8 C 68 % 1016,5 hPa 0,0 l/m 10,9 km/h (2 Bft) O-NO 59 2 min 0,000 mm 1,7 UV-I 414 W/m 12,6 C 16,8 C 14,5 km/h (3 Bft) 97,87 %
13.10.2019 14:52 18,6 C 10,6 C 17,8 C 67 % 1016,5 hPa 0,0 l/m 9,6 km/h (2 Bft) O-SO 103 2 min 0,000 mm 1,7 UV-I 368 W/m 12,3 C 17,2 C 14,5 km/h (3 Bft) 95,74 %
13.10.2019 14:54 18,6 C 10,6 C 17,8 C 68 % 1016,5 hPa 0,0 l/m 9,0 km/h (2 Bft) O 90 2 min 0,000 mm 1,7 UV-I 407 W/m 12,6 C 17,5 C 12,9 km/h (3 Bft) 94,29 %
13.10.2019 14:56 18,6 C 10,0 C 18,3 C 68 % 1016,5 hPa 0,0 l/m 9,1 km/h (2 Bft) O-NO 57 2 min 0,000 mm 1,7 UV-I 404 W/m 12,6 C 17,4 C 12,9 km/h (3 Bft) 96,23 %
13.10.2019 14:58 18,7 C 10,6 C 18,3 C 69 % 1016,4 hPa 0,0 l/m 11,1 km/h (2 Bft) O 81 2 min 0,000 mm 1,6 UV-I 393 W/m 12,9 C 16,8 C 16,1 km/h (3 Bft) 90,00 %
13.10.2019 15:00 18,7 C 10,6 C 17,8 C 68 % 1016,4 hPa 0,0 l/m 12,0 km/h (2 Bft) O-NO 67 2 min 0,279 mm 1,6 UV-I 398 W/m 12,7 C 16,5 C 19,3 km/h (3 Bft) 95,74 %
13.10.2019 15:02 18,7 C 10,6 C 17,8 C 69 % 1016,4 hPa 0,0 l/m 13,3 km/h (3 Bft) O 99 2 min 0,000 mm 1,6 UV-I 395 W/m 12,9 C 16,1 C 16,1 km/h (3 Bft) 95,74 %
13.10.2019 15:04 18,8 C 10,0 C 18,3 C 71 % 1016,4 hPa 0,0 l/m 14,4 km/h (3 Bft) O 92 2 min 0,000 mm 1,6 UV-I 393 W/m 13,4 C 16,0 C 19,3 km/h (3 Bft) 94,00 %
13.10.2019 15:06 18,8 C 10,0 C 18,3 C 71 % 1016,4 hPa 0,0 l/m 12,9 km/h (3 Bft) O 92 2 min 0,000 mm 1,4 UV-I 380 W/m 13,4 C 16,4 C 16,1 km/h (3 Bft) 97,37 %
13.10.2019 15:08 18,7 C 10,6 C 18,3 C 71 % 1016,3 hPa 0,0 l/m 8,8 km/h (2 Bft) O-SO 102 2 min 0,000 mm 1,5 UV-I 368 W/m 13,3 C 17,7 C 12,9 km/h (3 Bft) 97,87 %
13.10.2019 15:10 18,8 C 10,6 C 18,3 C 72 % 1016,3 hPa 0,0 l/m 9,6 km/h (2 Bft) O-NO 78 2 min 0,000 mm 1,5 UV-I 389 W/m 13,6 C 17,5 C 12,9 km/h (3 Bft) 97,87 %
13.10.2019 15:12 18,8 C 10,6 C 18,3 C 71 % 1016,3 hPa 0,0 l/m 10,9 km/h (2 Bft) O-SO 117 2 min 0,000 mm 1,5 UV-I 383 W/m 13,4 C 17,0 C 14,5 km/h (3 Bft) 96,00 %
13.10.2019 15:14 18,8 C 10,6 C 18,3 C 72 % 1016,3 hPa 0,0 l/m 11,5 km/h (2 Bft) O-NO 59 2 min 0,000 mm 1,4 UV-I 384 W/m 13,6 C 16,8 C 16,1 km/h (3 Bft) 97,87 %
13.10.2019 15:16 18,8 C 10,6 C 18,9 C 72 % 1016,3 hPa 0,0 l/m 9,1 km/h (2 Bft) O-SO 106 2 min 0,000 mm 1,4 UV-I 381 W/m 13,6 C 17,6 C 14,5 km/h (3 Bft) 97,87 %
13.10.2019 15:18 18,9 C 10,6 C 18,9 C 73 % 1016,3 hPa 0,0 l/m 6,4 km/h (2 Bft) O 88 2 min 0,000 mm 1,3 UV-I 350 W/m 13,9 C 18,9 C 11,3 km/h (2 Bft) 97,87 %
13.10.2019 15:20 18,9 C 10,6 C 18,9 C 72 % 1016,3 hPa 0,0 l/m 8,8 km/h (2 Bft) O 98 2 min 0,000 mm 1,4 UV-I 353 W/m 13,7 C 17,9 C 14,5 km/h (3 Bft) 95,74 %
13.10.2019 15:22 19,0 C 10,6 C 18,9 C 73 % 1016,3 hPa 0,0 l/m 7,4 km/h (2 Bft) O 84 2 min 0,000 mm 1,3 UV-I 358 W/m 14,0 C 18,6 C 11,3 km/h (2 Bft) 93,62 %
13.10.2019 15:24 19,0 C 10,6 C 18,9 C 71 % 1016,3 hPa 0,0 l/m 8,0 km/h (2 Bft) O-NO 66 2 min 0,000 mm 1,2 UV-I 325 W/m 13,6 C 18,3 C 14,5 km/h (3 Bft) 92,86 %
13.10.2019 15:26 18,9 C 10,6 C 18,9 C 71 % 1016,3 hPa 0,0 l/m 9,5 km/h (2 Bft) O-NO 65 2 min 0,000 mm 1,2 UV-I 323 W/m 13,5 C 17,6 C 14,5 km/h (3 Bft) 95,74 %
13.10.2019 15:28 18,9 C 10,6 C 18,3 C 70 % 1016,3 hPa 0,0 l/m 9,3 km/h (2 Bft) O-NO 71 2 min 0,000 mm 1,2 UV-I 329 W/m 13,3 C 17,7 C 12,9 km/h (3 Bft) 98,00 %
13.10.2019 15:30 18,9 C 10,6 C 18,3 C 71 % 1016,2 hPa 0,0 l/m 8,3 km/h (2 Bft) O 85 2 min 0,000 mm 1,2 UV-I 374 W/m 13,5 C 18,1 C 12,9 km/h (3 Bft) 97,87 %
13.10.2019 15:32 18,9 C 10,6 C 18,3 C 69 % 1016,2 hPa 0,0 l/m 11,1 km/h (2 Bft) O-NO 68 2 min 0,000 mm 1,2 UV-I 374 W/m 13,1 C 17,0 C 16,1 km/h (3 Bft) 95,74 %
13.10.2019 15:34 18,9 C 10,6 C 18,3 C 68 % 1016,2 hPa 0,0 l/m 10,6 km/h (2 Bft) O-NO 66 2 min 0,000 mm 1,2 UV-I 352 W/m 12,9 C 17,2 C 14,5 km/h (3 Bft) 98,00 %
13.10.2019 15:36 19,0 C 10,6 C 18,3 C 67 % 1016,2 hPa 0,0 l/m 11,7 km/h (2 Bft) O-NO 71 2 min 0,000 mm 1,2 UV-I 335 W/m 12,7 C 17,0 C 16,1 km/h (3 Bft) 97,87 %
13.10.2019 15:38 19,1 C 10,6 C 18,3 C 69 % 1016,1 hPa 0,0 l/m 10,8 km/h (2 Bft) O 83 2 min 0,000 mm 1,1 UV-I 329 W/m 13,3 C 17,4 C 14,5 km/h (3 Bft) 95,74 %
13.10.2019 15:40 19,1 C 10,6 C 18,3 C 69 % 1016,1 hPa 0,0 l/m 11,0 km/h (2 Bft) O-NO 70 2 min 0,000 mm 1,1 UV-I 281 W/m 13,3 C 17,3 C 16,1 km/h (3 Bft) 93,62 %
13.10.2019 15:42 19,1 C 10,6 C 18,3 C 71 % 1016,1 hPa 0,0 l/m 11,3 km/h (2 Bft) NO 49 2 min 0,000 mm 1,0 UV-I 249 W/m 13,7 C 17,2 C 16,1 km/h (3 Bft) 97,87 %
13.10.2019 15:44 19,0 C 10,6 C 18,3 C 71 % 1016,1 hPa 0,0 l/m 10,1 km/h (2 Bft) O-NO 76 2 min 0,000 mm 1,0 UV-I 240 W/m 13,6 C 17,5 C 16,1 km/h (3 Bft) 97,87 %
13.10.2019 15:46 18,9 C 10,6 C 18,3 C 71 % 1016,1 hPa 0,0 l/m 8,5 km/h (2 Bft) NO 56 2 min 0,000 mm 1,0 UV-I 271 W/m 13,5 C 18,0 C 14,5 km/h (3 Bft) 100,00 %
13.10.2019 15:48 18,9 C 10,6 C 18,3 C 70 % 1016,1 hPa 0,0 l/m 9,6 km/h (2 Bft) O-NO 68 2 min 0,000 mm 1,0 UV-I 297 W/m 13,3 C 17,6 C 14,5 km/h (3 Bft) 97,87 %
13.10.2019 15:50 18,9 C 10,6 C 18,3 C 69 % 1016,1 hPa 0,0 l/m 7,6 km/h (2 Bft) O-NO 69 2 min 0,000 mm 1,0 UV-I 304 W/m 13,1 C 18,4 C 12,9 km/h (3 Bft) 100,00 %
13.10.2019 15:52 18,9 C 10,6 C 18,3 C 70 % 1016,1 hPa 0,0 l/m 10,6 km/h (2 Bft) O-NO 74 2 min 0,000 mm 1,0 UV-I 308 W/m 13,3 C 17,2 C 17,7 km/h (3 Bft) 100,00 %
13.10.2019 15:54 18,9 C 10,6 C 18,3 C 71 % 1016,1 hPa 0,0 l/m 12,3 km/h (3 Bft) NO 35 2 min 0,000 mm 1,0 UV-I 314 W/m 13,5 C 16,7 C 17,7 km/h (3 Bft) 100,00 %
13.10.2019 15:56 18,9 C 10,6 C 18,3 C 73 % 1016,1 hPa 0,0 l/m 12,4 km/h (3 Bft) O-NO 74 2 min 0,000 mm 0,9 UV-I 315 W/m 13,9 C 16,6 C 16,1 km/h (3 Bft) 97,87 %
13.10.2019 15:58 18,9 C 10,6 C 18,3 C 71 % 1016,2 hPa 0,0 l/m 10,2 km/h (2 Bft) O-NO 65 2 min 0,000 mm 0,9 UV-I 311 W/m 13,5 C 17,4 C 16,1 km/h (3 Bft) 100,00 %
13.10.2019 16:00 18,9 C 10,6 C 18,3 C 70 % 1016,1 hPa 0,0 l/m 10,3 km/h (2 Bft) O-NO 62 2 min 0,229 mm 0,9 UV-I 295 W/m 13,3 C 17,3 C 14,5 km/h (3 Bft) 100,00 %
13.10.2019 16:02 18,9 C 10,6 C 17,8 C 70 % 1016,1 hPa 0,0 l/m 11,5 km/h (2 Bft) O 86 2 min 0,000 mm 0,9 UV-I 267 W/m 13,3 C 16,9 C 16,1 km/h (3 Bft) 100,00 %
13.10.2019 16:04 18,9 C 10,6 C 17,8 C 69 % 1016,0 hPa 0,0 l/m 9,0 km/h (2 Bft) NO 37 2 min 0,000 mm 0,8 UV-I 262 W/m 13,1 C 17,8 C 16,1 km/h (3 Bft) 100,00 %
13.10.2019 16:06 18,9 C 10,6 C 17,8 C 71 % 1016,0 hPa 0,0 l/m 11,5 km/h (2 Bft) O-NO 57 2 min 0,000 mm 0,8 UV-I 244 W/m 13,5 C 16,9 C 16,1 km/h (3 Bft) 97,87 %
13.10.2019 16:08 18,8 C 10,6 C 17,8 C 70 % 1016,0 hPa 0,0 l/m 10,6 km/h (2 Bft) NO 55 2 min 0,000 mm 0,8 UV-I 241 W/m 13,2 C 17,1 C 14,5 km/h (3 Bft) 100,00 %
13.10.2019 16:10 18,8 C 10,6 C 17,2 C 68 % 1015,9 hPa 0,0 l/m 13,8 km/h (3 Bft) NO 56 2 min 0,000 mm 0,7 UV-I 248 W/m 12,8 C 16,1 C 19,3 km/h (3 Bft) 100,00 %
13.10.2019 16:12 18,8 C 10,6 C 17,2 C 69 % 1015,9 hPa 0,0 l/m 13,8 km/h (3 Bft) O-NO 64 2 min 0,000 mm 0,7 UV-I 240 W/m 13,0 C 16,1 C 17,7 km/h (3 Bft) 100,00 %
13.10.2019 16:14 18,7 C 10,6 C 17,2 C 70 % 1015,8 hPa 0,0 l/m 10,7 km/h (2 Bft) NO 52 2 min 0,000 mm 0,7 UV-I 247 W/m 13,1 C 17,0 C 16,1 km/h (3 Bft) 95,74 %
13.10.2019 16:16 18,7 C 10,6 C 17,2 C 69 % 1015,8 hPa 0,0 l/m 10,6 km/h (2 Bft) O-NO 65 2 min 0,000 mm 0,7 UV-I 253 W/m 12,9 C 17,0 C 17,7 km/h (3 Bft) 95,74 %
13.10.2019 16:18 18,6 C 10,6 C 17,2 C 70 % 1015,8 hPa 0,0 l/m 9,0 km/h (2 Bft) N-NO 22 2 min 0,000 mm 0,7 UV-I 240 W/m 13,0 C 17,5 C 14,5 km/h (3 Bft) 100,00 %
13.10.2019 16:20 18,7 C 10,6 C 17,2 C 71 % 1015,8 hPa 0,0 l/m 9,8 km/h (2 Bft) O-NO 58 2 min 0,000 mm 0,6 UV-I 239 W/m 13,3 C 17,3 C 17,7 km/h (3 Bft) 100,00 %
13.10.2019 16:22 18,7 C 10,6 C 17,2 C 71 % 1015,9 hPa 0,0 l/m 9,5 km/h (2 Bft) O-NO 70 2 min 0,000 mm 0,6 UV-I 234 W/m 13,3 C 17,4 C 14,5 km/h (3 Bft) 100,00 %
13.10.2019 16:24 18,6 C 10,6 C 17,2 C 70 % 1015,8 hPa 0,0 l/m 11,7 km/h (2 Bft) NO 47 2 min 0,000 mm 0,6 UV-I 232 W/m 13,0 C 16,5 C 16,1 km/h (3 Bft) 100,00 %
13.10.2019 16:26 18,4 C 10,6 C 17,2 C 69 % 1015,8 hPa 0,0 l/m 13,1 km/h (3 Bft) NO 44 2 min 0,000 mm 0,6 UV-I 227 W/m 12,6 C 15,8 C 17,7 km/h (3 Bft) 96,00 %
13.10.2019 16:28 18,3 C 10,6 C 17,2 C 70 % 1015,8 hPa 0,0 l/m 9,9 km/h (2 Bft) O-NO 59 2 min 0,000 mm 0,6 UV-I 209 W/m 12,7 C 16,8 C 12,9 km/h (3 Bft) 97,87 %
13.10.2019 16:30 18,3 C 10,6 C 17,2 C 70 % 1015,8 hPa 0,0 l/m 10,0 km/h (2 Bft) NO 53 2 min 0,000 mm 0,6 UV-I 216 W/m 12,7 C 16,8 C 16,1 km/h (3 Bft) 95,74 %
13.10.2019 16:32 18,2 C 10,6 C 16,7 C 71 % 1015,8 hPa 0,0 l/m 11,6 km/h (2 Bft) O-NO 63 2 min 0,000 mm 0,5 UV-I 198 W/m 12,9 C 16,1 C 17,7 km/h (3 Bft) 100,00 %
13.10.2019 16:34 18,2 C 10,6 C 16,7 C 70 % 1015,8 hPa 0,0 l/m 10,6 km/h (2 Bft) O-NO 63 2 min 0,000 mm 0,5 UV-I 199 W/m 12,6 C 16,4 C 14,5 km/h (3 Bft) 100,00 %
13.10.2019 16:36 18,2 C 10,6 C 16,7 C 69 % 1015,8 hPa 0,0 l/m 8,9 km/h (2 Bft) O-NO 70 2 min 0,000 mm 0,5 UV-I 198 W/m 12,4 C 17,1 C 16,1 km/h (3 Bft) 95,74 %
13.10.2019 16:38 18,2 C 10,6 C 16,7 C 68 % 1015,9 hPa 0,0 l/m 11,6 km/h (2 Bft) O-NO 60 2 min 0,000 mm 0,5 UV-I 197 W/m 12,2 C 16,1 C 16,1 km/h (3 Bft) 100,00 %
13.10.2019 16:40 18,2 C 10,6 C 16,7 C 68 % 1015,9 hPa 0,0 l/m 9,8 km/h (2 Bft) O 97 2 min 0,000 mm 0,2 UV-I 152 W/m 12,2 C 16,7 C 16,1 km/h (3 Bft) 98,00 %
13.10.2019 16:42 18,2 C 10,6 C 16,7 C 68 % 1015,9 hPa 0,0 l/m 8,2 km/h (2 Bft) O 98 0 min 0,000 mm 0,0 UV-I 132 W/m 12,2 C 17,4 C 12,9 km/h (3 Bft) 100,00 %
13.10.2019 16:44 18,2 C 10,6 C 16,7 C 68 % 1016,0 hPa 0,0 l/m 10,3 km/h (2 Bft) O 92 0 min 0,000 mm 0,0 UV-I 110 W/m 12,2 C 16,5 C 14,5 km/h (3 Bft) 97,87 %
13.10.2019 16:46 18,1 C 10,6 C 16,1 C 66 % 1016,0 hPa 0,0 l/m 8,4 km/h (2 Bft) O 97 0 min 0,000 mm 0,0 UV-I 128 W/m 11,6 C 17,2 C 14,5 km/h (3 Bft) 97,87 %
13.10.2019 16:48 18,1 C 10,6 C 16,1 C 66 % 1015,9 hPa 0,0 l/m 8,2 km/h (2 Bft) O-NO 72 2 min 0,000 mm 0,0 UV-I 150 W/m 11,6 C 17,3 C 14,5 km/h (3 Bft) 95,74 %
13.10.2019 16:50 18,1 C 10,6 C 16,7 C 66 % 1015,9 hPa 0,0 l/m 12,6 km/h (3 Bft) O 83 2 min 0,000 mm 0,0 UV-I 170 W/m 11,6 C 15,6 C 16,1 km/h (3 Bft) 94,34 %
13.10.2019 16:52 18,0 C 10,6 C 16,1 C 67 % 1015,9 hPa 0,0 l/m 7,9 km/h (2 Bft) O-NO 71 2 min 0,000 mm 0,0 UV-I 165 W/m 11,8 C 17,3 C 12,9 km/h (3 Bft) 95,74 %
13.10.2019 16:54 17,9 C 10,6 C 16,1 C 67 % 1015,9 hPa 0,0 l/m 6,9 km/h (2 Bft) O-NO 71 2 min 0,000 mm 0,0 UV-I 153 W/m 11,7 C 17,7 C 11,3 km/h (2 Bft) 94,00 %
13.10.2019 16:56 17,9 C 10,6 C 16,1 C 67 % 1015,9 hPa 0,0 l/m 8,9 km/h (2 Bft) O-NO 75 2 min 0,000 mm 0,0 UV-I 153 W/m 11,7 C 16,8 C 14,5 km/h (3 Bft) 95,74 %
13.10.2019 16:58 17,9 C 10,6 C 16,1 C 68 % 1015,9 hPa 0,0 l/m 9,1 km/h (2 Bft) O-NO 76 2 min 0,000 mm 0,0 UV-I 150 W/m 11,9 C 16,7 C 12,9 km/h (3 Bft) 94,29 %
13.10.2019 17:00 17,9 C 10,6 C 16,1 C 68 % 1015,9 hPa 0,0 l/m 9,1 km/h (2 Bft) O-NO 67 2 min 0,152 mm 0,0 UV-I 130 W/m 11,9 C 16,7 C 12,9 km/h (3 Bft) 91,49 %
13.10.2019 17:02 17,8 C 10,6 C 16,1 C 68 % 1015,9 hPa 0,0 l/m 9,3 km/h (2 Bft) O-NO 67 0 min 0,000 mm 0,0 UV-I 107 W/m 11,8 C 16,5 C 12,9 km/h (3 Bft) 95,74 %
13.10.2019 17:04 17,8 C 10,6 C 16,1 C 68 % 1015,8 hPa 0,0 l/m 8,2 km/h (2 Bft) O 79 2 min 0,000 mm 0,0 UV-I 108 W/m 11,8 C 17,0 C 12,9 km/h (3 Bft) 95,74 %
13.10.2019 17:06 17,7 C 10,6 C 16,1 C 69 % 1015,8 hPa 0,0 l/m 8,2 km/h (2 Bft) NO 53 2 min 0,000 mm 0,0 UV-I 138 W/m 11,9 C 16,8 C 11,3 km/h (2 Bft) 93,62 %
13.10.2019 17:08 17,7 C 10,6 C 16,1 C 69 % 1015,9 hPa 0,0 l/m 6,8 km/h (2 Bft) O 88 2 min 0,000 mm 0,0 UV-I 130 W/m 11,9 C 17,5 C 14,5 km/h (3 Bft) 93,75 %
13.10.2019 17:10 17,7 C 10,6 C 16,1 C 69 % 1015,9 hPa 0,0 l/m 5,1 km/h (1 Bft) O-NO 71 2 min 0,000 mm 0,0 UV-I 128 W/m 11,9 C 17,7 C 8,0 km/h (2 Bft) 95,74 %
13.10.2019 17:12 17,7 C 10,6 C 16,1 C 69 % 1015,9 hPa 0,0 l/m 5,4 km/h (1 Bft) O-NO 71 2 min 0,000 mm 0,0 UV-I 125 W/m 11,9 C 17,7 C 9,7 km/h (2 Bft) 97,87 %
13.10.2019 17:14 17,7 C 10,6 C 16,1 C 69 % 1015,9 hPa 0,0 l/m 6,8 km/h (2 Bft) O-NO 66 2 min 0,000 mm 0,0 UV-I 120 W/m 11,9 C 17,5 C 11,3 km/h (2 Bft) 95,74 %
13.10.2019 17:16 17,7 C 10,6 C 15,6 C 70 % 1015,9 hPa 0,0 l/m 6,7 km/h (2 Bft) O-NO 78 2 min 0,000 mm 0,0 UV-I 117 W/m 12,2 C 17,6 C 12,9 km/h (3 Bft) 97,87 %
13.10.2019 17:18 17,6 C 10,6 C 15,6 C 70 % 1015,8 hPa 0,0 l/m 6,6 km/h (2 Bft) O 92 2 min 0,000 mm 0,0 UV-I 112 W/m 12,1 C 17,5 C 11,3 km/h (2 Bft) 97,87 %
13.10.2019 17:20 17,6 C 10,6 C 15,6 C 70 % 1015,8 hPa 0,0 l/m 8,5 km/h (2 Bft) O-NO 70 2 min 0,000 mm 0,0 UV-I 107 W/m 12,1 C 16,6 C 14,5 km/h (3 Bft) 100,00 %
13.10.2019 17:22 17,6 C 10,6 C 15,6 C 69 % 1015,8 hPa 0,0 l/m 10,3 km/h (2 Bft) O-NO 67 2 min 0,000 mm 0,0 UV-I 104 W/m 11,8 C 15,9 C 14,5 km/h (3 Bft) 100,00 %
13.10.2019 17:24 17,6 C 10,6 C 15,6 C 69 % 1015,9 hPa 0,0 l/m 8,3 km/h (2 Bft) O-SO 107 2 min 0,000 mm 0,0 UV-I 101 W/m 11,8 C 16,7 C 16,1 km/h (3 Bft) 95,74 %
13.10.2019 17:26 17,5 C 10,6 C 15,6 C 69 % 1015,9 hPa 0,0 l/m 9,9 km/h (2 Bft) O-SO 102 2 min 0,000 mm 0,0 UV-I 97 W/m 11,7 C 15,9 C 16,1 km/h (3 Bft) 100,00 %
13.10.2019 17:28 17,4 C 10,6 C 15,6 C 69 % 1015,8 hPa 0,0 l/m 8,8 km/h (2 Bft) O 94 2 min 0,000 mm 0,0 UV-I 92 W/m 11,7 C 16,3 C 12,9 km/h (3 Bft) 97,87 %
13.10.2019 17:30 17,4 C 10,6 C 15,6 C 69 % 1015,8 hPa 0,0 l/m 7,0 km/h (2 Bft) O-SO 105 2 min 0,000 mm 0,0 UV-I 88 W/m 11,7 C 17,1 C 14,5 km/h (3 Bft) 97,87 %
13.10.2019 17:32 17,4 C 10,6 C 15,6 C 69 % 1015,8 hPa 0,0 l/m 8,1 km/h (2 Bft) O-NO 66 2 min 0,000 mm 0,0 UV-I 82 W/m 11,7 C 16,6 C 12,9 km/h (3 Bft) 97,87 %
13.10.2019 17:34 17,3 C 10,6 C 15,0 C 70 % 1015,9 hPa 0,0 l/m 5,6 km/h (1 Bft) O 86 2 min 0,000 mm 0,0 UV-I 79 W/m 11,8 C 17,3 C 8,0 km/h (2 Bft) 97,87 %
13.10.2019 17:36 17,3 C 10,6 C 15,0 C 70 % 1015,9 hPa 0,0 l/m 5,1 km/h (1 Bft) O 96 2 min 0,000 mm 0,0 UV-I 74 W/m 11,8 C 17,3 C 9,7 km/h (2 Bft) 100,00 %
13.10.2019 17:38 17,2 C 10,6 C 15,0 C 70 % 1015,8 hPa 0,0 l/m 8,4 km/h (2 Bft) O 91 2 min 0,000 mm 0,0 UV-I 74 W/m 11,7 C 16,2 C 12,9 km/h (3 Bft) 100,00 %
13.10.2019 17:40 17,2 C 10,6 C 15,0 C 71 % 1015,8 hPa 0,0 l/m 7,9 km/h (2 Bft) O 84 2 min 0,000 mm 0,0 UV-I 70 W/m 11,9 C 16,5 C 11,3 km/h (2 Bft) 97,87 %
13.10.2019 17:42 17,1 C 10,6 C 15,0 C 71 % 1015,8 hPa 0,0 l/m 5,4 km/h (1 Bft) O-NO 70 2 min 0,000 mm 0,0 UV-I 68 W/m 11,8 C 17,1 C 6,4 km/h (2 Bft) 98,00 %
13.10.2019 17:44 17,1 C 10,6 C 14,4 C 71 % 1015,8 hPa 0,0 l/m 6,3 km/h (2 Bft) O 98 2 min 0,000 mm 0,0 UV-I 64 W/m 11,8 C 17,1 C 11,3 km/h (2 Bft) 100,00 %
13.10.2019 17:46 17,0 C 10,6 C 14,4 C 72 % 1015,8 hPa 0,0 l/m 6,1 km/h (2 Bft) O-SO 103 2 min 0,000 mm 0,0 UV-I 61 W/m 11,9 C 17,0 C 9,7 km/h (2 Bft) 100,00 %
13.10.2019 17:48 16,8 C 10,6 C 14,4 C 72 % 1015,8 hPa 0,0 l/m 4,7 km/h (1 Bft) O 84 2 min 0,000 mm 0,0 UV-I 57 W/m 11,7 C 16,8 C 9,7 km/h (2 Bft) 97,87 %
13.10.2019 17:50 16,8 C 10,6 C 14,4 C 72 % 1015,9 hPa 0,0 l/m 11,5 km/h (2 Bft) O 86 2 min 0,000 mm 0,0 UV-I 54 W/m 11,7 C 14,5 C 16,1 km/h (3 Bft) 100,00 %
13.10.2019 17:52 16,8 C 10,6 C 14,4 C 73 % 1015,9 hPa 0,0 l/m 6,8 km/h (2 Bft) NO 53 2 min 0,000 mm 0,0 UV-I 50 W/m 11,9 C 16,6 C 14,5 km/h (3 Bft) 100,00 %
13.10.2019 17:54 16,7 C 10,6 C 14,4 C 73 % 1015,9 hPa 0,0 l/m 10,0 km/h (2 Bft) O-SO 115 2 min 0,000 mm 0,0 UV-I 46 W/m 11,8 C 15,0 C 14,5 km/h (3 Bft) 100,00 %
13.10.2019 17:56 16,7 C 10,6 C 14,4 C 73 % 1015,9 hPa 0,0 l/m 11,7 km/h (2 Bft) O 95 2 min 0,000 mm 0,0 UV-I 44 W/m 11,8 C 14,3 C 17,7 km/h (3 Bft) 100,00 %
13.10.2019 17:58 16,7 C 10,6 C 14,4 C 73 % 1016,0 hPa 0,0 l/m 11,7 km/h (2 Bft) O 101 2 min 0,000 mm 0,0 UV-I 40 W/m 11,8 C 14,3 C 16,1 km/h (3 Bft) 100,00 %
13.10.2019 18:00 16,7 C 10,6 C 14,4 C 74 % 1016,1 hPa 0,0 l/m 14,1 km/h (3 Bft) O-SO 108 2 min 0,000 mm 0,0 UV-I 37 W/m 12,0 C 13,5 C 19,3 km/h (3 Bft) 100,00 %
13.10.2019 18:02 16,6 C 10,6 C 14,4 C 74 % 1016,1 hPa 0,0 l/m 11,7 km/h (2 Bft) O-SO 117 2 min 0,077 mm 0,0 UV-I 33 W/m 11,9 C 14,2 C 16,1 km/h (3 Bft) 97,87 %
13.10.2019 18:04 16,6 C 10,6 C 14,4 C 75 % 1016,0 hPa 0,0 l/m 9,2 km/h (2 Bft) O-SO 102 2 min 0,000 mm 0,0 UV-I 29 W/m 12,1 C 15,2 C 16,1 km/h (3 Bft) 100,00 %
13.10.2019 18:06 16,4 C 10,6 C 14,4 C 75 % 1016,1 hPa 0,0 l/m 10,6 km/h (2 Bft) O 96 2 min 0,000 mm 0,0 UV-I 26 W/m 12,0 C 14,4 C 16,1 km/h (3 Bft) 100,00 %
13.10.2019 18:08 16,3 C 10,6 C 14,4 C 75 % 1016,1 hPa 0,0 l/m 7,9 km/h (2 Bft) O-SO 114 2 min 0,000 mm 0,0 UV-I 24 W/m 11,9 C 15,5 C 17,7 km/h (3 Bft) 97,87 %
13.10.2019 18:10 16,3 C 10,6 C 14,4 C 76 % 1016,1 hPa 0,0 l/m 8,8 km/h (2 Bft) O 100 0 min 0,000 mm 0,0 UV-I 13 W/m 12,1 C 15,1 C 14,5 km/h (3 Bft) 97,87 %
13.10.2019 18:12 16,2 C 10,6 C 13,9 C 76 % 1016,1 hPa 0,0 l/m 10,2 km/h (2 Bft) SO 124 0 min 0,000 mm 0,0 UV-I 17 W/m 12,0 C 14,4 C 16,1 km/h (3 Bft) 100,00 %
13.10.2019 18:14 16,1 C 10,6 C 13,9 C 77 % 1016,1 hPa 0,0 l/m 10,1 km/h (2 Bft) O-SO 104 0 min 0,000 mm 0,0 UV-I 15 W/m 12,1 C 14,3 C 16,1 km/h (3 Bft) 100,00 %
13.10.2019 18:16 16,0 C 10,6 C 13,9 C 77 % 1016,2 hPa 0,0 l/m 14,1 km/h (3 Bft) O-SO 120 0 min 0,000 mm 0,0 UV-I 12 W/m 12,0 C 12,7 C 17,7 km/h (3 Bft) 96,00 %
13.10.2019 18:18 15,9 C 10,6 C 13,9 C 78 % 1016,2 hPa 0,0 l/m 8,1 km/h (2 Bft) O 95 0 min 0,000 mm 0,0 UV-I 11 W/m 12,1 C 15,0 C 14,5 km/h (3 Bft) 94,74 %
13.10.2019 18:20 15,9 C 10,6 C 13,9 C 78 % 1016,2 hPa 0,0 l/m 11,0 km/h (2 Bft) O-SO 106 0 min 0,000 mm 0,0 UV-I 11 W/m 12,1 C 13,7 C 14,5 km/h (3 Bft) 98,00 %
13.10.2019 18:22 15,8 C 10,6 C 13,9 C 78 % 1016,2 hPa 0,0 l/m 12,0 km/h (2 Bft) O 100 0 min 0,000 mm 0,0 UV-I 9 W/m 12,0 C 13,2 C 19,3 km/h (3 Bft) 97,87 %
13.10.2019 18:24 15,8 C 10,6 C 13,9 C 79 % 1016,1 hPa 0,0 l/m 10,3 km/h (2 Bft) O-SO 115 0 min 0,000 mm 0,0 UV-I 9 W/m 12,2 C 13,9 C 16,1 km/h (3 Bft) 97,87 %
13.10.2019 18:26 15,7 C 10,6 C 13,9 C 79 % 1016,2 hPa 0,0 l/m 6,8 km/h (2 Bft) O-SO 121 0 min 0,000 mm 0,0 UV-I 7 W/m 12,1 C 15,5 C 11,3 km/h (2 Bft) 95,83 %
13.10.2019 18:28 15,6 C 10,6 C 13,3 C 79 % 1016,2 hPa 0,0 l/m 7,9 km/h (2 Bft) O 88 0 min 0,000 mm 0,0 UV-I 7 W/m 12,0 C 14,8 C 12,9 km/h (3 Bft) 95,92 %
13.10.2019 18:30 15,6 C 10,6 C 13,9 C 80 % 1016,2 hPa 0,0 l/m 14,0 km/h (3 Bft) O-SO 117 0 min 0,000 mm 0,0 UV-I 7 W/m 12,2 C 12,2 C 19,3 km/h (3 Bft) 96,00 %
13.10.2019 18:32 15,5 C 10,6 C 13,9 C 80 % 1016,2 hPa 0,0 l/m 10,2 km/h (2 Bft) O-SO 118 0 min 0,000 mm 0,0 UV-I 5 W/m 12,1 C 13,6 C 16,1 km/h (3 Bft) 97,44 %
13.10.2019 18:34 15,4 C 10,6 C 13,3 C 80 % 1016,3 hPa 0,0 l/m 9,5 km/h (2 Bft) SO 132 0 min 0,000 mm 0,0 UV-I 5 W/m 12,0 C 13,8 C 17,7 km/h (3 Bft) 96,00 %
13.10.2019 18:36 15,4 C 10,6 C 13,3 C 80 % 1016,3 hPa 0,0 l/m 15,0 km/h (3 Bft) O-SO 107 0 min 0,000 mm 0,0 UV-I 5 W/m 12,0 C 11,7 C 20,9 km/h (4 Bft) 93,62 %
13.10.2019 18:38 15,3 C 10,6 C 13,3 C 80 % 1016,3 hPa 0,0 l/m 12,8 km/h (3 Bft) O-NO 64 0 min 0,000 mm 0,0 UV-I 3 W/m 11,9 C 12,3 C 22,5 km/h (4 Bft) 97,87 %
13.10.2019 18:40 15,3 C 10,6 C 13,3 C 80 % 1016,3 hPa 0,0 l/m 16,9 km/h (3 Bft) O 80 0 min 0,000 mm 0,0 UV-I 0 W/m 11,9 C 11,0 C 25,7 km/h (4 Bft) 97,87 %
13.10.2019 18:42 15,3 C 10,6 C 13,3 C 80 % 1016,3 hPa 0,0 l/m 15,8 km/h (3 Bft) O 94 0 min 0,000 mm 0,0 UV-I 0 W/m 11,9 C 11,3 C 20,9 km/h (4 Bft) 95,74 %
13.10.2019 18:44 15,2 C 10,6 C 13,3 C 81 % 1016,3 hPa 0,0 l/m 13,0 km/h (3 Bft) O 91 0 min 0,000 mm 0,0 UV-I 0 W/m 12,0 C 12,1 C 20,9 km/h (4 Bft) 95,74 %
13.10.2019 18:46 15,2 C 10,6 C 13,3 C 81 % 1016,2 hPa 0,0 l/m 13,1 km/h (3 Bft) O-SO 111 0 min 0,000 mm 0,0 UV-I 0 W/m 12,0 C 12,1 C 17,7 km/h (3 Bft) 97,87 %
13.10.2019 18:48 15,1 C 10,6 C 13,3 C 81 % 1016,3 hPa 0,0 l/m 12,1 km/h (2 Bft) O 98 0 min 0,000 mm 0,0 UV-I 0 W/m 11,9 C 12,3 C 19,3 km/h (3 Bft) 97,87 %
13.10.2019 18:50 15,1 C 10,6 C 13,3 C 81 % 1016,3 hPa 0,0 l/m 13,7 km/h (3 Bft) O-SO 119 0 min 0,000 mm 0,0 UV-I 0 W/m 11,9 C 11,8 C 20,9 km/h (4 Bft) 93,62 %
13.10.2019 18:52 15,0 C 10,6 C 12,8 C 81 % 1016,4 hPa 0,0 l/m 9,5 km/h (2 Bft) O 101 0 min 0,000 mm 0,0 UV-I 0 W/m 11,8 C 13,3 C 17,7 km/h (3 Bft) 89,36 %
13.10.2019 18:54 14,9 C 10,6 C 13,3 C 81 % 1016,4 hPa 0,0 l/m 11,0 km/h (2 Bft) O-SO 104 0 min 0,000 mm 0,0 UV-I 0 W/m 11,7 C 12,6 C 17,7 km/h (3 Bft) 96,00 %
13.10.2019 18:56 14,8 C 10,6 C 12,8 C 82 % 1016,4 hPa 0,0 l/m 11,4 km/h (2 Bft) O-NO 74 0 min 0,000 mm 0,0 UV-I 0 W/m 11,8 C 12,3 C 19,3 km/h (3 Bft) 95,74 %
13.10.2019 18:58 14,8 C 10,6 C 12,8 C 82 % 1016,4 hPa 0,0 l/m 10,6 km/h (2 Bft) O-SO 115 0 min 0,000 mm 0,0 UV-I 0 W/m 11,8 C 12,6 C 17,7 km/h (3 Bft) 91,49 %
13.10.2019 19:00 14,7 C 10,6 C 12,8 C 82 % 1016,4 hPa 0,0 l/m 10,7 km/h (2 Bft) O-NO 67 0 min 0,025 mm 0,0 UV-I 0 W/m 11,7 C 12,5 C 14,5 km/h (3 Bft) 94,74 %
13.10.2019 19:02 14,7 C 10,6 C 12,8 C 82 % 1016,4 hPa 0,0 l/m 13,7 km/h (3 Bft) O 94 0 min 0,000 mm 0,0 UV-I 0 W/m 11,7 C 11,3 C 19,3 km/h (3 Bft) 95,74 %
13.10.2019 19:04 14,6 C 10,6 C 12,8 C 82 % 1016,4 hPa 0,0 l/m 12,0 km/h (2 Bft) O 86 0 min 0,000 mm 0,0 UV-I 0 W/m 11,6 C 11,8 C 17,7 km/h (3 Bft) 93,75 %
13.10.2019 19:06 14,6 C 10,6 C 12,8 C 83 % 1016,4 hPa 0,0 l/m 12,2 km/h (2 Bft) O 79 0 min 0,000 mm 0,0 UV-I 0 W/m 11,7 C 11,7 C 19,3 km/h (3 Bft) 95,74 %
13.10.2019 19:08 14,6 C 10,6 C 12,8 C 83 % 1016,5 hPa 0,0 l/m 12,6 km/h (3 Bft) O-SO 121 0 min 0,000 mm 0,0 UV-I 0 W/m 11,7 C 11,6 C 17,7 km/h (3 Bft) 93,62 %
13.10.2019 19:10 14,5 C 10,6 C 12,8 C 83 % 1016,6 hPa 0,0 l/m 8,2 km/h (2 Bft) O 98 0 min 0,000 mm 0,0 UV-I 0 W/m 11,6 C 13,5 C 12,9 km/h (3 Bft) 97,14 %
13.10.2019 19:12 14,5 C 10,6 C 12,8 C 83 % 1016,6 hPa 0,0 l/m 7,9 km/h (2 Bft) O 99 0 min 0,000 mm 0,0 UV-I 0 W/m 11,6 C 13,6 C 12,9 km/h (3 Bft) 95,16 %
13.10.2019 19:14 14,4 C 10,6 C 12,2 C 83 % 1016,6 hPa 0,0 l/m 3,6 km/h (1 Bft) O 94 0 min 0,000 mm 0,0 UV-I 0 W/m 11,5 C 14,4 C 6,4 km/h (2 Bft) 92,00 %
13.10.2019 19:16 14,3 C 10,6 C 12,2 C 83 % 1016,6 hPa 0,0 l/m 5,3 km/h (1 Bft) O-SO 116 0 min 0,000 mm 0,0 UV-I 0 W/m 11,5 C 14,3 C 11,3 km/h (2 Bft) 95,74 %
13.10.2019 19:18 14,3 C 10,6 C 12,2 C 84 % 1016,6 hPa 0,0 l/m 5,1 km/h (1 Bft) O-NO 77 0 min 0,000 mm 0,0 UV-I 0 W/m 11,6 C 14,3 C 11,3 km/h (2 Bft) 95,74 %
13.10.2019 19:20 14,2 C 10,6 C 12,2 C 84 % 1016,6 hPa 0,0 l/m 5,2 km/h (1 Bft) O-SO 112 0 min 0,000 mm 0,0 UV-I 0 W/m 11,5 C 14,2 C 12,9 km/h (3 Bft) 95,74 %
13.10.2019 19:22 14,2 C 10,6 C 12,2 C 84 % 1016,7 hPa 0,0 l/m 6,8 km/h (2 Bft) O 90 0 min 0,000 mm 0,0 UV-I 0 W/m 11,5 C 14,0 C 14,5 km/h (3 Bft) 95,74 %
13.10.2019 19:24 14,2 C 10,6 C 12,2 C 84 % 1016,8 hPa 0,0 l/m 10,3 km/h (2 Bft) O-NO 78 0 min 0,000 mm 0,0 UV-I 0 W/m 11,5 C 12,1 C 16,1 km/h (3 Bft) 95,74 %
13.10.2019 19:26 14,2 C 10,6 C 12,2 C 84 % 1016,8 hPa 0,0 l/m 12,1 km/h (2 Bft) O 97 0 min 0,000 mm 0,0 UV-I 0 W/m 11,5 C 11,3 C 17,7 km/h (3 Bft) 97,87 %
13.10.2019 19:28 14,2 C 10,6 C 12,8 C 85 % 1016,8 hPa 0,0 l/m 9,2 km/h (2 Bft) O 93 0 min 0,000 mm 0,0 UV-I 0 W/m 11,7 C 12,6 C 14,5 km/h (3 Bft) 92,11 %
13.10.2019 19:30 14,2 C 10,6 C 12,2 C 85 % 1016,9 hPa 0,0 l/m 8,1 km/h (2 Bft) O-SO 105 0 min 0,000 mm 0,0 UV-I 0 W/m 11,7 C 13,2 C 14,5 km/h (3 Bft) 95,74 %
13.10.2019 19:32 14,1 C 10,6 C 12,2 C 85 % 1016,9 hPa 0,0 l/m 6,3 km/h (2 Bft) O-NO 72 0 min 0,000 mm 0,0 UV-I 0 W/m 11,6 C 14,1 C 9,7 km/h (2 Bft) 97,87 %
13.10.2019 19:34 14,1 C 10,6 C 12,2 C 85 % 1016,9 hPa 0,0 l/m 9,3 km/h (2 Bft) O 88 0 min 0,000 mm 0,0 UV-I 0 W/m 11,6 C 12,5 C 16,1 km/h (3 Bft) 97,87 %
13.10.2019 19:36 14,1 C 10,6 C 12,2 C 85 % 1016,9 hPa 0,0 l/m 6,9 km/h (2 Bft) O-SO 121 0 min 0,000 mm 0,0 UV-I 0 W/m 11,6 C 13,8 C 11,3 km/h (2 Bft) 97,87 %
13.10.2019 19:38 13,9 C 10,6 C 11,7 C 86 % 1016,9 hPa 0,0 l/m 7,2 km/h (2 Bft) O-SO 119 0 min 0,000 mm 0,0 UV-I 0 W/m 11,6 C 13,4 C 11,3 km/h (2 Bft) 97,87 %
13.10.2019 19:40 13,9 C 10,6 C 11,7 C 86 % 1017,0 hPa 0,0 l/m 7,9 km/h (2 Bft) O-SO 113 0 min 0,000 mm 0,0 UV-I 0 W/m 11,6 C 13,0 C 12,9 km/h (3 Bft) 94,34 %
13.10.2019 19:42 13,8 C 10,6 C 11,7 C 86 % 1016,9 hPa 0,0 l/m 6,0 km/h (2 Bft) O 93 0 min 0,000 mm 0,0 UV-I 0 W/m 11,5 C 13,8 C 12,9 km/h (3 Bft) 95,74 %
13.10.2019 19:44 13,8 C 10,6 C 11,7 C 86 % 1016,9 hPa 0,0 l/m 6,3 km/h (2 Bft) O 96 0 min 0,000 mm 0,0 UV-I 0 W/m 11,5 C 13,8 C 9,7 km/h (2 Bft) 93,62 %
13.10.2019 19:46 13,7 C 10,6 C 11,7 C 86 % 1016,9 hPa 0,0 l/m 5,1 km/h (1 Bft) O-SO 102 0 min 0,000 mm 0,0 UV-I 0 W/m 11,4 C 13,7 C 8,0 km/h (2 Bft) 95,83 %
13.10.2019 19:48 13,6 C 10,6 C 11,7 C 87 % 1016,8 hPa 0,0 l/m 5,6 km/h (1 Bft) O-SO 107 0 min 0,000 mm 0,0 UV-I 0 W/m 11,5 C 13,6 C 9,7 km/h (2 Bft) 97,87 %
13.10.2019 19:50 13,6 C 10,6 C 11,7 C 87 % 1016,8 hPa 0,0 l/m 6,2 km/h (2 Bft) O 94 0 min 0,000 mm 0,0 UV-I 0 W/m 11,5 C 13,6 C 9,7 km/h (2 Bft) 97,87 %
13.10.2019 19:52 13,6 C 10,6 C 11,7 C 87 % 1016,8 hPa 0,0 l/m 6,7 km/h (2 Bft) O-SO 113 0 min 0,000 mm 0,0 UV-I 0 W/m 11,5 C 13,4 C 11,3 km/h (2 Bft) 95,74 %
13.10.2019 19:54 13,5 C 10,6 C 11,7 C 87 % 1016,8 hPa 0,0 l/m 8,3 km/h (2 Bft) O-SO 106 0 min 0,000 mm 0,0 UV-I 0 W/m 11,4 C 12,4 C 11,3 km/h (2 Bft) 97,37 %
13.10.2019 19:56 13,5 C 10,6 C 11,1 C 87 % 1016,8 hPa 0,0 l/m 7,1 km/h (2 Bft) O 88 0 min 0,000 mm 0,0 UV-I 0 W/m 11,4 C 13,1 C 14,5 km/h (3 Bft) 95,74 %
13.10.2019 19:59 13,4 C 10,6 C 11,7 C 88 % 1016,9 hPa 0,0 l/m 7,2 km/h (2 Bft) O 98 0 min 0,000 mm 0,0 UV-I 0 W/m 11,5 C 12,9 C 11,3 km/h (2 Bft) 95,77 %
13.10.2019 20:00 13,4 C 10,6 C 11,7 C 88 % 1016,9 hPa 0,0 l/m 8,1 km/h (2 Bft) O-SO 107 0 min 0,000 mm 0,0 UV-I 0 W/m 11,5 C 12,4 C 12,9 km/h (3 Bft) 92,31 %
13.10.2019 20:02 13,4 C 10,6 C 11,7 C 88 % 1016,8 hPa 0,0 l/m 10,0 km/h (2 Bft) O 88 0 min 0,025 mm 0,0 UV-I 0 W/m 11,5 C 11,4 C 14,5 km/h (3 Bft) 100,00 %
13.10.2019 20:04 13,4 C 10,6 C 11,7 C 88 % 1016,9 hPa 0,0 l/m 8,6 km/h (2 Bft) O-SO 108 0 min 0,000 mm 0,0 UV-I 0 W/m 11,5 C 12,1 C 11,3 km/h (2 Bft) 100,00 %
13.10.2019 20:06 13,4 C 10,6 C 11,7 C 88 % 1016,9 hPa 0,0 l/m 10,0 km/h (2 Bft) O-SO 106 0 min 0,000 mm 0,0 UV-I 0 W/m 11,5 C 11,4 C 14,5 km/h (3 Bft) 97,87 %
13.10.2019 20:08 13,3 C 10,6 C 11,7 C 88 % 1017,0 hPa 0,0 l/m 4,6 km/h (1 Bft) SO 141 0 min 0,000 mm 0,0 UV-I 0 W/m 11,4 C 13,3 C 9,7 km/h (2 Bft) 97,87 %
13.10.2019 20:10 13,3 C 10,6 C 11,7 C 89 % 1017,0 hPa 0,0 l/m 7,3 km/h (2 Bft) O-SO 111 0 min 0,000 mm 0,0 UV-I 0 W/m 11,5 C 12,7 C 11,3 km/h (2 Bft) 97,87 %
13.10.2019 20:12 13,3 C 10,6 C 11,7 C 89 % 1017,0 hPa 0,0 l/m 3,6 km/h (1 Bft) O-SO 121 0 min 0,000 mm 0,0 UV-I 0 W/m 11,5 C 13,3 C 9,7 km/h (2 Bft) 97,87 %
13.10.2019 20:14 13,3 C 10,6 C 11,1 C 89 % 1017,0 hPa 0,0 l/m 5,3 km/h (1 Bft) O-SO 103 0 min 0,000 mm 0,0 UV-I 0 W/m 11,5 C 13,3 C 9,7 km/h (2 Bft) 100,00 %
13.10.2019 20:16 13,2 C 10,6 C 11,1 C 89 % 1017,0 hPa 0,0 l/m 6,1 km/h (2 Bft) O 100 0 min 0,000 mm 0,0 UV-I 0 W/m 11,4 C 13,2 C 11,3 km/h (2 Bft) 97,87 %
13.10.2019 20:18 13,2 C 10,6 C 11,1 C 89 % 1017,0 hPa 0,0 l/m 6,2 km/h (2 Bft) O 99 0 min 0,000 mm 0,0 UV-I 0 W/m 11,4 C 13,2 C 11,3 km/h (2 Bft) 100,00 %
13.10.2019 20:20 13,2 C 10,6 C 11,1 C 89 % 1017,0 hPa 0,0 l/m 4,9 km/h (1 Bft) O 80 0 min 0,000 mm 0,0 UV-I 0 W/m 11,4 C 13,2 C 9,7 km/h (2 Bft) 100,00 %
13.10.2019 20:22 13,1 C 10,6 C 11,1 C 89 % 1017,1 hPa 0,0 l/m 4,0 km/h (1 Bft) O 100 0 min 0,000 mm 0,0 UV-I 0 W/m 11,3 C 13,1 C 6,4 km/h (2 Bft) 100,00 %
13.10.2019 20:24 13,1 C 10,6 C 11,1 C 90 % 1017,1 hPa 0,0 l/m 3,7 km/h (1 Bft) O 84 0 min 0,000 mm 0,0 UV-I 0 W/m 11,5 C 13,1 C 4,8 km/h (1 Bft) 95,74 %
13.10.2019 20:26 13,0 C 10,6 C 11,1 C 89 % 1017,2 hPa 0,0 l/m 3,4 km/h (1 Bft) O 80 0 min 0,000 mm 0,0 UV-I 0 W/m 11,2 C 13,0 C 6,4 km/h (2 Bft) 100,00 %
13.10.2019 20:28 12,8 C 10,6 C 10,6 C 89 % 1017,2 hPa 0,0 l/m 3,5 km/h (1 Bft) O 79 0 min 0,000 mm 0,0 UV-I 0 W/m 11,0 C 12,8 C 6,4 km/h (2 Bft) 98,00 %
13.10.2019 20:30 12,6 C 10,6 C 10,0 C 89 % 1017,2 hPa 0,0 l/m 3,0 km/h (1 Bft) O 79 0 min 0,000 mm 0,0 UV-I 0 W/m 10,8 C 12,6 C 4,8 km/h (1 Bft) 100,00 %
13.10.2019 20:32 12,4 C 10,6 C 10,0 C 90 % 1017,2 hPa 0,0 l/m 1,9 km/h (1 Bft) O 79 0 min 0,000 mm 0,0 UV-I 0 W/m 10,8 C 12,4 C 3,2 km/h (1 Bft) 100,00 %
13.10.2019 20:34 12,4 C 10,6 C 10,0 C 90 % 1017,2 hPa 0,0 l/m 1,8 km/h (1 Bft) O 80 0 min 0,000 mm 0,0 UV-I 0 W/m 10,8 C 12,4 C 3,2 km/h (1 Bft) 100,00 %
13.10.2019 20:36 12,3 C 10,6 C 9,4 C 90 % 1017,2 hPa 0,0 l/m 3,2 km/h (1 Bft) O 79 0 min 0,000 mm 0,0 UV-I 0 W/m 10,7 C 12,3 C 4,8 km/h (1 Bft) 97,87 %
13.10.2019 20:38 12,2 C 10,6 C 9,4 C 91 % 1017,1 hPa 0,0 l/m 4,1 km/h (1 Bft) O 90 0 min 0,000 mm 0,0 UV-I 0 W/m 10,8 C 12,2 C 6,4 km/h (2 Bft) 97,87 %
13.10.2019 20:40 12,2 C 10,6 C 8,9 C 91 % 1017,1 hPa 0,0 l/m 4,6 km/h (1 Bft) O 86 0 min 0,000 mm 0,0 UV-I 0 W/m 10,8 C 12,2 C 6,4 km/h (2 Bft) 100,00 %
13.10.2019 20:42 12,3 C 10,6 C 9,4 C 92 % 1017,1 hPa 0,0 l/m 5,1 km/h (1 Bft) O-NO 71 0 min 0,000 mm 0,0 UV-I 0 W/m 11,0 C 12,3 C 6,4 km/h (2 Bft) 100,00 %
13.10.2019 20:44 12,3 C 10,6 C 10,0 C 92 % 1017,0 hPa 0,0 l/m 4,6 km/h (1 Bft) O-NO 57 0 min 0,000 mm 0,0 UV-I 0 W/m 11,0 C 12,3 C 6,4 km/h (2 Bft) 100,00 %
13.10.2019 20:46 12,3 C 10,6 C 10,0 C 92 % 1017,0 hPa 0,0 l/m 5,2 km/h (1 Bft) O-NO 75 0 min 0,000 mm 0,0 UV-I 0 W/m 11,0 C 12,3 C 8,0 km/h (2 Bft) 100,00 %
13.10.2019 20:48 12,3 C 10,6 C 10,0 C 92 % 1017,0 hPa 0,0 l/m 4,8 km/h (1 Bft) O 83 0 min 0,000 mm 0,0 UV-I 0 W/m 11,0 C 12,3 C 8,0 km/h (2 Bft) 100,00 %
13.10.2019 20:50 12,3 C 10,6 C 10,6 C 92 % 1017,1 hPa 0,0 l/m 3,5 km/h (1 Bft) O 93 0 min 0,000 mm 0,0 UV-I 0 W/m 11,0 C 12,3 C 4,8 km/h (1 Bft) 100,00 %
13.10.2019 20:52 12,3 C 10,6 C 10,0 C 92 % 1017,0 hPa 0,0 l/m 5,4 km/h (1 Bft) O-SO 107 0 min 0,000 mm 0,0 UV-I 0 W/m 11,0 C 12,3 C 9,7 km/h (2 Bft) 97,87 %
13.10.2019 20:54 12,3 C 10,6 C 10,0 C 92 % 1017,1 hPa 0,0 l/m 4,3 km/h (1 Bft) O 98 0 min 0,000 mm 0,0 UV-I 0 W/m 11,0 C 12,3 C 6,4 km/h (2 Bft) 93,62 %
13.10.2019 20:56 12,3 C 10,6 C 10,6 C 92 % 1017,1 hPa 0,0 l/m 5,2 km/h (1 Bft) O-SO 103 0 min 0,000 mm 0,0 UV-I 0 W/m 11,0 C 12,3 C 11,3 km/h (2 Bft) 95,74 %
13.10.2019 20:58 12,3 C 10,6 C 10,6 C 92 % 1017,1 hPa 0,0 l/m 3,4 km/h (1 Bft) O 82 0 min 0,000 mm 0,0 UV-I 0 W/m 11,0 C 12,3 C 4,8 km/h (1 Bft) 95,83 %
13.10.2019 21:00 12,3 C 10,6 C 10,6 C 92 % 1017,1 hPa 0,0 l/m 4,7 km/h (1 Bft) O 85 0 min 0,000 mm 0,0 UV-I 0 W/m 11,0 C 12,3 C 6,4 km/h (2 Bft) 95,74 %
13.10.2019 21:02 12,3 C 10,6 C 10,6 C 92 % 1017,1 hPa 0,0 l/m 4,9 km/h (1 Bft) O 80 0 min 0,000 mm 0,0 UV-I 0 W/m 11,0 C 12,3 C 8,0 km/h (2 Bft) 95,74 %
13.10.2019 21:04 12,3 C 10,6 C 10,6 C 92 % 1017,1 hPa 0,0 l/m 4,7 km/h (1 Bft) O 80 0 min 0,000 mm 0,0 UV-I 0 W/m 11,0 C 12,3 C 6,4 km/h (2 Bft) 95,74 %
13.10.2019 21:06 12,3 C 10,6 C 10,0 C 92 % 1017,1 hPa 0,0 l/m 4,2 km/h (1 Bft) O-NO 74 0 min 0,000 mm 0,0 UV-I 0 W/m 11,0 C 12,3 C 6,4 km/h (2 Bft) 94,00 %
13.10.2019 21:08 12,3 C 10,6 C 10,0 C 92 % 1017,1 hPa 0,0 l/m 4,2 km/h (1 Bft) O-NO 78 0 min 0,000 mm 0,0 UV-I 0 W/m 11,0 C 12,3 C 4,8 km/h (1 Bft) 92,00 %
13.10.2019 21:10 12,2 C 10,6 C 10,0 C 92 % 1017,1 hPa 0,0 l/m 4,2 km/h (1 Bft) O 98 0 min 0,000 mm 0,0 UV-I 0 W/m 10,9 C 12,2 C 6,4 km/h (2 Bft) 95,74 %
13.10.2019 21:12 12,2 C 10,6 C 10,0 C 92 % 1017,2 hPa 0,0 l/m 3,7 km/h (1 Bft) O 98 0 min 0,000 mm 0,0 UV-I 0 W/m 10,9 C 12,2 C 4,8 km/h (1 Bft) 93,62 %
13.10.2019 21:14 12,1 C 10,6 C 10,0 C 92 % 1017,2 hPa 0,0 l/m 2,9 km/h (1 Bft) O 98 0 min 0,000 mm 0,0 UV-I 0 W/m 10,8 C 12,1 C 4,8 km/h (1 Bft) 95,74 %
13.10.2019 21:16 12,1 C 10,6 C 9,4 C 92 % 1017,3 hPa 0,0 l/m 2,4 km/h (1 Bft) O 98 0 min 0,000 mm 0,0 UV-I 0 W/m 10,8 C 12,1 C 3,2 km/h (1 Bft) 95,74 %
13.10.2019 21:18 12,0 C 10,6 C 9,4 C 92 % 1017,2 hPa 0,0 l/m 4,1 km/h (1 Bft) O-NO 72 0 min 0,000 mm 0,0 UV-I 0 W/m 10,7 C 12,0 C 6,4 km/h (2 Bft) 94,74 %
13.10.2019 21:20 12,0 C 10,6 C 9,4 C 92 % 1017,2 hPa 0,0 l/m 4,4 km/h (1 Bft) O-NO 76 0 min 0,000 mm 0,0 UV-I 0 W/m 10,7 C 12,0 C 6,4 km/h (2 Bft) 91,49 %
13.10.2019 21:22 12,0 C 10,6 C 9,4 C 92 % 1017,3 hPa 0,0 l/m 3,2 km/h (1 Bft) O-NO 75 0 min 0,000 mm 0,0 UV-I 0 W/m 10,7 C 12,0 C 4,8 km/h (1 Bft) 96,00 %
13.10.2019 21:24 11,9 C 10,6 C 9,4 C 92 % 1017,2 hPa 0,0 l/m 3,2 km/h (1 Bft) O-NO 76 0 min 0,000 mm 0,0 UV-I 0 W/m 10,6 C 11,9 C 4,8 km/h (1 Bft) 95,74 %
13.10.2019 21:26 11,8 C 10,6 C 9,4 C 92 % 1017,3 hPa 0,0 l/m 3,4 km/h (1 Bft) O-NO 75 0 min 0,000 mm 0,0 UV-I 0 W/m 10,5 C 11,8 C 4,8 km/h (1 Bft) 100,00 %
13.10.2019 21:28 11,7 C 10,6 C 8,9 C 92 % 1017,3 hPa 0,0 l/m 3,8 km/h (1 Bft) O-NO 75 0 min 0,000 mm 0,0 UV-I 0 W/m 10,4 C 11,7 C 4,8 km/h (1 Bft) 100,00 %
13.10.2019 21:30 11,7 C 10,6 C 8,9 C 93 % 1017,3 hPa 0,0 l/m 2,8 km/h (1 Bft) O-NO 75 0 min 0,000 mm 0,0 UV-I 0 W/m 10,6 C 11,7 C 4,8 km/h (1 Bft) 93,62 %
13.10.2019 21:32 11,7 C 10,6 C 8,9 C 93 % 1017,3 hPa 0,0 l/m 3,1 km/h (1 Bft) O-NO 75 0 min 0,000 mm 0,0 UV-I 0 W/m 10,6 C 11,7 C 4,8 km/h (1 Bft) 100,00 %
13.10.2019 21:34 11,6 C 10,6 C 8,3 C 93 % 1017,3 hPa 0,0 l/m 3,5 km/h (1 Bft) O-NO 75 0 min 0,000 mm 0,0 UV-I 0 W/m 10,5 C 11,6 C 4,8 km/h (1 Bft) 97,87 %
13.10.2019 21:36 11,6 C 10,6 C 8,3 C 93 % 1017,3 hPa 0,0 l/m 3,2 km/h (1 Bft) O-NO 75 0 min 0,000 mm 0,0 UV-I 0 W/m 10,5 C 11,6 C 4,8 km/h (1 Bft) 98,00 %
13.10.2019 21:38 11,6 C 10,6 C 8,3 C 93 % 1017,3 hPa 0,0 l/m 3,2 km/h (1 Bft) O-NO 75 0 min 0,000 mm 0,0 UV-I 0 W/m 10,5 C 11,6 C 4,8 km/h (1 Bft) 100,00 %
13.10.2019 21:40 11,6 C 10,6 C 8,3 C 93 % 1017,3 hPa 0,0 l/m 3,3 km/h (1 Bft) O-NO 75 0 min 0,000 mm 0,0 UV-I 0 W/m 10,5 C 11,6 C 4,8 km/h (1 Bft) 98,00 %
13.10.2019 21:42 11,5 C 10,6 C 8,3 C 93 % 1017,4 hPa 0,0 l/m 3,1 km/h (1 Bft) O-NO 75 0 min 0,000 mm 0,0 UV-I 0 W/m 10,4 C 11,5 C 4,8 km/h (1 Bft) 97,87 %
13.10.2019 21:44 11,5 C 10,6 C 8,3 C 93 % 1017,4 hPa 0,0 l/m 2,4 km/h (1 Bft) O-NO 75 0 min 0,000 mm 0,0 UV-I 0 W/m 10,4 C 11,5 C 3,2 km/h (1 Bft) 97,87 %
13.10.2019 21:46 11,4 C 10,6 C 8,9 C 93 % 1017,4 hPa 0,0 l/m 3,3 km/h (1 Bft) O-NO 75 0 min 0,000 mm 0,0 UV-I 0 W/m 10,3 C 11,4 C 4,8 km/h (1 Bft) 100,00 %
13.10.2019 21:48 11,3 C 10,6 C 8,3 C 93 % 1017,4 hPa 0,0 l/m 3,2 km/h (1 Bft) O-NO 74 0 min 0,000 mm 0,0 UV-I 0 W/m 10,2 C 11,3 C 4,8 km/h (1 Bft) 97,87 %
13.10.2019 21:50 11,3 C 10,6 C 7,8 C 93 % 1017,3 hPa 0,0 l/m 3,0 km/h (1 Bft) O-NO 74 0 min 0,000 mm 0,0 UV-I 0 W/m 10,2 C 11,3 C 4,8 km/h (1 Bft) 100,00 %
13.10.2019 21:52 11,3 C 10,6 C 7,8 C 94 % 1017,3 hPa 0,0 l/m 2,5 km/h (1 Bft) O-NO 74 0 min 0,000 mm 0,0 UV-I 0 W/m 10,4 C 11,3 C 4,8 km/h (1 Bft) 98,00 %
13.10.2019 21:54 11,2 C 10,6 C 7,2 C 93 % 1017,4 hPa 0,0 l/m 1,2 km/h (1 Bft) O-NO 74 0 min 0,000 mm 0,0 UV-I 0 W/m 10,1 C 11,2 C 1,6 km/h (1 Bft) 100,00 %
13.10.2019 21:56 11,2 C 10,6 C 7,8 C 94 % 1017,4 hPa 0,0 l/m 2,7 km/h (1 Bft) O-NO 74 0 min 0,000 mm 0,0 UV-I 0 W/m 10,3 C 11,2 C 4,8 km/h (1 Bft) 100,00 %
13.10.2019 21:58 11,2 C 10,6 C 7,8 C 94 % 1017,4 hPa 0,0 l/m 3,8 km/h (1 Bft) O-NO 74 0 min 0,000 mm 0,0 UV-I 0 W/m 10,3 C 11,2 C 6,4 km/h (2 Bft) 100,00 %
13.10.2019 22:00 11,2 C 10,6 C 7,2 C 94 % 1017,3 hPa 0,0 l/m 3,5 km/h (1 Bft) O-NO 74 0 min 0,000 mm 0,0 UV-I 0 W/m 10,3 C 11,2 C 4,8 km/h (1 Bft) 98,00 %
13.10.2019 22:02 11,3 C 10,6 C 7,2 C 94 % 1017,3 hPa 0,0 l/m 4,2 km/h (1 Bft) O-NO 74 0 min 0,000 mm 0,0 UV-I 0 W/m 10,4 C 11,3 C 6,4 km/h (2 Bft) 100,00 %
13.10.2019 22:04 11,2 C 10,6 C 7,8 C 94 % 1017,3 hPa 0,0 l/m 3,5 km/h (1 Bft) O-NO 75 0 min 0,000 mm 0,0 UV-I 0 W/m 10,3 C 11,2 C 4,8 km/h (1 Bft) 100,00 %
13.10.2019 22:06 11,2 C 10,6 C 7,8 C 94 % 1017,3 hPa 0,0 l/m 2,8 km/h (1 Bft) O-NO 74 0 min 0,000 mm 0,0 UV-I 0 W/m 10,3 C 11,2 C 4,8 km/h (1 Bft) 95,74 %
13.10.2019 22:08 11,2 C 10,6 C 7,8 C 94 % 1017,3 hPa 0,0 l/m 3,1 km/h (1 Bft) O-NO 74 0 min 0,000 mm 0,0 UV-I 0 W/m 10,3 C 11,2 C 4,8 km/h (1 Bft) 100,00 %
13.10.2019 22:10 11,2 C 10,6 C 7,2 C 94 % 1017,4 hPa 0,0 l/m 2,5 km/h (1 Bft) O-NO 74 0 min 0,000 mm 0,0 UV-I 0 W/m 10,3 C 11,2 C 3,2 km/h (1 Bft) 97,87 %
13.10.2019 22:12 11,2 C 10,6 C 7,8 C 94 % 1017,4 hPa 0,0 l/m 2,3 km/h (1 Bft) O-SO 105 0 min 0,000 mm 0,0 UV-I 0 W/m 10,3 C 11,2 C 4,8 km/h (1 Bft) 100,00 %
13.10.2019 22:14 11,2 C 10,6 C 7,8 C 94 % 1017,4 hPa 0,0 l/m 4,6 km/h (1 Bft) O-SO 105 0 min 0,000 mm 0,0 UV-I 0 W/m 10,3 C 11,2 C 6,4 km/h (2 Bft) 100,00 %
13.10.2019 22:16 11,3 C 10,6 C 8,3 C 94 % 1017,3 hPa 0,0 l/m 4,5 km/h (1 Bft) O-SO 103 0 min 0,000 mm 0,0 UV-I 0 W/m 10,4 C 11,3 C 6,4 km/h (2 Bft) 97,87 %
13.10.2019 22:18 11,3 C 10,6 C 8,9 C 94 % 1017,3 hPa 0,0 l/m 3,4 km/h (1 Bft) O 82 0 min 0,000 mm 0,0 UV-I 0 W/m 10,4 C 11,3 C 6,4 km/h (2 Bft) 100,00 %
13.10.2019 22:20 11,3 C 10,6 C 8,9 C 94 % 1017,3 hPa 0,0 l/m 4,6 km/h (1 Bft) O 93 0 min 0,000 mm 0,0 UV-I 0 W/m 10,4 C 11,3 C 6,4 km/h (2 Bft) 97,87 %
13.10.2019 22:22 11,3 C 10,6 C 8,9 C 95 % 1017,3 hPa 0,0 l/m 4,4 km/h (1 Bft) O 82 0 min 0,000 mm 0,0 UV-I 0 W/m 10,5 C 11,3 C 6,4 km/h (2 Bft) 97,87 %
13.10.2019 22:24 11,3 C 10,6 C 8,9 C 94 % 1017,4 hPa 0,0 l/m 3,5 km/h (1 Bft) O 88 0 min 0,000 mm 0,0 UV-I 0 W/m 10,4 C 11,3 C 4,8 km/h (1 Bft) 97,87 %
13.10.2019 22:26 11,3 C 10,6 C 8,9 C 94 % 1017,4 hPa 0,0 l/m 3,8 km/h (1 Bft) O 97 0 min 0,000 mm 0,0 UV-I 0 W/m 10,4 C 11,3 C 6,4 km/h (2 Bft) 97,87 %
13.10.2019 22:28 11,2 C 10,6 C 8,9 C 94 % 1017,4 hPa 0,0 l/m 2,6 km/h (1 Bft) O 96 0 min 0,000 mm 0,0 UV-I 0 W/m 10,3 C 11,2 C 3,2 km/h (1 Bft) 95,74 %
13.10.2019 22:30 11,2 C 10,6 C 8,9 C 94 % 1017,4 hPa 0,0 l/m 3,9 km/h (1 Bft) O 96 0 min 0,000 mm 0,0 UV-I 0 W/m 10,3 C 11,2 C 6,4 km/h (2 Bft) 93,62 %
13.10.2019 22:32 11,2 C 10,6 C 8,9 C 94 % 1017,3 hPa 0,0 l/m 5,8 km/h (2 Bft) O 96 0 min 0,000 mm 0,0 UV-I 0 W/m 10,3 C 11,2 C 9,7 km/h (2 Bft) 95,74 %
13.10.2019 22:34 11,2 C 10,6 C 9,4 C 95 % 1017,3 hPa 0,0 l/m 5,0 km/h (1 Bft) O 90 0 min 0,000 mm 0,0 UV-I 0 W/m 10,4 C 11,2 C 9,7 km/h (2 Bft) 93,62 %
13.10.2019 22:36 11,2 C 10,6 C 9,4 C 95 % 1017,3 hPa 0,0 l/m 4,6 km/h (1 Bft) O 99 0 min 0,000 mm 0,0 UV-I 0 W/m 10,4 C 11,2 C 6,4 km/h (2 Bft) 95,74 %
13.10.2019 22:38 11,2 C 10,6 C 9,4 C 95 % 1017,3 hPa 0,0 l/m 4,5 km/h (1 Bft) O-SO 123 0 min 0,000 mm 0,0 UV-I 0 W/m 10,4 C 11,2 C 6,4 km/h (2 Bft) 95,74 %
13.10.2019 22:40 11,2 C 10,6 C 9,4 C 94 % 1017,3 hPa 0,0 l/m 3,4 km/h (1 Bft) O 94 0 min 0,000 mm 0,0 UV-I 0 W/m 10,3 C 11,2 C 4,8 km/h (1 Bft) 95,74 %
13.10.2019 22:42 11,2 C 10,6 C 9,4 C 95 % 1017,5 hPa 0,0 l/m 1,5 km/h (1 Bft) O 94 0 min 0,000 mm 0,0 UV-I 0 W/m 10,4 C 11,2 C 3,2 km/h (1 Bft) 94,29 %
13.10.2019 22:44 11,1 C 10,6 C 9,4 C 94 % 1017,5 hPa 0,0 l/m 1,8 km/h (1 Bft) O 94 0 min 0,000 mm 0,0 UV-I 0 W/m 10,2 C 11,1 C 3,2 km/h (1 Bft) 97,87 %
13.10.2019 22:46 10,8 C 10,6 C 8,9 C 94 % 1017,5 hPa 0,0 l/m 1,8 km/h (1 Bft) O 94 0 min 0,000 mm 0,0 UV-I 0 W/m 9,9 C 10,8 C 3,2 km/h (1 Bft) 97,92 %
13.10.2019 22:48 10,6 C 10,6 C 7,8 C 94 % 1017,5 hPa 0,0 l/m 2,3 km/h (1 Bft) O 94 0 min 0,000 mm 0,0 UV-I 0 W/m 9,7 C 10,6 C 3,2 km/h (1 Bft) 94,23 %
13.10.2019 22:50 10,5 C 10,6 C 7,8 C 94 % 1017,5 hPa 0,0 l/m 2,6 km/h (1 Bft) O 94 0 min 0,000 mm 0,0 UV-I 0 W/m 9,6 C 10,5 C 3,2 km/h (1 Bft) 97,87 %
13.10.2019 22:52 10,6 C 10,6 C 7,2 C 94 % 1017,4 hPa 0,0 l/m 2,4 km/h (1 Bft) O 94 0 min 0,000 mm 0,0 UV-I 0 W/m 9,7 C 10,6 C 3,2 km/h (1 Bft) 93,75 %
13.10.2019 22:54 10,7 C 10,6 C 7,2 C 95 % 1017,4 hPa 0,0 l/m 3,1 km/h (1 Bft) O 94 0 min 0,000 mm 0,0 UV-I 0 W/m 9,9 C 10,7 C 3,2 km/h (1 Bft) 93,62 %
13.10.2019 22:56 10,8 C 10,6 C 7,8 C 95 % 1017,4 hPa 0,0 l/m 2,6 km/h (1 Bft) O 94 0 min 0,000 mm 0,0 UV-I 0 W/m 10,0 C 10,8 C 4,8 km/h (1 Bft) 93,62 %
13.10.2019 22:58 10,8 C 10,6 C 7,8 C 95 % 1017,4 hPa 0,0 l/m 1,9 km/h (1 Bft) O 94 0 min 0,000 mm 0,0 UV-I 0 W/m 10,0 C 10,8 C 3,2 km/h (1 Bft) 95,74 %
13.10.2019 23:00 10,7 C 10,6 C 7,8 C 95 % 1017,5 hPa 0,0 l/m 1,9 km/h (1 Bft) O 94 0 min 0,000 mm 0,0 UV-I 0 W/m 9,9 C 10,7 C 3,2 km/h (1 Bft) 95,74 %
13.10.2019 23:02 10,7 C 10,6 C 7,2 C 95 % 1017,6 hPa 0,0 l/m 1,1 km/h (1 Bft) O 94 0 min 0,000 mm 0,0 UV-I 0 W/m 9,9 C 10,7 C 3,2 km/h (1 Bft) 93,62 %
13.10.2019 23:04 10,6 C 10,6 C 7,2 C 95 % 1017,6 hPa 0,0 l/m 1,1 km/h (1 Bft) O 94 0 min 0,000 mm 0,0 UV-I 0 W/m 9,8 C 10,6 C 3,2 km/h (1 Bft) 93,62 %
13.10.2019 23:06 10,5 C 10,6 C 6,7 C 95 % 1017,6 hPa 0,0 l/m 2,0 km/h (1 Bft) O 94 0 min 0,000 mm 0,0 UV-I 0 W/m 9,7 C 10,5 C 3,2 km/h (1 Bft) 92,00 %
13.10.2019 23:09 10,4 C 10,6 C 6,7 C 95 % 1017,6 hPa 0,0 l/m 3,1 km/h (1 Bft) O 94 0 min 0,000 mm 0,0 UV-I 0 W/m 9,6 C 10,4 C 4,8 km/h (1 Bft) 95,89 %
13.10.2019 23:10 10,4 C 10,6 C 6,7 C 95 % 1017,6 hPa 0,0 l/m 3,2 km/h (1 Bft) O 94 0 min 0,000 mm 0,0 UV-I 0 W/m 9,6 C 10,4 C 4,8 km/h (1 Bft) 100,00 %
13.10.2019 23:12 10,4 C 10,6 C 6,7 C 95 % 1017,6 hPa 0,0 l/m 3,4 km/h (1 Bft) O 94 0 min 0,000 mm 0,0 UV-I 0 W/m 9,6 C 10,4 C 4,8 km/h (1 Bft) 89,36 %
13.10.2019 23:14 10,4 C 10,6 C 6,7 C 95 % 1017,7 hPa 0,0 l/m 2,8 km/h (1 Bft) O 94 0 min 0,000 mm 0,0 UV-I 0 W/m 9,6 C 10,4 C 3,2 km/h (1 Bft) 95,74 %
13.10.2019 23:16 10,4 C 10,6 C 7,8 C 95 % 1017,8 hPa 0,0 l/m 2,3 km/h (1 Bft) O 94 0 min 0,000 mm 0,0 UV-I 0 W/m 9,6 C 10,4 C 3,2 km/h (1 Bft) 95,74 %
13.10.2019 23:18 10,4 C 10,6 C 7,8 C 95 % 1017,7 hPa 0,0 l/m 1,0 km/h (0 Bft) O 94 0 min 0,000 mm 0,0 UV-I 0 W/m 9,6 C 10,4 C 1,6 km/h (1 Bft) 93,62 %
13.10.2019 23:20 10,3 C 10,6 C 7,2 C 95 % 1017,7 hPa 0,0 l/m 2,9 km/h (1 Bft) O 89 0 min 0,000 mm 0,0 UV-I 0 W/m 9,5 C 10,3 C 4,8 km/h (1 Bft) 95,74 %
13.10.2019 23:22 10,2 C 10,6 C 7,2 C 95 % 1017,7 hPa 0,0 l/m 3,0 km/h (1 Bft) O 89 0 min 0,000 mm 0,0 UV-I 0 W/m 9,4 C 10,2 C 4,8 km/h (1 Bft) 95,74 %
13.10.2019 23:24 10,2 C 10,6 C 6,7 C 95 % 1017,7 hPa 0,0 l/m 3,0 km/h (1 Bft) O 89 0 min 0,000 mm 0,0 UV-I 0 W/m 9,4 C 10,2 C 4,8 km/h (1 Bft) 92,00 %
13.10.2019 23:26 10,2 C 10,6 C 6,7 C 95 % 1017,7 hPa 0,0 l/m 2,9 km/h (1 Bft) O 89 0 min 0,000 mm 0,0 UV-I 0 W/m 9,4 C 10,2 C 3,2 km/h (1 Bft) 92,00 %
13.10.2019 23:28 10,2 C 10,6 C 6,7 C 95 % 1017,7 hPa 0,0 l/m 3,0 km/h (1 Bft) O 89 0 min 0,000 mm 0,0 UV-I 0 W/m 9,4 C 10,2 C 4,8 km/h (1 Bft) 97,87 %
13.10.2019 23:30 10,2 C 10,6 C 6,7 C 95 % 1017,7 hPa 0,0 l/m 3,0 km/h (1 Bft) O 89 0 min 0,000 mm 0,0 UV-I 0 W/m 9,4 C 10,2 C 4,8 km/h (1 Bft) 97,22 %
13.10.2019 23:32 10,2 C 10,6 C 6,7 C 95 % 1017,6 hPa 0,0 l/m 3,0 km/h (1 Bft) O 89 0 min 0,000 mm 0,0 UV-I 0 W/m 9,4 C 10,2 C 4,8 km/h (1 Bft) 96,00 %
13.10.2019 23:34 10,2 C 10,6 C 6,7 C 96 % 1017,6 hPa 0,0 l/m 3,2 km/h (1 Bft) O 89 0 min 0,000 mm 0,0 UV-I 0 W/m 9,6 C 10,2 C 4,8 km/h (1 Bft) 96,00 %
13.10.2019 23:36 10,3 C 10,6 C 6,7 C 96 % 1017,6 hPa 0,0 l/m 3,9 km/h (1 Bft) O 89 0 min 0,000 mm 0,0 UV-I 0 W/m 9,7 C 10,3 C 4,8 km/h (1 Bft) 97,87 %
13.10.2019 23:38 10,3 C 10,6 C 6,7 C 96 % 1017,6 hPa 0,0 l/m 3,7 km/h (1 Bft) O 89 0 min 0,000 mm 0,0 UV-I 0 W/m 9,7 C 10,3 C 4,8 km/h (1 Bft) 100,00 %
13.10.2019 23:40 10,2 C 10,6 C 7,2 C 96 % 1017,7 hPa 0,0 l/m 3,7 km/h (1 Bft) O-NO 61 0 min 0,000 mm 0,0 UV-I 0 W/m 9,6 C 10,2 C 4,8 km/h (1 Bft) 100,00 %
13.10.2019 23:42 10,1 C 10,6 C 7,8 C 95 % 1017,7 hPa 0,0 l/m 3,6 km/h (1 Bft) O-NO 61 0 min 0,000 mm 0,0 UV-I 0 W/m 9,3 C 10,1 C 4,8 km/h (1 Bft) 95,74 %
13.10.2019 23:44 10,1 C 10,6 C 7,2 C 95 % 1017,7 hPa 0,0 l/m 2,6 km/h (1 Bft) O-NO 61 0 min 0,000 mm 0,0 UV-I 0 W/m 9,3 C 10,1 C 3,2 km/h (1 Bft) 97,87 %
13.10.2019 23:46 10,1 C 10,6 C 7,2 C 95 % 1017,7 hPa 0,0 l/m 3,4 km/h (1 Bft) O-NO 61 0 min 0,000 mm 0,0 UV-I 0 W/m 9,3 C 10,1 C 4,8 km/h (1 Bft) 97,87 %
13.10.2019 23:48 10,1 C 10,6 C 7,2 C 95 % 1017,8 hPa 0,0 l/m 2,6 km/h (1 Bft) O-NO 61 0 min 0,000 mm 0,0 UV-I 0 W/m 9,3 C 10,1 C 3,2 km/h (1 Bft) 97,87 %
13.10.2019 23:50 10,0 C 10,6 C 7,2 C 95 % 1017,8 hPa 0,0 l/m 1,0 km/h (0 Bft) O-NO 61 0 min 0,000 mm 0,0 UV-I 0 W/m 9,2 C 10,0 C 3,2 km/h (1 Bft) 98,00 %
13.10.2019 23:52 9,9 C 10,6 C 6,7 C 95 % 1017,8 hPa 0,0 l/m 0,0 km/h (0 Bft) O-NO 61 0 min 0,000 mm 0,0 UV-I 0 W/m 9,1 C 9,9 C 1,6 km/h (1 Bft) 93,62 %
13.10.2019 23:54 9,6 C 10,6 C 7,2 C 95 % 1017,7 hPa 0,0 l/m 0,0 km/h (0 Bft) O-NO 61 0 min 0,000 mm 0,0 UV-I 0 W/m 8,8 C 9,6 C 0,0 km/h (0 Bft) 97,87 %
13.10.2019 23:56 9,3 C 10,6 C 7,2 C 95 % 1017,8 hPa 0,0 l/m 0,0 km/h (0 Bft) O-NO 61 0 min 0,000 mm 0,0 UV-I 0 W/m 8,5 C 9,3 C 0,0 km/h (0 Bft) 100,00 %
13.10.2019 23:58 9,2 C 10,6 C 6,7 C 95 % 1017,8 hPa 0,0 l/m 0,0 km/h (0 Bft) O-NO 61 0 min 0,000 mm 0,0 UV-I 0 W/m 8,4 C 9,2 C 0,0 km/h (0 Bft) 96,00 %
_ Min-Zeit 07:48 00:00 04:46 14:32 16:14 - 00:00 - - - - - - 04:00 07:48 00:00 10:06
Minimum _ 6,4 C 10,0 C 3,9 C 64 % 1015,8 hPa - 0,0 km/h (0 Bft) - - - - - - 5,9 C 6,4 C 0,0 km/h (0 Bft) 89,36 %
_ Max-Zeit 15:38 00:46 12:02 09:36 09:00 07:14 18:40 - - 07:30 14:02 13:12 12:24 15:22 15:18 18:40 00:00
Maximum _ 19,1 C 10,6 C 23,9 C 98 % 1019,2 hPa 0,2 l/m 16,9 km/h
O (3 Bft)
- - 2 min 0,305 mm 2,6 UV-I 549 W/m 14,0 C 18,9 C 25,7 km/h
O (4 Bft)
100,00 %
Durchschnitt _ 11,8 C 10,4 C 11,2 C 88 % 1017,6 hPa #0,2 l/m 3,9 km/h (1 Bft) O - #9:34 h #1,930 mm 1,6 UV-I 280 W/m 9,7 C 11,3 C 6,0 km/h (2 Bft) 97,04 %